<?xml version="1.0" encoding="UTF-8" standalone="no" ?>
<gpx xmlns="http://www.topografix.com/GPX/1/1" xmlns:xsi="http://www.w3.org/2001/XMLSchema-instance" xsi:schemaLocation="http://www.topografix.com/GPX/1/1 http://www.topografix.com/GPX/1/1/gpx.xsd" version="1.1" creator="VisuGPX - https://www.visugpx.com">
  <metadata>
    <name>beaugency blois</name>
    <desc><![CDATA[parcours avec de beaux paysages de Loire.]]></desc>
  </metadata>
  <trk>
    <name><![CDATA[BEAUGENCYBLOIS]]></name>
    <trkseg>
      <trkpt lat="47.77896" lon="1.63725">
        <ele>81</ele>
        <time>2017-09-17T06:18:12.000Z</time>
      </trkpt>
      <trkpt lat="47.77897" lon="1.63725">
        <ele>86</ele>
        <time>2017-09-17T06:21:27.000Z</time>
      </trkpt>
      <trkpt lat="47.77864" lon="1.63673">
        <ele>83</ele>
        <time>2017-09-17T06:21:45.000Z</time>
      </trkpt>
      <trkpt lat="47.77863" lon="1.6367">
        <ele>83</ele>
        <time>2017-09-17T06:21:46.000Z</time>
      </trkpt>
      <trkpt lat="47.77854" lon="1.63652">
        <ele>82</ele>
        <time>2017-09-17T06:21:51.000Z</time>
      </trkpt>
      <trkpt lat="47.77845" lon="1.63636">
        <ele>83</ele>
        <time>2017-09-17T06:22:17.000Z</time>
      </trkpt>
      <trkpt lat="47.77836" lon="1.63625">
        <ele>83</ele>
        <time>2017-09-17T06:22:22.000Z</time>
      </trkpt>
      <trkpt lat="47.7781" lon="1.63585">
        <ele>82</ele>
        <time>2017-09-17T06:22:33.000Z</time>
      </trkpt>
      <trkpt lat="47.7777" lon="1.63552">
        <ele>81</ele>
        <time>2017-09-17T06:22:46.000Z</time>
      </trkpt>
      <trkpt lat="47.77767" lon="1.63551">
        <ele>81</ele>
        <time>2017-09-17T06:22:47.000Z</time>
      </trkpt>
      <trkpt lat="47.77736" lon="1.63537">
        <ele>81</ele>
        <time>2017-09-17T06:22:57.000Z</time>
      </trkpt>
      <trkpt lat="47.77695" lon="1.63502">
        <ele>80</ele>
        <time>2017-09-17T06:23:09.000Z</time>
      </trkpt>
      <trkpt lat="47.77692" lon="1.63499">
        <ele>80</ele>
        <time>2017-09-17T06:23:10.000Z</time>
      </trkpt>
      <trkpt lat="47.7765" lon="1.6347">
        <ele>80</ele>
        <time>2017-09-17T06:23:21.000Z</time>
      </trkpt>
      <trkpt lat="47.77645" lon="1.63467">
        <ele>80</ele>
        <time>2017-09-17T06:23:22.000Z</time>
      </trkpt>
      <trkpt lat="47.776" lon="1.63438">
        <ele>81</ele>
        <time>2017-09-17T06:23:33.000Z</time>
      </trkpt>
      <trkpt lat="47.77596" lon="1.63436">
        <ele>81</ele>
        <time>2017-09-17T06:23:34.000Z</time>
      </trkpt>
      <trkpt lat="47.77552" lon="1.63405">
        <ele>81</ele>
        <time>2017-09-17T06:23:44.000Z</time>
      </trkpt>
      <trkpt lat="47.77547" lon="1.63402">
        <ele>81</ele>
        <time>2017-09-17T06:23:45.000Z</time>
      </trkpt>
      <trkpt lat="47.77503" lon="1.63376">
        <ele>81</ele>
        <time>2017-09-17T06:23:55.000Z</time>
      </trkpt>
      <trkpt lat="47.77499" lon="1.63374">
        <ele>81</ele>
        <time>2017-09-17T06:23:56.000Z</time>
      </trkpt>
      <trkpt lat="47.77454" lon="1.63348">
        <ele>80</ele>
        <time>2017-09-17T06:24:06.000Z</time>
      </trkpt>
      <trkpt lat="47.7745" lon="1.63346">
        <ele>80</ele>
        <time>2017-09-17T06:24:07.000Z</time>
      </trkpt>
      <trkpt lat="47.77438" lon="1.63335">
        <ele>80</ele>
        <time>2017-09-17T06:24:10.000Z</time>
      </trkpt>
      <trkpt lat="47.77435" lon="1.63324">
        <ele>80</ele>
        <time>2017-09-17T06:24:12.000Z</time>
      </trkpt>
      <trkpt lat="47.77431" lon="1.63318">
        <ele>81</ele>
        <time>2017-09-17T06:24:14.000Z</time>
      </trkpt>
      <trkpt lat="47.77423" lon="1.63314">
        <ele>81</ele>
        <time>2017-09-17T06:24:17.000Z</time>
      </trkpt>
      <trkpt lat="47.77417" lon="1.6331">
        <ele>82</ele>
        <time>2017-09-17T06:24:19.000Z</time>
      </trkpt>
      <trkpt lat="47.77403" lon="1.63304">
        <ele>83</ele>
        <time>2017-09-17T06:24:23.000Z</time>
      </trkpt>
      <trkpt lat="47.77392" lon="1.63291">
        <ele>85</ele>
        <time>2017-09-17T06:24:27.000Z</time>
      </trkpt>
      <trkpt lat="47.77379" lon="1.63269">
        <ele>87</ele>
        <time>2017-09-17T06:24:33.000Z</time>
      </trkpt>
      <trkpt lat="47.77369" lon="1.63264">
        <ele>88</ele>
        <time>2017-09-17T06:24:36.000Z</time>
      </trkpt>
      <trkpt lat="47.77349" lon="1.6326">
        <ele>88</ele>
        <time>2017-09-17T06:24:42.000Z</time>
      </trkpt>
      <trkpt lat="47.77333" lon="1.63234">
        <ele>88</ele>
        <time>2017-09-17T06:24:48.000Z</time>
      </trkpt>
      <trkpt lat="47.77308" lon="1.63224">
        <ele>87</ele>
        <time>2017-09-17T06:24:53.000Z</time>
      </trkpt>
      <trkpt lat="47.77261" lon="1.63211">
        <ele>87</ele>
        <time>2017-09-17T06:25:01.000Z</time>
      </trkpt>
      <trkpt lat="47.77256" lon="1.63209">
        <ele>86</ele>
        <time>2017-09-17T06:25:02.000Z</time>
      </trkpt>
      <trkpt lat="47.77212" lon="1.63187">
        <ele>86</ele>
        <time>2017-09-17T06:25:10.000Z</time>
      </trkpt>
      <trkpt lat="47.77206" lon="1.63183">
        <ele>86</ele>
        <time>2017-09-17T06:25:11.000Z</time>
      </trkpt>
      <trkpt lat="47.77163" lon="1.6316">
        <ele>86</ele>
        <time>2017-09-17T06:25:19.000Z</time>
      </trkpt>
      <trkpt lat="47.77158" lon="1.63157">
        <ele>86</ele>
        <time>2017-09-17T06:25:20.000Z</time>
      </trkpt>
      <trkpt lat="47.77111" lon="1.63131">
        <ele>86</ele>
        <time>2017-09-17T06:25:28.000Z</time>
      </trkpt>
      <trkpt lat="47.77105" lon="1.63128">
        <ele>85</ele>
        <time>2017-09-17T06:25:29.000Z</time>
      </trkpt>
      <trkpt lat="47.77058" lon="1.63102">
        <ele>84</ele>
        <time>2017-09-17T06:25:36.000Z</time>
      </trkpt>
      <trkpt lat="47.77051" lon="1.63098">
        <ele>84</ele>
        <time>2017-09-17T06:25:37.000Z</time>
      </trkpt>
      <trkpt lat="47.77005" lon="1.63073">
        <ele>83</ele>
        <time>2017-09-17T06:25:44.000Z</time>
      </trkpt>
      <trkpt lat="47.76999" lon="1.63069">
        <ele>83</ele>
        <time>2017-09-17T06:25:45.000Z</time>
      </trkpt>
      <trkpt lat="47.76954" lon="1.63046">
        <ele>83</ele>
        <time>2017-09-17T06:25:52.000Z</time>
      </trkpt>
      <trkpt lat="47.76948" lon="1.63043">
        <ele>83</ele>
        <time>2017-09-17T06:25:53.000Z</time>
      </trkpt>
      <trkpt lat="47.76904" lon="1.63018">
        <ele>83</ele>
        <time>2017-09-17T06:26:00.000Z</time>
      </trkpt>
      <trkpt lat="47.76898" lon="1.63014">
        <ele>83</ele>
        <time>2017-09-17T06:26:01.000Z</time>
      </trkpt>
      <trkpt lat="47.76851" lon="1.62986">
        <ele>83</ele>
        <time>2017-09-17T06:26:09.000Z</time>
      </trkpt>
      <trkpt lat="47.76846" lon="1.62982">
        <ele>83</ele>
        <time>2017-09-17T06:26:10.000Z</time>
      </trkpt>
      <trkpt lat="47.76801" lon="1.62949">
        <ele>83</ele>
        <time>2017-09-17T06:26:18.000Z</time>
      </trkpt>
      <trkpt lat="47.76794" lon="1.62945">
        <ele>83</ele>
        <time>2017-09-17T06:26:19.000Z</time>
      </trkpt>
      <trkpt lat="47.76748" lon="1.62916">
        <ele>83</ele>
        <time>2017-09-17T06:26:26.000Z</time>
      </trkpt>
      <trkpt lat="47.76741" lon="1.62912">
        <ele>83</ele>
        <time>2017-09-17T06:26:27.000Z</time>
      </trkpt>
      <trkpt lat="47.76693" lon="1.62881">
        <ele>83</ele>
        <time>2017-09-17T06:26:34.000Z</time>
      </trkpt>
      <trkpt lat="47.76687" lon="1.62876">
        <ele>83</ele>
        <time>2017-09-17T06:26:35.000Z</time>
      </trkpt>
      <trkpt lat="47.76643" lon="1.6284">
        <ele>83</ele>
        <time>2017-09-17T06:26:42.000Z</time>
      </trkpt>
      <trkpt lat="47.76637" lon="1.62835">
        <ele>83</ele>
        <time>2017-09-17T06:26:43.000Z</time>
      </trkpt>
      <trkpt lat="47.76593" lon="1.62809">
        <ele>84</ele>
        <time>2017-09-17T06:26:50.000Z</time>
      </trkpt>
      <trkpt lat="47.76587" lon="1.62805">
        <ele>84</ele>
        <time>2017-09-17T06:26:51.000Z</time>
      </trkpt>
      <trkpt lat="47.76543" lon="1.62779">
        <ele>83</ele>
        <time>2017-09-17T06:26:58.000Z</time>
      </trkpt>
      <trkpt lat="47.76535" lon="1.62775">
        <ele>83</ele>
        <time>2017-09-17T06:26:59.000Z</time>
      </trkpt>
      <trkpt lat="47.76492" lon="1.62755">
        <ele>82</ele>
        <time>2017-09-17T06:27:05.000Z</time>
      </trkpt>
      <trkpt lat="47.76484" lon="1.62752">
        <ele>82</ele>
        <time>2017-09-17T06:27:06.000Z</time>
      </trkpt>
      <trkpt lat="47.76441" lon="1.62731">
        <ele>82</ele>
        <time>2017-09-17T06:27:12.000Z</time>
      </trkpt>
      <trkpt lat="47.76433" lon="1.62727">
        <ele>82</ele>
        <time>2017-09-17T06:27:13.000Z</time>
      </trkpt>
      <trkpt lat="47.7639" lon="1.62706">
        <ele>82</ele>
        <time>2017-09-17T06:27:19.000Z</time>
      </trkpt>
      <trkpt lat="47.76384" lon="1.62702">
        <ele>82</ele>
        <time>2017-09-17T06:27:20.000Z</time>
      </trkpt>
      <trkpt lat="47.76371" lon="1.62689">
        <ele>82</ele>
        <time>2017-09-17T06:27:22.000Z</time>
      </trkpt>
      <trkpt lat="47.76359" lon="1.6266">
        <ele>82</ele>
        <time>2017-09-17T06:27:25.000Z</time>
      </trkpt>
      <trkpt lat="47.76344" lon="1.62622">
        <ele>82</ele>
        <time>2017-09-17T06:27:29.000Z</time>
      </trkpt>
      <trkpt lat="47.76325" lon="1.62601">
        <ele>81</ele>
        <time>2017-09-17T06:27:32.000Z</time>
      </trkpt>
      <trkpt lat="47.76285" lon="1.62569">
        <ele>81</ele>
        <time>2017-09-17T06:27:38.000Z</time>
      </trkpt>
      <trkpt lat="47.76278" lon="1.62564">
        <ele>81</ele>
        <time>2017-09-17T06:27:39.000Z</time>
      </trkpt>
      <trkpt lat="47.76233" lon="1.62525">
        <ele>81</ele>
        <time>2017-09-17T06:27:46.000Z</time>
      </trkpt>
      <trkpt lat="47.76226" lon="1.6252">
        <ele>81</ele>
        <time>2017-09-17T06:27:47.000Z</time>
      </trkpt>
      <trkpt lat="47.76182" lon="1.62486">
        <ele>81</ele>
        <time>2017-09-17T06:27:54.000Z</time>
      </trkpt>
      <trkpt lat="47.76176" lon="1.62483">
        <ele>81</ele>
        <time>2017-09-17T06:27:55.000Z</time>
      </trkpt>
      <trkpt lat="47.76144" lon="1.62456">
        <ele>81</ele>
        <time>2017-09-17T06:28:01.000Z</time>
      </trkpt>
      <trkpt lat="47.7614" lon="1.62447">
        <ele>81</ele>
        <time>2017-09-17T06:28:04.000Z</time>
      </trkpt>
      <trkpt lat="47.76142" lon="1.62446">
        <ele>81</ele>
        <time>2017-09-17T06:28:09.000Z</time>
      </trkpt>
      <trkpt lat="47.76134" lon="1.62459">
        <ele>81</ele>
        <time>2017-09-17T06:28:13.000Z</time>
      </trkpt>
      <trkpt lat="47.76111" lon="1.6252">
        <ele>82</ele>
        <time>2017-09-17T06:28:21.000Z</time>
      </trkpt>
      <trkpt lat="47.76108" lon="1.62528">
        <ele>82</ele>
        <time>2017-09-17T06:28:22.000Z</time>
      </trkpt>
      <trkpt lat="47.76088" lon="1.6257">
        <ele>82</ele>
        <time>2017-09-17T06:28:27.000Z</time>
      </trkpt>
      <trkpt lat="47.76076" lon="1.62571">
        <ele>83</ele>
        <time>2017-09-17T06:28:29.000Z</time>
      </trkpt>
      <trkpt lat="47.76034" lon="1.62548">
        <ele>83</ele>
        <time>2017-09-17T06:28:36.000Z</time>
      </trkpt>
      <trkpt lat="47.76027" lon="1.62545">
        <ele>83</ele>
        <time>2017-09-17T06:28:37.000Z</time>
      </trkpt>
      <trkpt lat="47.7598" lon="1.62519">
        <ele>83</ele>
        <time>2017-09-17T06:28:44.000Z</time>
      </trkpt>
      <trkpt lat="47.75974" lon="1.62514">
        <ele>83</ele>
        <time>2017-09-17T06:28:45.000Z</time>
      </trkpt>
      <trkpt lat="47.75926" lon="1.62487">
        <ele>82</ele>
        <time>2017-09-17T06:28:52.000Z</time>
      </trkpt>
      <trkpt lat="47.75919" lon="1.62483">
        <ele>82</ele>
        <time>2017-09-17T06:28:53.000Z</time>
      </trkpt>
      <trkpt lat="47.75871" lon="1.62454">
        <ele>82</ele>
        <time>2017-09-17T06:29:00.000Z</time>
      </trkpt>
      <trkpt lat="47.75864" lon="1.62449">
        <ele>82</ele>
        <time>2017-09-17T06:29:01.000Z</time>
      </trkpt>
      <trkpt lat="47.75822" lon="1.62423">
        <ele>82</ele>
        <time>2017-09-17T06:29:07.000Z</time>
      </trkpt>
      <trkpt lat="47.75815" lon="1.62418">
        <ele>82</ele>
        <time>2017-09-17T06:29:08.000Z</time>
      </trkpt>
      <trkpt lat="47.75765" lon="1.62398">
        <ele>81</ele>
        <time>2017-09-17T06:29:15.000Z</time>
      </trkpt>
      <trkpt lat="47.75758" lon="1.62396">
        <ele>81</ele>
        <time>2017-09-17T06:29:16.000Z</time>
      </trkpt>
      <trkpt lat="47.75709" lon="1.6238">
        <ele>80</ele>
        <time>2017-09-17T06:29:23.000Z</time>
      </trkpt>
      <trkpt lat="47.75703" lon="1.62377">
        <ele>80</ele>
        <time>2017-09-17T06:29:24.000Z</time>
      </trkpt>
      <trkpt lat="47.75657" lon="1.62357">
        <ele>79</ele>
        <time>2017-09-17T06:29:31.000Z</time>
      </trkpt>
      <trkpt lat="47.7565" lon="1.62354">
        <ele>79</ele>
        <time>2017-09-17T06:29:32.000Z</time>
      </trkpt>
      <trkpt lat="47.75605" lon="1.62337">
        <ele>80</ele>
        <time>2017-09-17T06:29:39.000Z</time>
      </trkpt>
      <trkpt lat="47.75598" lon="1.62335">
        <ele>80</ele>
        <time>2017-09-17T06:29:40.000Z</time>
      </trkpt>
      <trkpt lat="47.75553" lon="1.62314">
        <ele>80</ele>
        <time>2017-09-17T06:29:47.000Z</time>
      </trkpt>
      <trkpt lat="47.75546" lon="1.62311">
        <ele>80</ele>
        <time>2017-09-17T06:29:48.000Z</time>
      </trkpt>
      <trkpt lat="47.755" lon="1.62294">
        <ele>80</ele>
        <time>2017-09-17T06:29:55.000Z</time>
      </trkpt>
      <trkpt lat="47.75494" lon="1.62292">
        <ele>80</ele>
        <time>2017-09-17T06:29:56.000Z</time>
      </trkpt>
      <trkpt lat="47.75454" lon="1.62281">
        <ele>80</ele>
        <time>2017-09-17T06:30:02.000Z</time>
      </trkpt>
      <trkpt lat="47.75447" lon="1.62281">
        <ele>80</ele>
        <time>2017-09-17T06:30:03.000Z</time>
      </trkpt>
      <trkpt lat="47.754" lon="1.62284">
        <ele>81</ele>
        <time>2017-09-17T06:30:10.000Z</time>
      </trkpt>
      <trkpt lat="47.75393" lon="1.62284">
        <ele>81</ele>
        <time>2017-09-17T06:30:11.000Z</time>
      </trkpt>
      <trkpt lat="47.75355" lon="1.62277">
        <ele>81</ele>
        <time>2017-09-17T06:30:17.000Z</time>
      </trkpt>
      <trkpt lat="47.75349" lon="1.62274">
        <ele>81</ele>
        <time>2017-09-17T06:30:18.000Z</time>
      </trkpt>
      <trkpt lat="47.75306" lon="1.6225">
        <ele>80</ele>
        <time>2017-09-17T06:30:25.000Z</time>
      </trkpt>
      <trkpt lat="47.753" lon="1.62246">
        <ele>80</ele>
        <time>2017-09-17T06:30:26.000Z</time>
      </trkpt>
      <trkpt lat="47.75254" lon="1.6222">
        <ele>80</ele>
        <time>2017-09-17T06:30:33.000Z</time>
      </trkpt>
      <trkpt lat="47.75248" lon="1.62216">
        <ele>80</ele>
        <time>2017-09-17T06:30:34.000Z</time>
      </trkpt>
      <trkpt lat="47.75202" lon="1.62193">
        <ele>79</ele>
        <time>2017-09-17T06:30:41.000Z</time>
      </trkpt>
      <trkpt lat="47.75196" lon="1.62189">
        <ele>79</ele>
        <time>2017-09-17T06:30:42.000Z</time>
      </trkpt>
      <trkpt lat="47.75148" lon="1.62171">
        <ele>79</ele>
        <time>2017-09-17T06:30:49.000Z</time>
      </trkpt>
      <trkpt lat="47.75141" lon="1.62168">
        <ele>79</ele>
        <time>2017-09-17T06:30:50.000Z</time>
      </trkpt>
      <trkpt lat="47.75114" lon="1.62163">
        <ele>80</ele>
        <time>2017-09-17T06:30:54.000Z</time>
      </trkpt>
      <trkpt lat="47.75069" lon="1.62162">
        <ele>81</ele>
        <time>2017-09-17T06:31:01.000Z</time>
      </trkpt>
      <trkpt lat="47.75062" lon="1.62162">
        <ele>81</ele>
        <time>2017-09-17T06:31:02.000Z</time>
      </trkpt>
      <trkpt lat="47.75013" lon="1.62167">
        <ele>80</ele>
        <time>2017-09-17T06:31:09.000Z</time>
      </trkpt>
      <trkpt lat="47.75006" lon="1.62167">
        <ele>80</ele>
        <time>2017-09-17T06:31:10.000Z</time>
      </trkpt>
      <trkpt lat="47.74957" lon="1.6217">
        <ele>81</ele>
        <time>2017-09-17T06:31:17.000Z</time>
      </trkpt>
      <trkpt lat="47.74949" lon="1.6217">
        <ele>81</ele>
        <time>2017-09-17T06:31:18.000Z</time>
      </trkpt>
      <trkpt lat="47.74899" lon="1.6217">
        <ele>82</ele>
        <time>2017-09-17T06:31:25.000Z</time>
      </trkpt>
      <trkpt lat="47.74892" lon="1.62171">
        <ele>82</ele>
        <time>2017-09-17T06:31:26.000Z</time>
      </trkpt>
      <trkpt lat="47.74842" lon="1.6217">
        <ele>83</ele>
        <time>2017-09-17T06:31:33.000Z</time>
      </trkpt>
      <trkpt lat="47.74835" lon="1.62169">
        <ele>83</ele>
        <time>2017-09-17T06:31:34.000Z</time>
      </trkpt>
      <trkpt lat="47.748" lon="1.6216">
        <ele>83</ele>
        <time>2017-09-17T06:31:39.000Z</time>
      </trkpt>
      <trkpt lat="47.74751" lon="1.62145">
        <ele>83</ele>
        <time>2017-09-17T06:31:46.000Z</time>
      </trkpt>
      <trkpt lat="47.74743" lon="1.62143">
        <ele>83</ele>
        <time>2017-09-17T06:31:47.000Z</time>
      </trkpt>
      <trkpt lat="47.74693" lon="1.62126">
        <ele>83</ele>
        <time>2017-09-17T06:31:54.000Z</time>
      </trkpt>
      <trkpt lat="47.74686" lon="1.62124">
        <ele>83</ele>
        <time>2017-09-17T06:31:55.000Z</time>
      </trkpt>
      <trkpt lat="47.74638" lon="1.62115">
        <ele>84</ele>
        <time>2017-09-17T06:32:02.000Z</time>
      </trkpt>
      <trkpt lat="47.74631" lon="1.62115">
        <ele>84</ele>
        <time>2017-09-17T06:32:03.000Z</time>
      </trkpt>
      <trkpt lat="47.74592" lon="1.62112">
        <ele>84</ele>
        <time>2017-09-17T06:32:09.000Z</time>
      </trkpt>
      <trkpt lat="47.74586" lon="1.62109">
        <ele>84</ele>
        <time>2017-09-17T06:32:10.000Z</time>
      </trkpt>
      <trkpt lat="47.7455" lon="1.62089">
        <ele>85</ele>
        <time>2017-09-17T06:32:16.000Z</time>
      </trkpt>
      <trkpt lat="47.74508" lon="1.62052">
        <ele>85</ele>
        <time>2017-09-17T06:32:24.000Z</time>
      </trkpt>
      <trkpt lat="47.74502" lon="1.62048">
        <ele>85</ele>
        <time>2017-09-17T06:32:25.000Z</time>
      </trkpt>
      <trkpt lat="47.74459" lon="1.62009">
        <ele>85</ele>
        <time>2017-09-17T06:32:33.000Z</time>
      </trkpt>
      <trkpt lat="47.74454" lon="1.62004">
        <ele>85</ele>
        <time>2017-09-17T06:32:34.000Z</time>
      </trkpt>
      <trkpt lat="47.74414" lon="1.61968">
        <ele>85</ele>
        <time>2017-09-17T06:32:41.000Z</time>
      </trkpt>
      <trkpt lat="47.74408" lon="1.61963">
        <ele>85</ele>
        <time>2017-09-17T06:32:42.000Z</time>
      </trkpt>
      <trkpt lat="47.74368" lon="1.61927">
        <ele>83</ele>
        <time>2017-09-17T06:32:49.000Z</time>
      </trkpt>
      <trkpt lat="47.74363" lon="1.61922">
        <ele>83</ele>
        <time>2017-09-17T06:32:50.000Z</time>
      </trkpt>
      <trkpt lat="47.74319" lon="1.61887">
        <ele>83</ele>
        <time>2017-09-17T06:32:58.000Z</time>
      </trkpt>
      <trkpt lat="47.74314" lon="1.61882">
        <ele>83</ele>
        <time>2017-09-17T06:32:59.000Z</time>
      </trkpt>
      <trkpt lat="47.7427" lon="1.61848">
        <ele>82</ele>
        <time>2017-09-17T06:33:07.000Z</time>
      </trkpt>
      <trkpt lat="47.74265" lon="1.61844">
        <ele>82</ele>
        <time>2017-09-17T06:33:08.000Z</time>
      </trkpt>
      <trkpt lat="47.74221" lon="1.61807">
        <ele>82</ele>
        <time>2017-09-17T06:33:16.000Z</time>
      </trkpt>
      <trkpt lat="47.74216" lon="1.61803">
        <ele>82</ele>
        <time>2017-09-17T06:33:17.000Z</time>
      </trkpt>
      <trkpt lat="47.74176" lon="1.61763">
        <ele>82</ele>
        <time>2017-09-17T06:33:25.000Z</time>
      </trkpt>
      <trkpt lat="47.74171" lon="1.61757">
        <ele>82</ele>
        <time>2017-09-17T06:33:26.000Z</time>
      </trkpt>
      <trkpt lat="47.74134" lon="1.61713">
        <ele>84</ele>
        <time>2017-09-17T06:33:34.000Z</time>
      </trkpt>
      <trkpt lat="47.74129" lon="1.61707">
        <ele>84</ele>
        <time>2017-09-17T06:33:35.000Z</time>
      </trkpt>
      <trkpt lat="47.74089" lon="1.61662">
        <ele>85</ele>
        <time>2017-09-17T06:33:43.000Z</time>
      </trkpt>
      <trkpt lat="47.74084" lon="1.61657">
        <ele>85</ele>
        <time>2017-09-17T06:33:44.000Z</time>
      </trkpt>
      <trkpt lat="47.74046" lon="1.61616">
        <ele>85</ele>
        <time>2017-09-17T06:33:51.000Z</time>
      </trkpt>
      <trkpt lat="47.74041" lon="1.61609">
        <ele>85</ele>
        <time>2017-09-17T06:33:52.000Z</time>
      </trkpt>
      <trkpt lat="47.74006" lon="1.61566">
        <ele>85</ele>
        <time>2017-09-17T06:33:59.000Z</time>
      </trkpt>
      <trkpt lat="47.74001" lon="1.61561">
        <ele>85</ele>
        <time>2017-09-17T06:34:00.000Z</time>
      </trkpt>
      <trkpt lat="47.73966" lon="1.61519">
        <ele>86</ele>
        <time>2017-09-17T06:34:07.000Z</time>
      </trkpt>
      <trkpt lat="47.73961" lon="1.61512">
        <ele>86</ele>
        <time>2017-09-17T06:34:08.000Z</time>
      </trkpt>
      <trkpt lat="47.73951" lon="1.61496">
        <ele>85</ele>
        <time>2017-09-17T06:34:10.000Z</time>
      </trkpt>
      <trkpt lat="47.73922" lon="1.61444">
        <ele>84</ele>
        <time>2017-09-17T06:34:16.000Z</time>
      </trkpt>
      <trkpt lat="47.73917" lon="1.61436">
        <ele>84</ele>
        <time>2017-09-17T06:34:17.000Z</time>
      </trkpt>
      <trkpt lat="47.73886" lon="1.61383">
        <ele>84</ele>
        <time>2017-09-17T06:34:24.000Z</time>
      </trkpt>
      <trkpt lat="47.73882" lon="1.61377">
        <ele>84</ele>
        <time>2017-09-17T06:34:25.000Z</time>
      </trkpt>
      <trkpt lat="47.73862" lon="1.61353">
        <ele>84</ele>
        <time>2017-09-17T06:34:29.000Z</time>
      </trkpt>
      <trkpt lat="47.73823" lon="1.61313">
        <ele>84</ele>
        <time>2017-09-17T06:34:36.000Z</time>
      </trkpt>
      <trkpt lat="47.73818" lon="1.61307">
        <ele>84</ele>
        <time>2017-09-17T06:34:37.000Z</time>
      </trkpt>
      <trkpt lat="47.73803" lon="1.61289">
        <ele>84</ele>
        <time>2017-09-17T06:34:40.000Z</time>
      </trkpt>
      <trkpt lat="47.73767" lon="1.61236">
        <ele>83</ele>
        <time>2017-09-17T06:34:48.000Z</time>
      </trkpt>
      <trkpt lat="47.73763" lon="1.61229">
        <ele>82</ele>
        <time>2017-09-17T06:34:49.000Z</time>
      </trkpt>
      <trkpt lat="47.73758" lon="1.61222">
        <ele>82</ele>
        <time>2017-09-17T06:34:50.000Z</time>
      </trkpt>
      <trkpt lat="47.73729" lon="1.61168">
        <ele>81</ele>
        <time>2017-09-17T06:34:57.000Z</time>
      </trkpt>
      <trkpt lat="47.73724" lon="1.6116">
        <ele>81</ele>
        <time>2017-09-17T06:34:58.000Z</time>
      </trkpt>
      <trkpt lat="47.73696" lon="1.61103">
        <ele>81</ele>
        <time>2017-09-17T06:35:05.000Z</time>
      </trkpt>
      <trkpt lat="47.73692" lon="1.61095">
        <ele>81</ele>
        <time>2017-09-17T06:35:06.000Z</time>
      </trkpt>
      <trkpt lat="47.73668" lon="1.61037">
        <ele>81</ele>
        <time>2017-09-17T06:35:13.000Z</time>
      </trkpt>
      <trkpt lat="47.73664" lon="1.61029">
        <ele>81</ele>
        <time>2017-09-17T06:35:14.000Z</time>
      </trkpt>
      <trkpt lat="47.73658" lon="1.61012">
        <ele>81</ele>
        <time>2017-09-17T06:35:16.000Z</time>
      </trkpt>
      <trkpt lat="47.7364" lon="1.6095">
        <ele>79</ele>
        <time>2017-09-17T06:35:23.000Z</time>
      </trkpt>
      <trkpt lat="47.73638" lon="1.6094">
        <ele>79</ele>
        <time>2017-09-17T06:35:24.000Z</time>
      </trkpt>
      <trkpt lat="47.73631" lon="1.6089">
        <ele>78</ele>
        <time>2017-09-17T06:35:29.000Z</time>
      </trkpt>
      <trkpt lat="47.73627" lon="1.60829">
        <ele>77</ele>
        <time>2017-09-17T06:35:35.000Z</time>
      </trkpt>
      <trkpt lat="47.73624" lon="1.60819">
        <ele>77</ele>
        <time>2017-09-17T06:35:36.000Z</time>
      </trkpt>
      <trkpt lat="47.73613" lon="1.60795">
        <ele>77</ele>
        <time>2017-09-17T06:35:39.000Z</time>
      </trkpt>
      <trkpt lat="47.73604" lon="1.60778">
        <ele>76</ele>
        <time>2017-09-17T06:35:41.000Z</time>
      </trkpt>
      <trkpt lat="47.73576" lon="1.60751">
        <ele>77</ele>
        <time>2017-09-17T06:35:46.000Z</time>
      </trkpt>
      <trkpt lat="47.7353" lon="1.60718">
        <ele>77</ele>
        <time>2017-09-17T06:35:54.000Z</time>
      </trkpt>
      <trkpt lat="47.73524" lon="1.60714">
        <ele>78</ele>
        <time>2017-09-17T06:35:55.000Z</time>
      </trkpt>
      <trkpt lat="47.7349" lon="1.60682">
        <ele>79</ele>
        <time>2017-09-17T06:36:02.000Z</time>
      </trkpt>
      <trkpt lat="47.73485" lon="1.60676">
        <ele>80</ele>
        <time>2017-09-17T06:36:03.000Z</time>
      </trkpt>
      <trkpt lat="47.73457" lon="1.60633">
        <ele>79</ele>
        <time>2017-09-17T06:36:10.000Z</time>
      </trkpt>
      <trkpt lat="47.73454" lon="1.60625">
        <ele>79</ele>
        <time>2017-09-17T06:36:11.000Z</time>
      </trkpt>
      <trkpt lat="47.73436" lon="1.60559">
        <ele>77</ele>
        <time>2017-09-17T06:36:19.000Z</time>
      </trkpt>
      <trkpt lat="47.73433" lon="1.60551">
        <ele>77</ele>
        <time>2017-09-17T06:36:20.000Z</time>
      </trkpt>
      <trkpt lat="47.73429" lon="1.60533">
        <ele>76</ele>
        <time>2017-09-17T06:36:22.000Z</time>
      </trkpt>
      <trkpt lat="47.73424" lon="1.60495">
        <ele>76</ele>
        <time>2017-09-17T06:36:26.000Z</time>
      </trkpt>
      <trkpt lat="47.73419" lon="1.6042">
        <ele>74</ele>
        <time>2017-09-17T06:36:34.000Z</time>
      </trkpt>
      <trkpt lat="47.73418" lon="1.6041">
        <ele>74</ele>
        <time>2017-09-17T06:36:35.000Z</time>
      </trkpt>
      <trkpt lat="47.73411" lon="1.60375">
        <ele>73</ele>
        <time>2017-09-17T06:36:39.000Z</time>
      </trkpt>
      <trkpt lat="47.7339" lon="1.6031">
        <ele>73</ele>
        <time>2017-09-17T06:36:47.000Z</time>
      </trkpt>
      <trkpt lat="47.73387" lon="1.60302">
        <ele>74</ele>
        <time>2017-09-17T06:36:48.000Z</time>
      </trkpt>
      <trkpt lat="47.73369" lon="1.60255">
        <ele>75</ele>
        <time>2017-09-17T06:36:54.000Z</time>
      </trkpt>
      <trkpt lat="47.73342" lon="1.60194">
        <ele>76</ele>
        <time>2017-09-17T06:37:02.000Z</time>
      </trkpt>
      <trkpt lat="47.73339" lon="1.60185">
        <ele>76</ele>
        <time>2017-09-17T06:37:03.000Z</time>
      </trkpt>
      <trkpt lat="47.73322" lon="1.60122">
        <ele>76</ele>
        <time>2017-09-17T06:37:10.000Z</time>
      </trkpt>
      <trkpt lat="47.73318" lon="1.60114">
        <ele>76</ele>
        <time>2017-09-17T06:37:11.000Z</time>
      </trkpt>
      <trkpt lat="47.73298" lon="1.60078">
        <ele>77</ele>
        <time>2017-09-17T06:37:16.000Z</time>
      </trkpt>
      <trkpt lat="47.73264" lon="1.60026">
        <ele>77</ele>
        <time>2017-09-17T06:37:24.000Z</time>
      </trkpt>
      <trkpt lat="47.7326" lon="1.6002">
        <ele>76</ele>
        <time>2017-09-17T06:37:25.000Z</time>
      </trkpt>
      <trkpt lat="47.7324" lon="1.59985">
        <ele>75</ele>
        <time>2017-09-17T06:37:30.000Z</time>
      </trkpt>
      <trkpt lat="47.73227" lon="1.59941">
        <ele>75</ele>
        <time>2017-09-17T06:37:35.000Z</time>
      </trkpt>
      <trkpt lat="47.73214" lon="1.59872">
        <ele>72</ele>
        <time>2017-09-17T06:37:42.000Z</time>
      </trkpt>
      <trkpt lat="47.73211" lon="1.59862">
        <ele>71</ele>
        <time>2017-09-17T06:37:43.000Z</time>
      </trkpt>
      <trkpt lat="47.73191" lon="1.59799">
        <ele>68</ele>
        <time>2017-09-17T06:37:50.000Z</time>
      </trkpt>
      <trkpt lat="47.73188" lon="1.5979">
        <ele>68</ele>
        <time>2017-09-17T06:37:51.000Z</time>
      </trkpt>
      <trkpt lat="47.73171" lon="1.59727">
        <ele>67</ele>
        <time>2017-09-17T06:37:58.000Z</time>
      </trkpt>
      <trkpt lat="47.73168" lon="1.59718">
        <ele>67</ele>
        <time>2017-09-17T06:37:59.000Z</time>
      </trkpt>
      <trkpt lat="47.73151" lon="1.59655">
        <ele>68</ele>
        <time>2017-09-17T06:38:06.000Z</time>
      </trkpt>
      <trkpt lat="47.73149" lon="1.59646">
        <ele>69</ele>
        <time>2017-09-17T06:38:07.000Z</time>
      </trkpt>
      <trkpt lat="47.7313" lon="1.59588">
        <ele>70</ele>
        <time>2017-09-17T06:38:14.000Z</time>
      </trkpt>
      <trkpt lat="47.73128" lon="1.59579">
        <ele>70</ele>
        <time>2017-09-17T06:38:15.000Z</time>
      </trkpt>
      <trkpt lat="47.73108" lon="1.59512">
        <ele>72</ele>
        <time>2017-09-17T06:38:23.000Z</time>
      </trkpt>
      <trkpt lat="47.73106" lon="1.59504">
        <ele>73</ele>
        <time>2017-09-17T06:38:24.000Z</time>
      </trkpt>
      <trkpt lat="47.73087" lon="1.59433">
        <ele>75</ele>
        <time>2017-09-17T06:38:32.000Z</time>
      </trkpt>
      <trkpt lat="47.73085" lon="1.59424">
        <ele>75</ele>
        <time>2017-09-17T06:38:33.000Z</time>
      </trkpt>
      <trkpt lat="47.73067" lon="1.59362">
        <ele>76</ele>
        <time>2017-09-17T06:38:40.000Z</time>
      </trkpt>
      <trkpt lat="47.73065" lon="1.59353">
        <ele>76</ele>
        <time>2017-09-17T06:38:41.000Z</time>
      </trkpt>
      <trkpt lat="47.73047" lon="1.59284">
        <ele>77</ele>
        <time>2017-09-17T06:38:49.000Z</time>
      </trkpt>
      <trkpt lat="47.73045" lon="1.59275">
        <ele>77</ele>
        <time>2017-09-17T06:38:50.000Z</time>
      </trkpt>
      <trkpt lat="47.73026" lon="1.59209">
        <ele>76</ele>
        <time>2017-09-17T06:38:58.000Z</time>
      </trkpt>
      <trkpt lat="47.73024" lon="1.592">
        <ele>76</ele>
        <time>2017-09-17T06:38:59.000Z</time>
      </trkpt>
      <trkpt lat="47.73004" lon="1.59133">
        <ele>76</ele>
        <time>2017-09-17T06:39:07.000Z</time>
      </trkpt>
      <trkpt lat="47.73001" lon="1.59124">
        <ele>76</ele>
        <time>2017-09-17T06:39:08.000Z</time>
      </trkpt>
      <trkpt lat="47.72997" lon="1.59098">
        <ele>76</ele>
        <time>2017-09-17T06:39:11.000Z</time>
      </trkpt>
      <trkpt lat="47.72992" lon="1.59024">
        <ele>75</ele>
        <time>2017-09-17T06:39:19.000Z</time>
      </trkpt>
      <trkpt lat="47.72992" lon="1.59014">
        <ele>75</ele>
        <time>2017-09-17T06:39:20.000Z</time>
      </trkpt>
      <trkpt lat="47.72992" lon="1.58939">
        <ele>74</ele>
        <time>2017-09-17T06:39:28.000Z</time>
      </trkpt>
      <trkpt lat="47.72991" lon="1.5893">
        <ele>74</ele>
        <time>2017-09-17T06:39:29.000Z</time>
      </trkpt>
      <trkpt lat="47.7299" lon="1.5886">
        <ele>72</ele>
        <time>2017-09-17T06:39:37.000Z</time>
      </trkpt>
      <trkpt lat="47.72992" lon="1.58852">
        <ele>72</ele>
        <time>2017-09-17T06:39:38.000Z</time>
      </trkpt>
      <trkpt lat="47.72997" lon="1.58845">
        <ele>72</ele>
        <time>2017-09-17T06:39:39.000Z</time>
      </trkpt>
      <trkpt lat="47.73038" lon="1.588">
        <ele>71</ele>
        <time>2017-09-17T06:39:47.000Z</time>
      </trkpt>
      <trkpt lat="47.73044" lon="1.58794">
        <ele>71</ele>
        <time>2017-09-17T06:39:48.000Z</time>
      </trkpt>
      <trkpt lat="47.73087" lon="1.58751">
        <ele>71</ele>
        <time>2017-09-17T06:39:55.000Z</time>
      </trkpt>
      <trkpt lat="47.73093" lon="1.58746">
        <ele>72</ele>
        <time>2017-09-17T06:39:56.000Z</time>
      </trkpt>
      <trkpt lat="47.7312" lon="1.58711">
        <ele>73</ele>
        <time>2017-09-17T06:40:02.000Z</time>
      </trkpt>
      <trkpt lat="47.73125" lon="1.58685">
        <ele>73</ele>
        <time>2017-09-17T06:40:05.000Z</time>
      </trkpt>
      <trkpt lat="47.7313" lon="1.58647">
        <ele>74</ele>
        <time>2017-09-17T06:40:09.000Z</time>
      </trkpt>
      <trkpt lat="47.73142" lon="1.58624">
        <ele>76</ele>
        <time>2017-09-17T06:40:12.000Z</time>
      </trkpt>
      <trkpt lat="47.73164" lon="1.58591">
        <ele>78</ele>
        <time>2017-09-17T06:40:18.000Z</time>
      </trkpt>
      <trkpt lat="47.73166" lon="1.58575">
        <ele>77</ele>
        <time>2017-09-17T06:40:21.000Z</time>
      </trkpt>
      <trkpt lat="47.73166" lon="1.58566">
        <ele>76</ele>
        <time>2017-09-17T06:40:24.000Z</time>
      </trkpt>
      <trkpt lat="47.73161" lon="1.58569">
        <ele>78</ele>
        <time>2017-09-17T06:40:29.000Z</time>
      </trkpt>
      <trkpt lat="47.73141" lon="1.58545">
        <ele>78</ele>
        <time>2017-09-17T06:40:35.000Z</time>
      </trkpt>
      <trkpt lat="47.73113" lon="1.58491">
        <ele>77</ele>
        <time>2017-09-17T06:40:44.000Z</time>
      </trkpt>
      <trkpt lat="47.7311" lon="1.58485">
        <ele>77</ele>
        <time>2017-09-17T06:40:45.000Z</time>
      </trkpt>
      <trkpt lat="47.73083" lon="1.58427">
        <ele>76</ele>
        <time>2017-09-17T06:40:54.000Z</time>
      </trkpt>
      <trkpt lat="47.73081" lon="1.5842">
        <ele>75</ele>
        <time>2017-09-17T06:40:55.000Z</time>
      </trkpt>
      <trkpt lat="47.73072" lon="1.58399">
        <ele>73</ele>
        <time>2017-09-17T06:40:58.000Z</time>
      </trkpt>
      <trkpt lat="47.73047" lon="1.58341">
        <ele>71</ele>
        <time>2017-09-17T06:41:06.000Z</time>
      </trkpt>
      <trkpt lat="47.73044" lon="1.58334">
        <ele>71</ele>
        <time>2017-09-17T06:41:07.000Z</time>
      </trkpt>
      <trkpt lat="47.73026" lon="1.58293">
        <ele>70</ele>
        <time>2017-09-17T06:41:13.000Z</time>
      </trkpt>
      <trkpt lat="47.72989" lon="1.58254">
        <ele>74</ele>
        <time>2017-09-17T06:41:22.000Z</time>
      </trkpt>
      <trkpt lat="47.72986" lon="1.58249">
        <ele>75</ele>
        <time>2017-09-17T06:41:23.000Z</time>
      </trkpt>
      <trkpt lat="47.72979" lon="1.58244">
        <ele>76</ele>
        <time>2017-09-17T06:42:19.000Z</time>
      </trkpt>
      <trkpt lat="47.72952" lon="1.58187">
        <ele>78</ele>
        <time>2017-09-17T06:42:32.000Z</time>
      </trkpt>
      <trkpt lat="47.72949" lon="1.5818">
        <ele>78</ele>
        <time>2017-09-17T06:42:33.000Z</time>
      </trkpt>
      <trkpt lat="47.7292" lon="1.58119">
        <ele>79</ele>
        <time>2017-09-17T06:42:42.000Z</time>
      </trkpt>
      <trkpt lat="47.72917" lon="1.58112">
        <ele>79</ele>
        <time>2017-09-17T06:42:43.000Z</time>
      </trkpt>
      <trkpt lat="47.72888" lon="1.58051">
        <ele>79</ele>
        <time>2017-09-17T06:42:52.000Z</time>
      </trkpt>
      <trkpt lat="47.72884" lon="1.58043">
        <ele>79</ele>
        <time>2017-09-17T06:42:53.000Z</time>
      </trkpt>
      <trkpt lat="47.72853" lon="1.57983">
        <ele>78</ele>
        <time>2017-09-17T06:43:01.000Z</time>
      </trkpt>
      <trkpt lat="47.7285" lon="1.57975">
        <ele>78</ele>
        <time>2017-09-17T06:43:02.000Z</time>
      </trkpt>
      <trkpt lat="47.72822" lon="1.5792">
        <ele>78</ele>
        <time>2017-09-17T06:43:09.000Z</time>
      </trkpt>
      <trkpt lat="47.72818" lon="1.57913">
        <ele>78</ele>
        <time>2017-09-17T06:43:10.000Z</time>
      </trkpt>
      <trkpt lat="47.72786" lon="1.57861">
        <ele>77</ele>
        <time>2017-09-17T06:43:17.000Z</time>
      </trkpt>
      <trkpt lat="47.72782" lon="1.57853">
        <ele>77</ele>
        <time>2017-09-17T06:43:18.000Z</time>
      </trkpt>
      <trkpt lat="47.72747" lon="1.57796">
        <ele>76</ele>
        <time>2017-09-17T06:43:25.000Z</time>
      </trkpt>
      <trkpt lat="47.72742" lon="1.57788">
        <ele>76</ele>
        <time>2017-09-17T06:43:26.000Z</time>
      </trkpt>
      <trkpt lat="47.7271" lon="1.57728">
        <ele>77</ele>
        <time>2017-09-17T06:43:33.000Z</time>
      </trkpt>
      <trkpt lat="47.72706" lon="1.5772">
        <ele>77</ele>
        <time>2017-09-17T06:43:34.000Z</time>
      </trkpt>
      <trkpt lat="47.72676" lon="1.57661">
        <ele>78</ele>
        <time>2017-09-17T06:43:41.000Z</time>
      </trkpt>
      <trkpt lat="47.72672" lon="1.57653">
        <ele>79</ele>
        <time>2017-09-17T06:43:42.000Z</time>
      </trkpt>
      <trkpt lat="47.7264" lon="1.57601">
        <ele>80</ele>
        <time>2017-09-17T06:43:49.000Z</time>
      </trkpt>
      <trkpt lat="47.72635" lon="1.57594">
        <ele>80</ele>
        <time>2017-09-17T06:43:50.000Z</time>
      </trkpt>
      <trkpt lat="47.726" lon="1.57546">
        <ele>81</ele>
        <time>2017-09-17T06:43:57.000Z</time>
      </trkpt>
      <trkpt lat="47.72595" lon="1.5754">
        <ele>81</ele>
        <time>2017-09-17T06:43:58.000Z</time>
      </trkpt>
      <trkpt lat="47.72559" lon="1.57495">
        <ele>80</ele>
        <time>2017-09-17T06:44:05.000Z</time>
      </trkpt>
      <trkpt lat="47.72554" lon="1.5749">
        <ele>80</ele>
        <time>2017-09-17T06:44:06.000Z</time>
      </trkpt>
      <trkpt lat="47.72518" lon="1.57444">
        <ele>78</ele>
        <time>2017-09-17T06:44:14.000Z</time>
      </trkpt>
      <trkpt lat="47.72513" lon="1.57439">
        <ele>78</ele>
        <time>2017-09-17T06:44:15.000Z</time>
      </trkpt>
      <trkpt lat="47.72477" lon="1.57393">
        <ele>77</ele>
        <time>2017-09-17T06:44:23.000Z</time>
      </trkpt>
      <trkpt lat="47.72472" lon="1.57387">
        <ele>77</ele>
        <time>2017-09-17T06:44:24.000Z</time>
      </trkpt>
      <trkpt lat="47.72437" lon="1.57345">
        <ele>76</ele>
        <time>2017-09-17T06:44:32.000Z</time>
      </trkpt>
      <trkpt lat="47.72432" lon="1.57339">
        <ele>76</ele>
        <time>2017-09-17T06:44:33.000Z</time>
      </trkpt>
      <trkpt lat="47.72393" lon="1.57295">
        <ele>75</ele>
        <time>2017-09-17T06:44:41.000Z</time>
      </trkpt>
      <trkpt lat="47.72388" lon="1.5729">
        <ele>75</ele>
        <time>2017-09-17T06:44:42.000Z</time>
      </trkpt>
      <trkpt lat="47.7235" lon="1.57249">
        <ele>74</ele>
        <time>2017-09-17T06:44:50.000Z</time>
      </trkpt>
      <trkpt lat="47.72345" lon="1.57244">
        <ele>74</ele>
        <time>2017-09-17T06:44:51.000Z</time>
      </trkpt>
      <trkpt lat="47.72302" lon="1.57207">
        <ele>75</ele>
        <time>2017-09-17T06:45:00.000Z</time>
      </trkpt>
      <trkpt lat="47.72297" lon="1.57204">
        <ele>75</ele>
        <time>2017-09-17T06:45:01.000Z</time>
      </trkpt>
      <trkpt lat="47.72286" lon="1.57196">
        <ele>74</ele>
        <time>2017-09-17T06:45:03.000Z</time>
      </trkpt>
      <trkpt lat="47.72243" lon="1.57167">
        <ele>74</ele>
        <time>2017-09-17T06:45:11.000Z</time>
      </trkpt>
      <trkpt lat="47.72238" lon="1.57164">
        <ele>74</ele>
        <time>2017-09-17T06:45:12.000Z</time>
      </trkpt>
      <trkpt lat="47.72194" lon="1.57139">
        <ele>76</ele>
        <time>2017-09-17T06:45:20.000Z</time>
      </trkpt>
      <trkpt lat="47.72188" lon="1.57136">
        <ele>76</ele>
        <time>2017-09-17T06:45:21.000Z</time>
      </trkpt>
      <trkpt lat="47.72142" lon="1.57114">
        <ele>75</ele>
        <time>2017-09-17T06:45:30.000Z</time>
      </trkpt>
      <trkpt lat="47.72137" lon="1.57112">
        <ele>75</ele>
        <time>2017-09-17T06:45:31.000Z</time>
      </trkpt>
      <trkpt lat="47.72101" lon="1.57097">
        <ele>73</ele>
        <time>2017-09-17T06:45:38.000Z</time>
      </trkpt>
      <trkpt lat="47.72052" lon="1.57082">
        <ele>71</ele>
        <time>2017-09-17T06:45:47.000Z</time>
      </trkpt>
      <trkpt lat="47.72047" lon="1.5708">
        <ele>71</ele>
        <time>2017-09-17T06:45:48.000Z</time>
      </trkpt>
      <trkpt lat="47.71999" lon="1.57071">
        <ele>71</ele>
        <time>2017-09-17T06:45:57.000Z</time>
      </trkpt>
      <trkpt lat="47.71994" lon="1.57071">
        <ele>71</ele>
        <time>2017-09-17T06:45:58.000Z</time>
      </trkpt>
      <trkpt lat="47.71955" lon="1.57067">
        <ele>72</ele>
        <time>2017-09-17T06:46:05.000Z</time>
      </trkpt>
      <trkpt lat="47.71908" lon="1.57067">
        <ele>74</ele>
        <time>2017-09-17T06:46:14.000Z</time>
      </trkpt>
      <trkpt lat="47.71902" lon="1.57067">
        <ele>74</ele>
        <time>2017-09-17T06:46:15.000Z</time>
      </trkpt>
      <trkpt lat="47.71871" lon="1.57073">
        <ele>75</ele>
        <time>2017-09-17T06:46:21.000Z</time>
      </trkpt>
      <trkpt lat="47.71826" lon="1.57094">
        <ele>76</ele>
        <time>2017-09-17T06:46:29.000Z</time>
      </trkpt>
      <trkpt lat="47.7182" lon="1.57097">
        <ele>76</ele>
        <time>2017-09-17T06:46:30.000Z</time>
      </trkpt>
      <trkpt lat="47.71776" lon="1.57119">
        <ele>77</ele>
        <time>2017-09-17T06:46:38.000Z</time>
      </trkpt>
      <trkpt lat="47.71771" lon="1.57121">
        <ele>77</ele>
        <time>2017-09-17T06:46:39.000Z</time>
      </trkpt>
      <trkpt lat="47.71724" lon="1.57146">
        <ele>78</ele>
        <time>2017-09-17T06:46:48.000Z</time>
      </trkpt>
      <trkpt lat="47.71719" lon="1.5715">
        <ele>78</ele>
        <time>2017-09-17T06:46:49.000Z</time>
      </trkpt>
      <trkpt lat="47.71674" lon="1.57176">
        <ele>78</ele>
        <time>2017-09-17T06:46:57.000Z</time>
      </trkpt>
      <trkpt lat="47.71669" lon="1.57179">
        <ele>78</ele>
        <time>2017-09-17T06:46:58.000Z</time>
      </trkpt>
      <trkpt lat="47.71622" lon="1.57205">
        <ele>80</ele>
        <time>2017-09-17T06:47:07.000Z</time>
      </trkpt>
      <trkpt lat="47.71618" lon="1.57208">
        <ele>80</ele>
        <time>2017-09-17T06:47:08.000Z</time>
      </trkpt>
      <trkpt lat="47.71602" lon="1.57217">
        <ele>80</ele>
        <time>2017-09-17T06:47:11.000Z</time>
      </trkpt>
      <trkpt lat="47.71556" lon="1.57246">
        <ele>80</ele>
        <time>2017-09-17T06:47:20.000Z</time>
      </trkpt>
      <trkpt lat="47.71551" lon="1.57249">
        <ele>80</ele>
        <time>2017-09-17T06:47:21.000Z</time>
      </trkpt>
      <trkpt lat="47.71504" lon="1.57276">
        <ele>81</ele>
        <time>2017-09-17T06:47:30.000Z</time>
      </trkpt>
      <trkpt lat="47.71499" lon="1.57279">
        <ele>81</ele>
        <time>2017-09-17T06:47:31.000Z</time>
      </trkpt>
      <trkpt lat="47.71453" lon="1.57311">
        <ele>81</ele>
        <time>2017-09-17T06:47:40.000Z</time>
      </trkpt>
      <trkpt lat="47.71449" lon="1.57315">
        <ele>81</ele>
        <time>2017-09-17T06:47:41.000Z</time>
      </trkpt>
      <trkpt lat="47.71404" lon="1.57349">
        <ele>81</ele>
        <time>2017-09-17T06:47:50.000Z</time>
      </trkpt>
      <trkpt lat="47.71399" lon="1.57352">
        <ele>81</ele>
        <time>2017-09-17T06:47:51.000Z</time>
      </trkpt>
      <trkpt lat="47.71355" lon="1.57375">
        <ele>81</ele>
        <time>2017-09-17T06:48:00.000Z</time>
      </trkpt>
      <trkpt lat="47.7135" lon="1.57377">
        <ele>81</ele>
        <time>2017-09-17T06:48:01.000Z</time>
      </trkpt>
      <trkpt lat="47.71317" lon="1.57392">
        <ele>82</ele>
        <time>2017-09-17T06:48:08.000Z</time>
      </trkpt>
      <trkpt lat="47.71297" lon="1.5739">
        <ele>82</ele>
        <time>2017-09-17T06:48:12.000Z</time>
      </trkpt>
      <trkpt lat="47.71246" lon="1.57399">
        <ele>81</ele>
        <time>2017-09-17T06:48:21.000Z</time>
      </trkpt>
      <trkpt lat="47.71241" lon="1.574">
        <ele>81</ele>
        <time>2017-09-17T06:48:22.000Z</time>
      </trkpt>
      <trkpt lat="47.71232" lon="1.57394">
        <ele>81</ele>
        <time>2017-09-17T06:48:24.000Z</time>
      </trkpt>
      <trkpt lat="47.7123" lon="1.5738">
        <ele>81</ele>
        <time>2017-09-17T06:48:26.000Z</time>
      </trkpt>
      <trkpt lat="47.71238" lon="1.57361">
        <ele>82</ele>
        <time>2017-09-17T06:48:29.000Z</time>
      </trkpt>
      <trkpt lat="47.71246" lon="1.57355">
        <ele>82</ele>
        <time>2017-09-17T06:48:31.000Z</time>
      </trkpt>
      <trkpt lat="47.71259" lon="1.57355">
        <ele>83</ele>
        <time>2017-09-17T06:48:34.000Z</time>
      </trkpt>
      <trkpt lat="47.71267" lon="1.57359">
        <ele>84</ele>
        <time>2017-09-17T06:48:36.000Z</time>
      </trkpt>
      <trkpt lat="47.71274" lon="1.57359">
        <ele>85</ele>
        <time>2017-09-17T06:48:38.000Z</time>
      </trkpt>
      <trkpt lat="47.71276" lon="1.57349">
        <ele>86</ele>
        <time>2017-09-17T06:48:40.000Z</time>
      </trkpt>
      <trkpt lat="47.71276" lon="1.57335">
        <ele>85</ele>
        <time>2017-09-17T06:48:42.000Z</time>
      </trkpt>
      <trkpt lat="47.71255" lon="1.57273">
        <ele>85</ele>
        <time>2017-09-17T06:48:50.000Z</time>
      </trkpt>
      <trkpt lat="47.71251" lon="1.57265">
        <ele>84</ele>
        <time>2017-09-17T06:48:51.000Z</time>
      </trkpt>
      <trkpt lat="47.7123" lon="1.57232">
        <ele>84</ele>
        <time>2017-09-17T06:48:56.000Z</time>
      </trkpt>
      <trkpt lat="47.71209" lon="1.57211">
        <ele>83</ele>
        <time>2017-09-17T06:49:00.000Z</time>
      </trkpt>
      <trkpt lat="47.71186" lon="1.57199">
        <ele>84</ele>
        <time>2017-09-17T06:49:04.000Z</time>
      </trkpt>
      <trkpt lat="47.71155" lon="1.57197">
        <ele>83</ele>
        <time>2017-09-17T06:49:09.000Z</time>
      </trkpt>
      <trkpt lat="47.71118" lon="1.57211">
        <ele>83</ele>
        <time>2017-09-17T06:49:15.000Z</time>
      </trkpt>
      <trkpt lat="47.71073" lon="1.57245">
        <ele>83</ele>
        <time>2017-09-17T06:49:23.000Z</time>
      </trkpt>
      <trkpt lat="47.71067" lon="1.57248">
        <ele>83</ele>
        <time>2017-09-17T06:49:24.000Z</time>
      </trkpt>
      <trkpt lat="47.71055" lon="1.57252">
        <ele>83</ele>
        <time>2017-09-17T06:49:26.000Z</time>
      </trkpt>
      <trkpt lat="47.71004" lon="1.57244">
        <ele>83</ele>
        <time>2017-09-17T06:49:34.000Z</time>
      </trkpt>
      <trkpt lat="47.70998" lon="1.57244">
        <ele>83</ele>
        <time>2017-09-17T06:49:35.000Z</time>
      </trkpt>
      <trkpt lat="47.7095" lon="1.57235">
        <ele>83</ele>
        <time>2017-09-17T06:49:43.000Z</time>
      </trkpt>
      <trkpt lat="47.70943" lon="1.57234">
        <ele>83</ele>
        <time>2017-09-17T06:49:44.000Z</time>
      </trkpt>
      <trkpt lat="47.70898" lon="1.57227">
        <ele>83</ele>
        <time>2017-09-17T06:49:51.000Z</time>
      </trkpt>
      <trkpt lat="47.70892" lon="1.57226">
        <ele>83</ele>
        <time>2017-09-17T06:49:52.000Z</time>
      </trkpt>
      <trkpt lat="47.70844" lon="1.57217">
        <ele>84</ele>
        <time>2017-09-17T06:50:00.000Z</time>
      </trkpt>
      <trkpt lat="47.70839" lon="1.57216">
        <ele>84</ele>
        <time>2017-09-17T06:50:01.000Z</time>
      </trkpt>
      <trkpt lat="47.7079" lon="1.5721">
        <ele>83</ele>
        <time>2017-09-17T06:50:09.000Z</time>
      </trkpt>
      <trkpt lat="47.70783" lon="1.57211">
        <ele>82</ele>
        <time>2017-09-17T06:50:10.000Z</time>
      </trkpt>
      <trkpt lat="47.70737" lon="1.57214">
        <ele>82</ele>
        <time>2017-09-17T06:50:17.000Z</time>
      </trkpt>
      <trkpt lat="47.70731" lon="1.57213">
        <ele>82</ele>
        <time>2017-09-17T06:50:18.000Z</time>
      </trkpt>
      <trkpt lat="47.70718" lon="1.57208">
        <ele>82</ele>
        <time>2017-09-17T06:50:20.000Z</time>
      </trkpt>
      <trkpt lat="47.70672" lon="1.57186">
        <ele>83</ele>
        <time>2017-09-17T06:50:27.000Z</time>
      </trkpt>
      <trkpt lat="47.70665" lon="1.57183">
        <ele>83</ele>
        <time>2017-09-17T06:50:28.000Z</time>
      </trkpt>
      <trkpt lat="47.7062" lon="1.5716">
        <ele>83</ele>
        <time>2017-09-17T06:50:35.000Z</time>
      </trkpt>
      <trkpt lat="47.70613" lon="1.57157">
        <ele>83</ele>
        <time>2017-09-17T06:50:36.000Z</time>
      </trkpt>
      <trkpt lat="47.70568" lon="1.57135">
        <ele>83</ele>
        <time>2017-09-17T06:50:43.000Z</time>
      </trkpt>
      <trkpt lat="47.70562" lon="1.57132">
        <ele>84</ele>
        <time>2017-09-17T06:50:44.000Z</time>
      </trkpt>
      <trkpt lat="47.70519" lon="1.5711">
        <ele>83</ele>
        <time>2017-09-17T06:50:51.000Z</time>
      </trkpt>
      <trkpt lat="47.70513" lon="1.57107">
        <ele>83</ele>
        <time>2017-09-17T06:50:52.000Z</time>
      </trkpt>
      <trkpt lat="47.70465" lon="1.57083">
        <ele>83</ele>
        <time>2017-09-17T06:51:00.000Z</time>
      </trkpt>
      <trkpt lat="47.70459" lon="1.5708">
        <ele>83</ele>
        <time>2017-09-17T06:51:01.000Z</time>
      </trkpt>
      <trkpt lat="47.70411" lon="1.57054">
        <ele>83</ele>
        <time>2017-09-17T06:51:09.000Z</time>
      </trkpt>
      <trkpt lat="47.70406" lon="1.57052">
        <ele>83</ele>
        <time>2017-09-17T06:51:10.000Z</time>
      </trkpt>
      <trkpt lat="47.7036" lon="1.57029">
        <ele>85</ele>
        <time>2017-09-17T06:51:18.000Z</time>
      </trkpt>
      <trkpt lat="47.70354" lon="1.57026">
        <ele>85</ele>
        <time>2017-09-17T06:51:19.000Z</time>
      </trkpt>
      <trkpt lat="47.70308" lon="1.57">
        <ele>86</ele>
        <time>2017-09-17T06:51:27.000Z</time>
      </trkpt>
      <trkpt lat="47.70302" lon="1.56996">
        <ele>85</ele>
        <time>2017-09-17T06:51:28.000Z</time>
      </trkpt>
      <trkpt lat="47.70253" lon="1.56969">
        <ele>83</ele>
        <time>2017-09-17T06:51:35.000Z</time>
      </trkpt>
      <trkpt lat="47.70247" lon="1.56965">
        <ele>83</ele>
        <time>2017-09-17T06:51:36.000Z</time>
      </trkpt>
      <trkpt lat="47.70203" lon="1.5694">
        <ele>83</ele>
        <time>2017-09-17T06:51:43.000Z</time>
      </trkpt>
      <trkpt lat="47.70196" lon="1.56936">
        <ele>83</ele>
        <time>2017-09-17T06:51:44.000Z</time>
      </trkpt>
      <trkpt lat="47.70149" lon="1.56909">
        <ele>83</ele>
        <time>2017-09-17T06:51:52.000Z</time>
      </trkpt>
      <trkpt lat="47.70143" lon="1.56905">
        <ele>83</ele>
        <time>2017-09-17T06:51:53.000Z</time>
      </trkpt>
      <trkpt lat="47.70103" lon="1.56878">
        <ele>82</ele>
        <time>2017-09-17T06:52:00.000Z</time>
      </trkpt>
      <trkpt lat="47.70098" lon="1.56872">
        <ele>82</ele>
        <time>2017-09-17T06:52:01.000Z</time>
      </trkpt>
      <trkpt lat="47.70073" lon="1.56841">
        <ele>81</ele>
        <time>2017-09-17T06:52:06.000Z</time>
      </trkpt>
      <trkpt lat="47.70037" lon="1.56788">
        <ele>81</ele>
        <time>2017-09-17T06:52:14.000Z</time>
      </trkpt>
      <trkpt lat="47.70033" lon="1.56781">
        <ele>81</ele>
        <time>2017-09-17T06:52:15.000Z</time>
      </trkpt>
      <trkpt lat="47.69997" lon="1.56729">
        <ele>80</ele>
        <time>2017-09-17T06:52:23.000Z</time>
      </trkpt>
      <trkpt lat="47.69992" lon="1.56722">
        <ele>80</ele>
        <time>2017-09-17T06:52:24.000Z</time>
      </trkpt>
      <trkpt lat="47.69955" lon="1.56669">
        <ele>80</ele>
        <time>2017-09-17T06:52:32.000Z</time>
      </trkpt>
      <trkpt lat="47.69951" lon="1.56662">
        <ele>80</ele>
        <time>2017-09-17T06:52:33.000Z</time>
      </trkpt>
      <trkpt lat="47.69916" lon="1.56611">
        <ele>80</ele>
        <time>2017-09-17T06:52:41.000Z</time>
      </trkpt>
      <trkpt lat="47.69912" lon="1.56604">
        <ele>80</ele>
        <time>2017-09-17T06:52:42.000Z</time>
      </trkpt>
      <trkpt lat="47.6988" lon="1.56545">
        <ele>81</ele>
        <time>2017-09-17T06:52:50.000Z</time>
      </trkpt>
      <trkpt lat="47.69876" lon="1.56537">
        <ele>81</ele>
        <time>2017-09-17T06:52:51.000Z</time>
      </trkpt>
      <trkpt lat="47.69847" lon="1.56481">
        <ele>82</ele>
        <time>2017-09-17T06:52:59.000Z</time>
      </trkpt>
      <trkpt lat="47.69844" lon="1.56473">
        <ele>82</ele>
        <time>2017-09-17T06:53:00.000Z</time>
      </trkpt>
      <trkpt lat="47.69816" lon="1.56412">
        <ele>81</ele>
        <time>2017-09-17T06:53:08.000Z</time>
      </trkpt>
      <trkpt lat="47.69812" lon="1.56405">
        <ele>81</ele>
        <time>2017-09-17T06:53:09.000Z</time>
      </trkpt>
      <trkpt lat="47.69784" lon="1.56345">
        <ele>81</ele>
        <time>2017-09-17T06:53:17.000Z</time>
      </trkpt>
      <trkpt lat="47.69781" lon="1.56337">
        <ele>81</ele>
        <time>2017-09-17T06:53:18.000Z</time>
      </trkpt>
      <trkpt lat="47.69753" lon="1.56277">
        <ele>81</ele>
        <time>2017-09-17T06:53:26.000Z</time>
      </trkpt>
      <trkpt lat="47.69749" lon="1.5627">
        <ele>81</ele>
        <time>2017-09-17T06:53:27.000Z</time>
      </trkpt>
      <trkpt lat="47.69715" lon="1.56214">
        <ele>81</ele>
        <time>2017-09-17T06:53:35.000Z</time>
      </trkpt>
      <trkpt lat="47.6971" lon="1.56208">
        <ele>81</ele>
        <time>2017-09-17T06:53:36.000Z</time>
      </trkpt>
      <trkpt lat="47.69668" lon="1.5617">
        <ele>81</ele>
        <time>2017-09-17T06:53:44.000Z</time>
      </trkpt>
      <trkpt lat="47.69663" lon="1.56166">
        <ele>81</ele>
        <time>2017-09-17T06:53:45.000Z</time>
      </trkpt>
      <trkpt lat="47.69625" lon="1.56123">
        <ele>81</ele>
        <time>2017-09-17T06:53:53.000Z</time>
      </trkpt>
      <trkpt lat="47.69621" lon="1.56116">
        <ele>81</ele>
        <time>2017-09-17T06:53:54.000Z</time>
      </trkpt>
      <trkpt lat="47.696" lon="1.56083">
        <ele>81</ele>
        <time>2017-09-17T06:53:59.000Z</time>
      </trkpt>
      <trkpt lat="47.6957" lon="1.56027">
        <ele>81</ele>
        <time>2017-09-17T06:54:07.000Z</time>
      </trkpt>
      <trkpt lat="47.69566" lon="1.5602">
        <ele>81</ele>
        <time>2017-09-17T06:54:08.000Z</time>
      </trkpt>
      <trkpt lat="47.69537" lon="1.55963">
        <ele>80</ele>
        <time>2017-09-17T06:54:16.000Z</time>
      </trkpt>
      <trkpt lat="47.69533" lon="1.55956">
        <ele>80</ele>
        <time>2017-09-17T06:54:17.000Z</time>
      </trkpt>
      <trkpt lat="47.69516" lon="1.55917">
        <ele>80</ele>
        <time>2017-09-17T06:54:22.000Z</time>
      </trkpt>
      <trkpt lat="47.6949" lon="1.55852">
        <ele>81</ele>
        <time>2017-09-17T06:54:30.000Z</time>
      </trkpt>
      <trkpt lat="47.69487" lon="1.55844">
        <ele>81</ele>
        <time>2017-09-17T06:54:31.000Z</time>
      </trkpt>
      <trkpt lat="47.6946" lon="1.55781">
        <ele>81</ele>
        <time>2017-09-17T06:54:39.000Z</time>
      </trkpt>
      <trkpt lat="47.69456" lon="1.55773">
        <ele>81</ele>
        <time>2017-09-17T06:54:40.000Z</time>
      </trkpt>
      <trkpt lat="47.69429" lon="1.55709">
        <ele>81</ele>
        <time>2017-09-17T06:54:48.000Z</time>
      </trkpt>
      <trkpt lat="47.69425" lon="1.55701">
        <ele>81</ele>
        <time>2017-09-17T06:54:49.000Z</time>
      </trkpt>
      <trkpt lat="47.69398" lon="1.5564">
        <ele>81</ele>
        <time>2017-09-17T06:54:57.000Z</time>
      </trkpt>
      <trkpt lat="47.69395" lon="1.55632">
        <ele>81</ele>
        <time>2017-09-17T06:54:58.000Z</time>
      </trkpt>
      <trkpt lat="47.69368" lon="1.5557">
        <ele>81</ele>
        <time>2017-09-17T06:55:06.000Z</time>
      </trkpt>
      <trkpt lat="47.69364" lon="1.55563">
        <ele>81</ele>
        <time>2017-09-17T06:55:07.000Z</time>
      </trkpt>
      <trkpt lat="47.69337" lon="1.55504">
        <ele>81</ele>
        <time>2017-09-17T06:55:15.000Z</time>
      </trkpt>
      <trkpt lat="47.69334" lon="1.55496">
        <ele>81</ele>
        <time>2017-09-17T06:55:16.000Z</time>
      </trkpt>
      <trkpt lat="47.69306" lon="1.55438">
        <ele>81</ele>
        <time>2017-09-17T06:55:24.000Z</time>
      </trkpt>
      <trkpt lat="47.69302" lon="1.55431">
        <ele>80</ele>
        <time>2017-09-17T06:55:25.000Z</time>
      </trkpt>
      <trkpt lat="47.69271" lon="1.55375">
        <ele>80</ele>
        <time>2017-09-17T06:55:33.000Z</time>
      </trkpt>
      <trkpt lat="47.69267" lon="1.55367">
        <ele>80</ele>
        <time>2017-09-17T06:55:34.000Z</time>
      </trkpt>
      <trkpt lat="47.69256" lon="1.55333">
        <ele>79</ele>
        <time>2017-09-17T06:55:38.000Z</time>
      </trkpt>
      <trkpt lat="47.69249" lon="1.55286">
        <ele>79</ele>
        <time>2017-09-17T06:55:43.000Z</time>
      </trkpt>
      <trkpt lat="47.69249" lon="1.55238">
        <ele>78</ele>
        <time>2017-09-17T06:55:48.000Z</time>
      </trkpt>
      <trkpt lat="47.69258" lon="1.55166">
        <ele>77</ele>
        <time>2017-09-17T06:55:56.000Z</time>
      </trkpt>
      <trkpt lat="47.69259" lon="1.55157">
        <ele>77</ele>
        <time>2017-09-17T06:55:57.000Z</time>
      </trkpt>
      <trkpt lat="47.69268" lon="1.55086">
        <ele>77</ele>
        <time>2017-09-17T06:56:05.000Z</time>
      </trkpt>
      <trkpt lat="47.69269" lon="1.55078">
        <ele>76</ele>
        <time>2017-09-17T06:56:06.000Z</time>
      </trkpt>
      <trkpt lat="47.69278" lon="1.55003">
        <ele>76</ele>
        <time>2017-09-17T06:56:14.000Z</time>
      </trkpt>
      <trkpt lat="47.69279" lon="1.54994">
        <ele>76</ele>
        <time>2017-09-17T06:56:15.000Z</time>
      </trkpt>
      <trkpt lat="47.69289" lon="1.54921">
        <ele>77</ele>
        <time>2017-09-17T06:56:23.000Z</time>
      </trkpt>
      <trkpt lat="47.69289" lon="1.54912">
        <ele>77</ele>
        <time>2017-09-17T06:56:24.000Z</time>
      </trkpt>
      <trkpt lat="47.6929" lon="1.54864">
        <ele>77</ele>
        <time>2017-09-17T06:56:29.000Z</time>
      </trkpt>
      <trkpt lat="47.69283" lon="1.548">
        <ele>76</ele>
        <time>2017-09-17T06:56:36.000Z</time>
      </trkpt>
      <trkpt lat="47.69281" lon="1.54791">
        <ele>76</ele>
        <time>2017-09-17T06:56:37.000Z</time>
      </trkpt>
      <trkpt lat="47.69264" lon="1.54724">
        <ele>77</ele>
        <time>2017-09-17T06:56:45.000Z</time>
      </trkpt>
      <trkpt lat="47.69261" lon="1.54716">
        <ele>77</ele>
        <time>2017-09-17T06:56:46.000Z</time>
      </trkpt>
      <trkpt lat="47.69253" lon="1.54692">
        <ele>77</ele>
        <time>2017-09-17T06:56:49.000Z</time>
      </trkpt>
      <trkpt lat="47.69228" lon="1.54632">
        <ele>76</ele>
        <time>2017-09-17T06:56:57.000Z</time>
      </trkpt>
      <trkpt lat="47.69225" lon="1.54625">
        <ele>76</ele>
        <time>2017-09-17T06:56:58.000Z</time>
      </trkpt>
      <trkpt lat="47.69218" lon="1.54611">
        <ele>76</ele>
        <time>2017-09-17T06:57:00.000Z</time>
      </trkpt>
      <trkpt lat="47.69191" lon="1.54555">
        <ele>77</ele>
        <time>2017-09-17T06:57:08.000Z</time>
      </trkpt>
      <trkpt lat="47.69187" lon="1.54548">
        <ele>76</ele>
        <time>2017-09-17T06:57:09.000Z</time>
      </trkpt>
      <trkpt lat="47.69159" lon="1.54491">
        <ele>78</ele>
        <time>2017-09-17T06:57:17.000Z</time>
      </trkpt>
      <trkpt lat="47.69156" lon="1.54484">
        <ele>78</ele>
        <time>2017-09-17T06:57:18.000Z</time>
      </trkpt>
      <trkpt lat="47.69127" lon="1.54425">
        <ele>79</ele>
        <time>2017-09-17T06:57:26.000Z</time>
      </trkpt>
      <trkpt lat="47.69122" lon="1.54418">
        <ele>79</ele>
        <time>2017-09-17T06:57:27.000Z</time>
      </trkpt>
      <trkpt lat="47.69096" lon="1.54363">
        <ele>80</ele>
        <time>2017-09-17T06:57:34.000Z</time>
      </trkpt>
      <trkpt lat="47.69091" lon="1.54355">
        <ele>80</ele>
        <time>2017-09-17T06:57:35.000Z</time>
      </trkpt>
      <trkpt lat="47.69063" lon="1.54299">
        <ele>80</ele>
        <time>2017-09-17T06:57:42.000Z</time>
      </trkpt>
      <trkpt lat="47.69059" lon="1.54292">
        <ele>80</ele>
        <time>2017-09-17T06:57:43.000Z</time>
      </trkpt>
      <trkpt lat="47.69025" lon="1.54234">
        <ele>80</ele>
        <time>2017-09-17T06:57:51.000Z</time>
      </trkpt>
      <trkpt lat="47.69021" lon="1.54227">
        <ele>80</ele>
        <time>2017-09-17T06:57:52.000Z</time>
      </trkpt>
      <trkpt lat="47.68986" lon="1.54173">
        <ele>80</ele>
        <time>2017-09-17T06:58:00.000Z</time>
      </trkpt>
      <trkpt lat="47.68981" lon="1.54167">
        <ele>80</ele>
        <time>2017-09-17T06:58:01.000Z</time>
      </trkpt>
      <trkpt lat="47.68945" lon="1.54115">
        <ele>81</ele>
        <time>2017-09-17T06:58:09.000Z</time>
      </trkpt>
      <trkpt lat="47.6894" lon="1.54109">
        <ele>80</ele>
        <time>2017-09-17T06:58:10.000Z</time>
      </trkpt>
      <trkpt lat="47.68902" lon="1.54059">
        <ele>79</ele>
        <time>2017-09-17T06:58:18.000Z</time>
      </trkpt>
      <trkpt lat="47.68897" lon="1.54054">
        <ele>79</ele>
        <time>2017-09-17T06:58:19.000Z</time>
      </trkpt>
      <trkpt lat="47.68857" lon="1.54011">
        <ele>78</ele>
        <time>2017-09-17T06:58:27.000Z</time>
      </trkpt>
      <trkpt lat="47.68852" lon="1.54006">
        <ele>78</ele>
        <time>2017-09-17T06:58:28.000Z</time>
      </trkpt>
      <trkpt lat="47.68847" lon="1.54002">
        <ele>78</ele>
        <time>2017-09-17T06:58:29.000Z</time>
      </trkpt>
      <trkpt lat="47.68806" lon="1.5397">
        <ele>79</ele>
        <time>2017-09-17T06:58:37.000Z</time>
      </trkpt>
      <trkpt lat="47.688" lon="1.53966">
        <ele>79</ele>
        <time>2017-09-17T06:58:38.000Z</time>
      </trkpt>
      <trkpt lat="47.68757" lon="1.53932">
        <ele>79</ele>
        <time>2017-09-17T06:58:46.000Z</time>
      </trkpt>
      <trkpt lat="47.68751" lon="1.53928">
        <ele>79</ele>
        <time>2017-09-17T06:58:47.000Z</time>
      </trkpt>
      <trkpt lat="47.68708" lon="1.53896">
        <ele>80</ele>
        <time>2017-09-17T06:58:55.000Z</time>
      </trkpt>
      <trkpt lat="47.68703" lon="1.53892">
        <ele>80</ele>
        <time>2017-09-17T06:58:56.000Z</time>
      </trkpt>
      <trkpt lat="47.68661" lon="1.5386">
        <ele>80</ele>
        <time>2017-09-17T06:59:04.000Z</time>
      </trkpt>
      <trkpt lat="47.68655" lon="1.53856">
        <ele>80</ele>
        <time>2017-09-17T06:59:05.000Z</time>
      </trkpt>
      <trkpt lat="47.68613" lon="1.53824">
        <ele>80</ele>
        <time>2017-09-17T06:59:13.000Z</time>
      </trkpt>
      <trkpt lat="47.68607" lon="1.5382">
        <ele>80</ele>
        <time>2017-09-17T06:59:14.000Z</time>
      </trkpt>
      <trkpt lat="47.68566" lon="1.53788">
        <ele>80</ele>
        <time>2017-09-17T06:59:22.000Z</time>
      </trkpt>
      <trkpt lat="47.68561" lon="1.53785">
        <ele>80</ele>
        <time>2017-09-17T06:59:23.000Z</time>
      </trkpt>
      <trkpt lat="47.68519" lon="1.53754">
        <ele>80</ele>
        <time>2017-09-17T06:59:31.000Z</time>
      </trkpt>
      <trkpt lat="47.68514" lon="1.5375">
        <ele>80</ele>
        <time>2017-09-17T06:59:32.000Z</time>
      </trkpt>
      <trkpt lat="47.68472" lon="1.53718">
        <ele>80</ele>
        <time>2017-09-17T06:59:40.000Z</time>
      </trkpt>
      <trkpt lat="47.68467" lon="1.53714">
        <ele>80</ele>
        <time>2017-09-17T06:59:41.000Z</time>
      </trkpt>
      <trkpt lat="47.68424" lon="1.53682">
        <ele>81</ele>
        <time>2017-09-17T06:59:49.000Z</time>
      </trkpt>
      <trkpt lat="47.68419" lon="1.53678">
        <ele>81</ele>
        <time>2017-09-17T06:59:50.000Z</time>
      </trkpt>
      <trkpt lat="47.68385" lon="1.53643">
        <ele>80</ele>
        <time>2017-09-17T06:59:57.000Z</time>
      </trkpt>
      <trkpt lat="47.68381" lon="1.53637">
        <ele>80</ele>
        <time>2017-09-17T06:59:58.000Z</time>
      </trkpt>
      <trkpt lat="47.68351" lon="1.53582">
        <ele>79</ele>
        <time>2017-09-17T07:00:06.000Z</time>
      </trkpt>
      <trkpt lat="47.68348" lon="1.53575">
        <ele>79</ele>
        <time>2017-09-17T07:00:07.000Z</time>
      </trkpt>
      <trkpt lat="47.68318" lon="1.53519">
        <ele>79</ele>
        <time>2017-09-17T07:00:15.000Z</time>
      </trkpt>
      <trkpt lat="47.68315" lon="1.53512">
        <ele>79</ele>
        <time>2017-09-17T07:00:16.000Z</time>
      </trkpt>
      <trkpt lat="47.68286" lon="1.53457">
        <ele>79</ele>
        <time>2017-09-17T07:00:24.000Z</time>
      </trkpt>
      <trkpt lat="47.68282" lon="1.5345">
        <ele>78</ele>
        <time>2017-09-17T07:00:25.000Z</time>
      </trkpt>
      <trkpt lat="47.68252" lon="1.53393">
        <ele>78</ele>
        <time>2017-09-17T07:00:33.000Z</time>
      </trkpt>
      <trkpt lat="47.68248" lon="1.53385">
        <ele>78</ele>
        <time>2017-09-17T07:00:34.000Z</time>
      </trkpt>
      <trkpt lat="47.68245" lon="1.53378">
        <ele>78</ele>
        <time>2017-09-17T07:00:35.000Z</time>
      </trkpt>
      <trkpt lat="47.68219" lon="1.53317">
        <ele>78</ele>
        <time>2017-09-17T07:00:43.000Z</time>
      </trkpt>
      <trkpt lat="47.68216" lon="1.53309">
        <ele>78</ele>
        <time>2017-09-17T07:00:44.000Z</time>
      </trkpt>
      <trkpt lat="47.6819" lon="1.53244">
        <ele>79</ele>
        <time>2017-09-17T07:00:52.000Z</time>
      </trkpt>
      <trkpt lat="47.68187" lon="1.53236">
        <ele>79</ele>
        <time>2017-09-17T07:00:53.000Z</time>
      </trkpt>
      <trkpt lat="47.68161" lon="1.53173">
        <ele>79</ele>
        <time>2017-09-17T07:01:01.000Z</time>
      </trkpt>
      <trkpt lat="47.68158" lon="1.53165">
        <ele>79</ele>
        <time>2017-09-17T07:01:02.000Z</time>
      </trkpt>
      <trkpt lat="47.68132" lon="1.53101">
        <ele>79</ele>
        <time>2017-09-17T07:01:10.000Z</time>
      </trkpt>
      <trkpt lat="47.68129" lon="1.53093">
        <ele>79</ele>
        <time>2017-09-17T07:01:11.000Z</time>
      </trkpt>
      <trkpt lat="47.68103" lon="1.53029">
        <ele>79</ele>
        <time>2017-09-17T07:01:19.000Z</time>
      </trkpt>
      <trkpt lat="47.68099" lon="1.5302">
        <ele>79</ele>
        <time>2017-09-17T07:01:20.000Z</time>
      </trkpt>
      <trkpt lat="47.68073" lon="1.52955">
        <ele>79</ele>
        <time>2017-09-17T07:01:28.000Z</time>
      </trkpt>
      <trkpt lat="47.6807" lon="1.52947">
        <ele>79</ele>
        <time>2017-09-17T07:01:29.000Z</time>
      </trkpt>
      <trkpt lat="47.68045" lon="1.52882">
        <ele>80</ele>
        <time>2017-09-17T07:01:37.000Z</time>
      </trkpt>
      <trkpt lat="47.68042" lon="1.52873">
        <ele>80</ele>
        <time>2017-09-17T07:01:38.000Z</time>
      </trkpt>
      <trkpt lat="47.68018" lon="1.52816">
        <ele>80</ele>
        <time>2017-09-17T07:01:45.000Z</time>
      </trkpt>
      <trkpt lat="47.68015" lon="1.52807">
        <ele>80</ele>
        <time>2017-09-17T07:01:46.000Z</time>
      </trkpt>
      <trkpt lat="47.67989" lon="1.52742">
        <ele>80</ele>
        <time>2017-09-17T07:01:54.000Z</time>
      </trkpt>
      <trkpt lat="47.67986" lon="1.52734">
        <ele>80</ele>
        <time>2017-09-17T07:01:55.000Z</time>
      </trkpt>
      <trkpt lat="47.6796" lon="1.52669">
        <ele>80</ele>
        <time>2017-09-17T07:02:03.000Z</time>
      </trkpt>
      <trkpt lat="47.67957" lon="1.52661">
        <ele>80</ele>
        <time>2017-09-17T07:02:04.000Z</time>
      </trkpt>
      <trkpt lat="47.67931" lon="1.52597">
        <ele>80</ele>
        <time>2017-09-17T07:02:12.000Z</time>
      </trkpt>
      <trkpt lat="47.67928" lon="1.52589">
        <ele>80</ele>
        <time>2017-09-17T07:02:13.000Z</time>
      </trkpt>
      <trkpt lat="47.67902" lon="1.52527">
        <ele>80</ele>
        <time>2017-09-17T07:02:21.000Z</time>
      </trkpt>
      <trkpt lat="47.67899" lon="1.5252">
        <ele>80</ele>
        <time>2017-09-17T07:02:22.000Z</time>
      </trkpt>
      <trkpt lat="47.67873" lon="1.52457">
        <ele>80</ele>
        <time>2017-09-17T07:02:31.000Z</time>
      </trkpt>
      <trkpt lat="47.6787" lon="1.5245">
        <ele>80</ele>
        <time>2017-09-17T07:02:32.000Z</time>
      </trkpt>
      <trkpt lat="47.67853" lon="1.52403">
        <ele>80</ele>
        <time>2017-09-17T07:02:39.000Z</time>
      </trkpt>
      <trkpt lat="47.67828" lon="1.52342">
        <ele>79</ele>
        <time>2017-09-17T07:02:51.000Z</time>
      </trkpt>
      <trkpt lat="47.67825" lon="1.52335">
        <ele>79</ele>
        <time>2017-09-17T07:02:52.000Z</time>
      </trkpt>
      <trkpt lat="47.67802" lon="1.52278">
        <ele>78</ele>
        <time>2017-09-17T07:03:00.000Z</time>
      </trkpt>
      <trkpt lat="47.67799" lon="1.5227">
        <ele>78</ele>
        <time>2017-09-17T07:03:01.000Z</time>
      </trkpt>
      <trkpt lat="47.67775" lon="1.5221">
        <ele>77</ele>
        <time>2017-09-17T07:03:09.000Z</time>
      </trkpt>
      <trkpt lat="47.67772" lon="1.52202">
        <ele>77</ele>
        <time>2017-09-17T07:03:10.000Z</time>
      </trkpt>
      <trkpt lat="47.67747" lon="1.52142">
        <ele>77</ele>
        <time>2017-09-17T07:03:18.000Z</time>
      </trkpt>
      <trkpt lat="47.67745" lon="1.52135">
        <ele>77</ele>
        <time>2017-09-17T07:03:19.000Z</time>
      </trkpt>
      <trkpt lat="47.6772" lon="1.52075">
        <ele>77</ele>
        <time>2017-09-17T07:03:27.000Z</time>
      </trkpt>
      <trkpt lat="47.67718" lon="1.52067">
        <ele>77</ele>
        <time>2017-09-17T07:03:28.000Z</time>
      </trkpt>
      <trkpt lat="47.67693" lon="1.52007">
        <ele>77</ele>
        <time>2017-09-17T07:03:36.000Z</time>
      </trkpt>
      <trkpt lat="47.6769" lon="1.51999">
        <ele>77</ele>
        <time>2017-09-17T07:03:37.000Z</time>
      </trkpt>
      <trkpt lat="47.67666" lon="1.51938">
        <ele>77</ele>
        <time>2017-09-17T07:03:45.000Z</time>
      </trkpt>
      <trkpt lat="47.67663" lon="1.5193">
        <ele>77</ele>
        <time>2017-09-17T07:03:46.000Z</time>
      </trkpt>
      <trkpt lat="47.67638" lon="1.51868">
        <ele>77</ele>
        <time>2017-09-17T07:03:54.000Z</time>
      </trkpt>
      <trkpt lat="47.67635" lon="1.5186">
        <ele>77</ele>
        <time>2017-09-17T07:03:55.000Z</time>
      </trkpt>
      <trkpt lat="47.6761" lon="1.51798">
        <ele>77</ele>
        <time>2017-09-17T07:04:03.000Z</time>
      </trkpt>
      <trkpt lat="47.67606" lon="1.5179">
        <ele>77</ele>
        <time>2017-09-17T07:04:04.000Z</time>
      </trkpt>
      <trkpt lat="47.67581" lon="1.51726">
        <ele>77</ele>
        <time>2017-09-17T07:04:12.000Z</time>
      </trkpt>
      <trkpt lat="47.67577" lon="1.51718">
        <ele>77</ele>
        <time>2017-09-17T07:04:13.000Z</time>
      </trkpt>
      <trkpt lat="47.67554" lon="1.5166">
        <ele>77</ele>
        <time>2017-09-17T07:04:20.000Z</time>
      </trkpt>
      <trkpt lat="47.67551" lon="1.51652">
        <ele>77</ele>
        <time>2017-09-17T07:04:21.000Z</time>
      </trkpt>
      <trkpt lat="47.67527" lon="1.51593">
        <ele>77</ele>
        <time>2017-09-17T07:04:28.000Z</time>
      </trkpt>
      <trkpt lat="47.67524" lon="1.51585">
        <ele>77</ele>
        <time>2017-09-17T07:04:29.000Z</time>
      </trkpt>
      <trkpt lat="47.67498" lon="1.51523">
        <ele>77</ele>
        <time>2017-09-17T07:04:37.000Z</time>
      </trkpt>
      <trkpt lat="47.67495" lon="1.51515">
        <ele>77</ele>
        <time>2017-09-17T07:04:38.000Z</time>
      </trkpt>
      <trkpt lat="47.67471" lon="1.51453">
        <ele>77</ele>
        <time>2017-09-17T07:04:46.000Z</time>
      </trkpt>
      <trkpt lat="47.67467" lon="1.51446">
        <ele>77</ele>
        <time>2017-09-17T07:04:47.000Z</time>
      </trkpt>
      <trkpt lat="47.67443" lon="1.51384">
        <ele>76</ele>
        <time>2017-09-17T07:04:55.000Z</time>
      </trkpt>
      <trkpt lat="47.6744" lon="1.51377">
        <ele>76</ele>
        <time>2017-09-17T07:04:56.000Z</time>
      </trkpt>
      <trkpt lat="47.67416" lon="1.51319">
        <ele>76</ele>
        <time>2017-09-17T07:05:03.000Z</time>
      </trkpt>
      <trkpt lat="47.67413" lon="1.5131">
        <ele>76</ele>
        <time>2017-09-17T07:05:04.000Z</time>
      </trkpt>
      <trkpt lat="47.67389" lon="1.5125">
        <ele>76</ele>
        <time>2017-09-17T07:05:11.000Z</time>
      </trkpt>
      <trkpt lat="47.67385" lon="1.51242">
        <ele>76</ele>
        <time>2017-09-17T07:05:12.000Z</time>
      </trkpt>
      <trkpt lat="47.67361" lon="1.51182">
        <ele>76</ele>
        <time>2017-09-17T07:05:19.000Z</time>
      </trkpt>
      <trkpt lat="47.67358" lon="1.51173">
        <ele>76</ele>
        <time>2017-09-17T07:05:20.000Z</time>
      </trkpt>
      <trkpt lat="47.67334" lon="1.51114">
        <ele>77</ele>
        <time>2017-09-17T07:05:27.000Z</time>
      </trkpt>
      <trkpt lat="47.67331" lon="1.51106">
        <ele>77</ele>
        <time>2017-09-17T07:05:28.000Z</time>
      </trkpt>
      <trkpt lat="47.67307" lon="1.51048">
        <ele>77</ele>
        <time>2017-09-17T07:05:35.000Z</time>
      </trkpt>
      <trkpt lat="47.67303" lon="1.51039">
        <ele>77</ele>
        <time>2017-09-17T07:05:36.000Z</time>
      </trkpt>
      <trkpt lat="47.67279" lon="1.5098">
        <ele>77</ele>
        <time>2017-09-17T07:05:43.000Z</time>
      </trkpt>
      <trkpt lat="47.67276" lon="1.50972">
        <ele>77</ele>
        <time>2017-09-17T07:05:44.000Z</time>
      </trkpt>
      <trkpt lat="47.67252" lon="1.50914">
        <ele>77</ele>
        <time>2017-09-17T07:05:51.000Z</time>
      </trkpt>
      <trkpt lat="47.67248" lon="1.50905">
        <ele>77</ele>
        <time>2017-09-17T07:05:52.000Z</time>
      </trkpt>
      <trkpt lat="47.67222" lon="1.50839">
        <ele>77</ele>
        <time>2017-09-17T07:06:00.000Z</time>
      </trkpt>
      <trkpt lat="47.67219" lon="1.50831">
        <ele>77</ele>
        <time>2017-09-17T07:06:01.000Z</time>
      </trkpt>
      <trkpt lat="47.67193" lon="1.50769">
        <ele>77</ele>
        <time>2017-09-17T07:06:09.000Z</time>
      </trkpt>
      <trkpt lat="47.6719" lon="1.50761">
        <ele>77</ele>
        <time>2017-09-17T07:06:10.000Z</time>
      </trkpt>
      <trkpt lat="47.67165" lon="1.50699">
        <ele>77</ele>
        <time>2017-09-17T07:06:18.000Z</time>
      </trkpt>
      <trkpt lat="47.67162" lon="1.50691">
        <ele>77</ele>
        <time>2017-09-17T07:06:19.000Z</time>
      </trkpt>
      <trkpt lat="47.67136" lon="1.50631">
        <ele>77</ele>
        <time>2017-09-17T07:06:27.000Z</time>
      </trkpt>
      <trkpt lat="47.67133" lon="1.50623">
        <ele>77</ele>
        <time>2017-09-17T07:06:28.000Z</time>
      </trkpt>
      <trkpt lat="47.67108" lon="1.50563">
        <ele>77</ele>
        <time>2017-09-17T07:06:36.000Z</time>
      </trkpt>
      <trkpt lat="47.67105" lon="1.50555">
        <ele>77</ele>
        <time>2017-09-17T07:06:37.000Z</time>
      </trkpt>
      <trkpt lat="47.6708" lon="1.50493">
        <ele>77</ele>
        <time>2017-09-17T07:06:45.000Z</time>
      </trkpt>
      <trkpt lat="47.67077" lon="1.50485">
        <ele>77</ele>
        <time>2017-09-17T07:06:46.000Z</time>
      </trkpt>
      <trkpt lat="47.67051" lon="1.50424">
        <ele>77</ele>
        <time>2017-09-17T07:06:54.000Z</time>
      </trkpt>
      <trkpt lat="47.67048" lon="1.50416">
        <ele>77</ele>
        <time>2017-09-17T07:06:55.000Z</time>
      </trkpt>
      <trkpt lat="47.67021" lon="1.50357">
        <ele>77</ele>
        <time>2017-09-17T07:07:03.000Z</time>
      </trkpt>
      <trkpt lat="47.67018" lon="1.5035">
        <ele>77</ele>
        <time>2017-09-17T07:07:04.000Z</time>
      </trkpt>
      <trkpt lat="47.6699" lon="1.50291">
        <ele>77</ele>
        <time>2017-09-17T07:07:12.000Z</time>
      </trkpt>
      <trkpt lat="47.66987" lon="1.50283">
        <ele>77</ele>
        <time>2017-09-17T07:07:13.000Z</time>
      </trkpt>
      <trkpt lat="47.66961" lon="1.50224">
        <ele>77</ele>
        <time>2017-09-17T07:07:21.000Z</time>
      </trkpt>
      <trkpt lat="47.66957" lon="1.50217">
        <ele>77</ele>
        <time>2017-09-17T07:07:22.000Z</time>
      </trkpt>
      <trkpt lat="47.66931" lon="1.50159">
        <ele>77</ele>
        <time>2017-09-17T07:07:30.000Z</time>
      </trkpt>
      <trkpt lat="47.66928" lon="1.50152">
        <ele>77</ele>
        <time>2017-09-17T07:07:31.000Z</time>
      </trkpt>
      <trkpt lat="47.66902" lon="1.50095">
        <ele>76</ele>
        <time>2017-09-17T07:07:39.000Z</time>
      </trkpt>
      <trkpt lat="47.66899" lon="1.50088">
        <ele>76</ele>
        <time>2017-09-17T07:07:40.000Z</time>
      </trkpt>
      <trkpt lat="47.66873" lon="1.50029">
        <ele>76</ele>
        <time>2017-09-17T07:07:48.000Z</time>
      </trkpt>
      <trkpt lat="47.6687" lon="1.50022">
        <ele>76</ele>
        <time>2017-09-17T07:07:49.000Z</time>
      </trkpt>
      <trkpt lat="47.66843" lon="1.49963">
        <ele>76</ele>
        <time>2017-09-17T07:07:57.000Z</time>
      </trkpt>
      <trkpt lat="47.6684" lon="1.49956">
        <ele>76</ele>
        <time>2017-09-17T07:07:58.000Z</time>
      </trkpt>
      <trkpt lat="47.66812" lon="1.49896">
        <ele>76</ele>
        <time>2017-09-17T07:08:06.000Z</time>
      </trkpt>
      <trkpt lat="47.66808" lon="1.49888">
        <ele>76</ele>
        <time>2017-09-17T07:08:07.000Z</time>
      </trkpt>
      <trkpt lat="47.66782" lon="1.49829">
        <ele>76</ele>
        <time>2017-09-17T07:08:15.000Z</time>
      </trkpt>
      <trkpt lat="47.66778" lon="1.49822">
        <ele>76</ele>
        <time>2017-09-17T07:08:16.000Z</time>
      </trkpt>
      <trkpt lat="47.66751" lon="1.49763">
        <ele>76</ele>
        <time>2017-09-17T07:08:24.000Z</time>
      </trkpt>
      <trkpt lat="47.66748" lon="1.49755">
        <ele>76</ele>
        <time>2017-09-17T07:08:25.000Z</time>
      </trkpt>
      <trkpt lat="47.6672" lon="1.49693">
        <ele>76</ele>
        <time>2017-09-17T07:08:33.000Z</time>
      </trkpt>
      <trkpt lat="47.66717" lon="1.49686">
        <ele>76</ele>
        <time>2017-09-17T07:08:34.000Z</time>
      </trkpt>
      <trkpt lat="47.6669" lon="1.49626">
        <ele>75</ele>
        <time>2017-09-17T07:08:42.000Z</time>
      </trkpt>
      <trkpt lat="47.66687" lon="1.49619">
        <ele>75</ele>
        <time>2017-09-17T07:08:43.000Z</time>
      </trkpt>
      <trkpt lat="47.66661" lon="1.4956">
        <ele>75</ele>
        <time>2017-09-17T07:08:51.000Z</time>
      </trkpt>
      <trkpt lat="47.66657" lon="1.49553">
        <ele>75</ele>
        <time>2017-09-17T07:08:52.000Z</time>
      </trkpt>
      <trkpt lat="47.6663" lon="1.49493">
        <ele>75</ele>
        <time>2017-09-17T07:09:00.000Z</time>
      </trkpt>
      <trkpt lat="47.66626" lon="1.49485">
        <ele>75</ele>
        <time>2017-09-17T07:09:01.000Z</time>
      </trkpt>
      <trkpt lat="47.66599" lon="1.49424">
        <ele>75</ele>
        <time>2017-09-17T07:09:09.000Z</time>
      </trkpt>
      <trkpt lat="47.66595" lon="1.49416">
        <ele>75</ele>
        <time>2017-09-17T07:09:10.000Z</time>
      </trkpt>
      <trkpt lat="47.66569" lon="1.49358">
        <ele>75</ele>
        <time>2017-09-17T07:09:18.000Z</time>
      </trkpt>
      <trkpt lat="47.66565" lon="1.49351">
        <ele>75</ele>
        <time>2017-09-17T07:09:19.000Z</time>
      </trkpt>
      <trkpt lat="47.66539" lon="1.49292">
        <ele>75</ele>
        <time>2017-09-17T07:09:27.000Z</time>
      </trkpt>
      <trkpt lat="47.66536" lon="1.49285">
        <ele>75</ele>
        <time>2017-09-17T07:09:28.000Z</time>
      </trkpt>
      <trkpt lat="47.66508" lon="1.49224">
        <ele>75</ele>
        <time>2017-09-17T07:09:36.000Z</time>
      </trkpt>
      <trkpt lat="47.66505" lon="1.49216">
        <ele>75</ele>
        <time>2017-09-17T07:09:37.000Z</time>
      </trkpt>
      <trkpt lat="47.66478" lon="1.49156">
        <ele>75</ele>
        <time>2017-09-17T07:09:45.000Z</time>
      </trkpt>
      <trkpt lat="47.66475" lon="1.49149">
        <ele>75</ele>
        <time>2017-09-17T07:09:46.000Z</time>
      </trkpt>
      <trkpt lat="47.66449" lon="1.49091">
        <ele>75</ele>
        <time>2017-09-17T07:09:54.000Z</time>
      </trkpt>
      <trkpt lat="47.66446" lon="1.49084">
        <ele>75</ele>
        <time>2017-09-17T07:09:55.000Z</time>
      </trkpt>
      <trkpt lat="47.6642" lon="1.49024">
        <ele>75</ele>
        <time>2017-09-17T07:10:03.000Z</time>
      </trkpt>
      <trkpt lat="47.66417" lon="1.49017">
        <ele>75</ele>
        <time>2017-09-17T07:10:04.000Z</time>
      </trkpt>
      <trkpt lat="47.66391" lon="1.48958">
        <ele>75</ele>
        <time>2017-09-17T07:10:12.000Z</time>
      </trkpt>
      <trkpt lat="47.66387" lon="1.4895">
        <ele>75</ele>
        <time>2017-09-17T07:10:13.000Z</time>
      </trkpt>
      <trkpt lat="47.66359" lon="1.48888">
        <ele>75</ele>
        <time>2017-09-17T07:10:21.000Z</time>
      </trkpt>
      <trkpt lat="47.66356" lon="1.48881">
        <ele>75</ele>
        <time>2017-09-17T07:10:22.000Z</time>
      </trkpt>
      <trkpt lat="47.6633" lon="1.48822">
        <ele>75</ele>
        <time>2017-09-17T07:10:30.000Z</time>
      </trkpt>
      <trkpt lat="47.66327" lon="1.48815">
        <ele>75</ele>
        <time>2017-09-17T07:10:31.000Z</time>
      </trkpt>
      <trkpt lat="47.663" lon="1.48751">
        <ele>74</ele>
        <time>2017-09-17T07:10:40.000Z</time>
      </trkpt>
      <trkpt lat="47.66297" lon="1.48744">
        <ele>74</ele>
        <time>2017-09-17T07:10:41.000Z</time>
      </trkpt>
      <trkpt lat="47.6627" lon="1.48681">
        <ele>74</ele>
        <time>2017-09-17T07:10:50.000Z</time>
      </trkpt>
      <trkpt lat="47.66267" lon="1.48673">
        <ele>74</ele>
        <time>2017-09-17T07:10:51.000Z</time>
      </trkpt>
      <trkpt lat="47.66243" lon="1.48613">
        <ele>74</ele>
        <time>2017-09-17T07:10:59.000Z</time>
      </trkpt>
      <trkpt lat="47.6624" lon="1.48605">
        <ele>74</ele>
        <time>2017-09-17T07:11:00.000Z</time>
      </trkpt>
      <trkpt lat="47.66218" lon="1.48544">
        <ele>74</ele>
        <time>2017-09-17T07:11:08.000Z</time>
      </trkpt>
      <trkpt lat="47.66215" lon="1.48537">
        <ele>74</ele>
        <time>2017-09-17T07:11:09.000Z</time>
      </trkpt>
      <trkpt lat="47.66195" lon="1.48477">
        <ele>74</ele>
        <time>2017-09-17T07:11:17.000Z</time>
      </trkpt>
      <trkpt lat="47.66192" lon="1.48469">
        <ele>74</ele>
        <time>2017-09-17T07:11:18.000Z</time>
      </trkpt>
      <trkpt lat="47.66168" lon="1.48403">
        <ele>75</ele>
        <time>2017-09-17T07:11:27.000Z</time>
      </trkpt>
      <trkpt lat="47.66165" lon="1.48395">
        <ele>75</ele>
        <time>2017-09-17T07:11:28.000Z</time>
      </trkpt>
      <trkpt lat="47.66144" lon="1.48333">
        <ele>75</ele>
        <time>2017-09-17T07:11:36.000Z</time>
      </trkpt>
      <trkpt lat="47.66141" lon="1.48325">
        <ele>75</ele>
        <time>2017-09-17T07:11:37.000Z</time>
      </trkpt>
      <trkpt lat="47.66118" lon="1.48258">
        <ele>74</ele>
        <time>2017-09-17T07:11:45.000Z</time>
      </trkpt>
      <trkpt lat="47.66116" lon="1.4825">
        <ele>74</ele>
        <time>2017-09-17T07:11:46.000Z</time>
      </trkpt>
      <trkpt lat="47.66093" lon="1.48182">
        <ele>75</ele>
        <time>2017-09-17T07:11:54.000Z</time>
      </trkpt>
      <trkpt lat="47.6609" lon="1.48174">
        <ele>75</ele>
        <time>2017-09-17T07:11:55.000Z</time>
      </trkpt>
      <trkpt lat="47.66071" lon="1.48112">
        <ele>75</ele>
        <time>2017-09-17T07:12:02.000Z</time>
      </trkpt>
      <trkpt lat="47.66069" lon="1.48103">
        <ele>75</ele>
        <time>2017-09-17T07:12:03.000Z</time>
      </trkpt>
      <trkpt lat="47.6605" lon="1.48041">
        <ele>75</ele>
        <time>2017-09-17T07:12:10.000Z</time>
      </trkpt>
      <trkpt lat="47.66047" lon="1.48032">
        <ele>75</ele>
        <time>2017-09-17T07:12:11.000Z</time>
      </trkpt>
      <trkpt lat="47.66026" lon="1.47964">
        <ele>75</ele>
        <time>2017-09-17T07:12:19.000Z</time>
      </trkpt>
      <trkpt lat="47.66024" lon="1.47956">
        <ele>75</ele>
        <time>2017-09-17T07:12:20.000Z</time>
      </trkpt>
      <trkpt lat="47.66006" lon="1.47891">
        <ele>75</ele>
        <time>2017-09-17T07:12:28.000Z</time>
      </trkpt>
      <trkpt lat="47.66004" lon="1.47883">
        <ele>74</ele>
        <time>2017-09-17T07:12:29.000Z</time>
      </trkpt>
      <trkpt lat="47.65987" lon="1.47819">
        <ele>75</ele>
        <time>2017-09-17T07:12:37.000Z</time>
      </trkpt>
      <trkpt lat="47.65985" lon="1.47812">
        <ele>75</ele>
        <time>2017-09-17T07:12:38.000Z</time>
      </trkpt>
      <trkpt lat="47.65979" lon="1.47787">
        <ele>75</ele>
        <time>2017-09-17T07:12:41.000Z</time>
      </trkpt>
      <trkpt lat="47.65964" lon="1.47721">
        <ele>74</ele>
        <time>2017-09-17T07:12:49.000Z</time>
      </trkpt>
      <trkpt lat="47.65962" lon="1.47713">
        <ele>74</ele>
        <time>2017-09-17T07:12:50.000Z</time>
      </trkpt>
      <trkpt lat="47.65947" lon="1.47647">
        <ele>74</ele>
        <time>2017-09-17T07:12:58.000Z</time>
      </trkpt>
      <trkpt lat="47.65945" lon="1.47638">
        <ele>74</ele>
        <time>2017-09-17T07:12:59.000Z</time>
      </trkpt>
      <trkpt lat="47.65931" lon="1.47572">
        <ele>75</ele>
        <time>2017-09-17T07:13:07.000Z</time>
      </trkpt>
      <trkpt lat="47.65929" lon="1.47564">
        <ele>75</ele>
        <time>2017-09-17T07:13:08.000Z</time>
      </trkpt>
      <trkpt lat="47.65916" lon="1.47498">
        <ele>75</ele>
        <time>2017-09-17T07:13:16.000Z</time>
      </trkpt>
      <trkpt lat="47.65915" lon="1.47489">
        <ele>75</ele>
        <time>2017-09-17T07:13:17.000Z</time>
      </trkpt>
      <trkpt lat="47.65902" lon="1.47422">
        <ele>75</ele>
        <time>2017-09-17T07:13:25.000Z</time>
      </trkpt>
      <trkpt lat="47.659" lon="1.47413">
        <ele>75</ele>
        <time>2017-09-17T07:13:26.000Z</time>
      </trkpt>
      <trkpt lat="47.65887" lon="1.47342">
        <ele>74</ele>
        <time>2017-09-17T07:13:34.000Z</time>
      </trkpt>
      <trkpt lat="47.65886" lon="1.47334">
        <ele>74</ele>
        <time>2017-09-17T07:13:35.000Z</time>
      </trkpt>
      <trkpt lat="47.65881" lon="1.47299">
        <ele>74</ele>
        <time>2017-09-17T07:13:39.000Z</time>
      </trkpt>
      <trkpt lat="47.65871" lon="1.4723">
        <ele>74</ele>
        <time>2017-09-17T07:13:47.000Z</time>
      </trkpt>
      <trkpt lat="47.6587" lon="1.47221">
        <ele>74</ele>
        <time>2017-09-17T07:13:48.000Z</time>
      </trkpt>
      <trkpt lat="47.65858" lon="1.47151">
        <ele>74</ele>
        <time>2017-09-17T07:13:56.000Z</time>
      </trkpt>
      <trkpt lat="47.65857" lon="1.47142">
        <ele>74</ele>
        <time>2017-09-17T07:13:57.000Z</time>
      </trkpt>
      <trkpt lat="47.65847" lon="1.47072">
        <ele>74</ele>
        <time>2017-09-17T07:14:05.000Z</time>
      </trkpt>
      <trkpt lat="47.65845" lon="1.47063">
        <ele>74</ele>
        <time>2017-09-17T07:14:06.000Z</time>
      </trkpt>
      <trkpt lat="47.65836" lon="1.46994">
        <ele>74</ele>
        <time>2017-09-17T07:14:14.000Z</time>
      </trkpt>
      <trkpt lat="47.65835" lon="1.46985">
        <ele>73</ele>
        <time>2017-09-17T07:14:15.000Z</time>
      </trkpt>
      <trkpt lat="47.65828" lon="1.46916">
        <ele>73</ele>
        <time>2017-09-17T07:14:23.000Z</time>
      </trkpt>
      <trkpt lat="47.65827" lon="1.46908">
        <ele>73</ele>
        <time>2017-09-17T07:14:24.000Z</time>
      </trkpt>
      <trkpt lat="47.65819" lon="1.46842">
        <ele>73</ele>
        <time>2017-09-17T07:14:32.000Z</time>
      </trkpt>
      <trkpt lat="47.65818" lon="1.46834">
        <ele>73</ele>
        <time>2017-09-17T07:14:33.000Z</time>
      </trkpt>
      <trkpt lat="47.6581" lon="1.46767">
        <ele>73</ele>
        <time>2017-09-17T07:14:41.000Z</time>
      </trkpt>
      <trkpt lat="47.65808" lon="1.46758">
        <ele>73</ele>
        <time>2017-09-17T07:14:42.000Z</time>
      </trkpt>
      <trkpt lat="47.65801" lon="1.46688">
        <ele>73</ele>
        <time>2017-09-17T07:14:50.000Z</time>
      </trkpt>
      <trkpt lat="47.658" lon="1.46679">
        <ele>73</ele>
        <time>2017-09-17T07:14:51.000Z</time>
      </trkpt>
      <trkpt lat="47.65792" lon="1.4661">
        <ele>73</ele>
        <time>2017-09-17T07:14:59.000Z</time>
      </trkpt>
      <trkpt lat="47.65791" lon="1.46601">
        <ele>73</ele>
        <time>2017-09-17T07:15:00.000Z</time>
      </trkpt>
      <trkpt lat="47.65783" lon="1.46532">
        <ele>73</ele>
        <time>2017-09-17T07:15:08.000Z</time>
      </trkpt>
      <trkpt lat="47.65782" lon="1.46524">
        <ele>73</ele>
        <time>2017-09-17T07:15:09.000Z</time>
      </trkpt>
      <trkpt lat="47.65775" lon="1.46453">
        <ele>73</ele>
        <time>2017-09-17T07:15:17.000Z</time>
      </trkpt>
      <trkpt lat="47.65773" lon="1.46444">
        <ele>73</ele>
        <time>2017-09-17T07:15:18.000Z</time>
      </trkpt>
      <trkpt lat="47.65765" lon="1.46374">
        <ele>73</ele>
        <time>2017-09-17T07:15:26.000Z</time>
      </trkpt>
      <trkpt lat="47.65764" lon="1.46366">
        <ele>73</ele>
        <time>2017-09-17T07:15:27.000Z</time>
      </trkpt>
      <trkpt lat="47.65757" lon="1.46298">
        <ele>73</ele>
        <time>2017-09-17T07:15:35.000Z</time>
      </trkpt>
      <trkpt lat="47.65755" lon="1.46289">
        <ele>73</ele>
        <time>2017-09-17T07:15:36.000Z</time>
      </trkpt>
      <trkpt lat="47.65747" lon="1.46221">
        <ele>73</ele>
        <time>2017-09-17T07:15:44.000Z</time>
      </trkpt>
      <trkpt lat="47.65746" lon="1.46213">
        <ele>73</ele>
        <time>2017-09-17T07:15:45.000Z</time>
      </trkpt>
      <trkpt lat="47.65737" lon="1.46139">
        <ele>73</ele>
        <time>2017-09-17T07:15:54.000Z</time>
      </trkpt>
      <trkpt lat="47.65736" lon="1.46131">
        <ele>73</ele>
        <time>2017-09-17T07:15:55.000Z</time>
      </trkpt>
      <trkpt lat="47.65728" lon="1.46065">
        <ele>72</ele>
        <time>2017-09-17T07:16:03.000Z</time>
      </trkpt>
      <trkpt lat="47.65727" lon="1.46056">
        <ele>72</ele>
        <time>2017-09-17T07:16:04.000Z</time>
      </trkpt>
      <trkpt lat="47.65718" lon="1.45989">
        <ele>72</ele>
        <time>2017-09-17T07:16:12.000Z</time>
      </trkpt>
      <trkpt lat="47.65717" lon="1.4598">
        <ele>72</ele>
        <time>2017-09-17T07:16:13.000Z</time>
      </trkpt>
      <trkpt lat="47.65708" lon="1.45909">
        <ele>72</ele>
        <time>2017-09-17T07:16:21.000Z</time>
      </trkpt>
      <trkpt lat="47.65707" lon="1.459">
        <ele>72</ele>
        <time>2017-09-17T07:16:22.000Z</time>
      </trkpt>
      <trkpt lat="47.65699" lon="1.45828">
        <ele>72</ele>
        <time>2017-09-17T07:16:30.000Z</time>
      </trkpt>
      <trkpt lat="47.65698" lon="1.45819">
        <ele>72</ele>
        <time>2017-09-17T07:16:31.000Z</time>
      </trkpt>
      <trkpt lat="47.65689" lon="1.45745">
        <ele>72</ele>
        <time>2017-09-17T07:16:39.000Z</time>
      </trkpt>
      <trkpt lat="47.65688" lon="1.45735">
        <ele>72</ele>
        <time>2017-09-17T07:16:40.000Z</time>
      </trkpt>
      <trkpt lat="47.65681" lon="1.45668">
        <ele>71</ele>
        <time>2017-09-17T07:16:47.000Z</time>
      </trkpt>
      <trkpt lat="47.6568" lon="1.45659">
        <ele>71</ele>
        <time>2017-09-17T07:16:48.000Z</time>
      </trkpt>
      <trkpt lat="47.65672" lon="1.45588">
        <ele>71</ele>
        <time>2017-09-17T07:16:55.000Z</time>
      </trkpt>
      <trkpt lat="47.6567" lon="1.45578">
        <ele>71</ele>
        <time>2017-09-17T07:16:56.000Z</time>
      </trkpt>
      <trkpt lat="47.65662" lon="1.4551">
        <ele>71</ele>
        <time>2017-09-17T07:17:03.000Z</time>
      </trkpt>
      <trkpt lat="47.65662" lon="1.45501">
        <ele>71</ele>
        <time>2017-09-17T07:17:04.000Z</time>
      </trkpt>
      <trkpt lat="47.65653" lon="1.45433">
        <ele>71</ele>
        <time>2017-09-17T07:17:11.000Z</time>
      </trkpt>
      <trkpt lat="47.65652" lon="1.45423">
        <ele>71</ele>
        <time>2017-09-17T07:17:12.000Z</time>
      </trkpt>
      <trkpt lat="47.65645" lon="1.45353">
        <ele>71</ele>
        <time>2017-09-17T07:17:19.000Z</time>
      </trkpt>
      <trkpt lat="47.65644" lon="1.45344">
        <ele>71</ele>
        <time>2017-09-17T07:17:20.000Z</time>
      </trkpt>
      <trkpt lat="47.65636" lon="1.45276">
        <ele>70</ele>
        <time>2017-09-17T07:17:27.000Z</time>
      </trkpt>
      <trkpt lat="47.65635" lon="1.45267">
        <ele>70</ele>
        <time>2017-09-17T07:17:28.000Z</time>
      </trkpt>
      <trkpt lat="47.65627" lon="1.45198">
        <ele>70</ele>
        <time>2017-09-17T07:17:35.000Z</time>
      </trkpt>
      <trkpt lat="47.65625" lon="1.45188">
        <ele>70</ele>
        <time>2017-09-17T07:17:36.000Z</time>
      </trkpt>
      <trkpt lat="47.65617" lon="1.45122">
        <ele>70</ele>
        <time>2017-09-17T07:17:43.000Z</time>
      </trkpt>
      <trkpt lat="47.65616" lon="1.45113">
        <ele>70</ele>
        <time>2017-09-17T07:17:44.000Z</time>
      </trkpt>
      <trkpt lat="47.65607" lon="1.45037">
        <ele>68</ele>
        <time>2017-09-17T07:17:52.000Z</time>
      </trkpt>
      <trkpt lat="47.65606" lon="1.45026">
        <ele>68</ele>
        <time>2017-09-17T07:17:53.000Z</time>
      </trkpt>
      <trkpt lat="47.65602" lon="1.44955">
        <ele>66</ele>
        <time>2017-09-17T07:17:59.000Z</time>
      </trkpt>
      <trkpt lat="47.65602" lon="1.44944">
        <ele>66</ele>
        <time>2017-09-17T07:18:00.000Z</time>
      </trkpt>
      <trkpt lat="47.65601" lon="1.44873">
        <ele>66</ele>
        <time>2017-09-17T07:18:07.000Z</time>
      </trkpt>
      <trkpt lat="47.65601" lon="1.44864">
        <ele>66</ele>
        <time>2017-09-17T07:18:08.000Z</time>
      </trkpt>
      <trkpt lat="47.65602" lon="1.44838">
        <ele>66</ele>
        <time>2017-09-17T07:18:11.000Z</time>
      </trkpt>
      <trkpt lat="47.656" lon="1.44806">
        <ele>66</ele>
        <time>2017-09-17T07:18:15.000Z</time>
      </trkpt>
      <trkpt lat="47.65592" lon="1.44799">
        <ele>67</ele>
        <time>2017-09-17T07:18:17.000Z</time>
      </trkpt>
      <trkpt lat="47.6556" lon="1.44805">
        <ele>68</ele>
        <time>2017-09-17T07:18:23.000Z</time>
      </trkpt>
      <trkpt lat="47.65513" lon="1.44815">
        <ele>69</ele>
        <time>2017-09-17T07:18:31.000Z</time>
      </trkpt>
      <trkpt lat="47.65506" lon="1.44815">
        <ele>69</ele>
        <time>2017-09-17T07:18:32.000Z</time>
      </trkpt>
      <trkpt lat="47.65495" lon="1.44811">
        <ele>69</ele>
        <time>2017-09-17T07:18:34.000Z</time>
      </trkpt>
      <trkpt lat="47.65488" lon="1.44796">
        <ele>69</ele>
        <time>2017-09-17T07:18:36.000Z</time>
      </trkpt>
      <trkpt lat="47.65482" lon="1.4472">
        <ele>69</ele>
        <time>2017-09-17T07:18:44.000Z</time>
      </trkpt>
      <trkpt lat="47.65481" lon="1.44711">
        <ele>70</ele>
        <time>2017-09-17T07:18:45.000Z</time>
      </trkpt>
      <trkpt lat="47.65477" lon="1.44694">
        <ele>70</ele>
        <time>2017-09-17T07:18:47.000Z</time>
      </trkpt>
      <trkpt lat="47.65462" lon="1.44653">
        <ele>70</ele>
        <time>2017-09-17T07:18:52.000Z</time>
      </trkpt>
      <trkpt lat="47.65451" lon="1.44623">
        <ele>70</ele>
        <time>2017-09-17T07:18:56.000Z</time>
      </trkpt>
      <trkpt lat="47.65443" lon="1.44559">
        <ele>70</ele>
        <time>2017-09-17T07:19:04.000Z</time>
      </trkpt>
      <trkpt lat="47.65443" lon="1.4455">
        <ele>70</ele>
        <time>2017-09-17T07:19:05.000Z</time>
      </trkpt>
      <trkpt lat="47.6544" lon="1.44535">
        <ele>70</ele>
        <time>2017-09-17T07:19:07.000Z</time>
      </trkpt>
      <trkpt lat="47.65432" lon="1.44494">
        <ele>70</ele>
        <time>2017-09-17T07:19:12.000Z</time>
      </trkpt>
      <trkpt lat="47.65429" lon="1.44422">
        <ele>70</ele>
        <time>2017-09-17T07:19:20.000Z</time>
      </trkpt>
      <trkpt lat="47.65429" lon="1.44412">
        <ele>70</ele>
        <time>2017-09-17T07:19:21.000Z</time>
      </trkpt>
      <trkpt lat="47.6543" lon="1.44337">
        <ele>69</ele>
        <time>2017-09-17T07:19:29.000Z</time>
      </trkpt>
      <trkpt lat="47.65431" lon="1.44329">
        <ele>69</ele>
        <time>2017-09-17T07:19:30.000Z</time>
      </trkpt>
      <trkpt lat="47.65435" lon="1.44286">
        <ele>72</ele>
        <time>2017-09-17T07:19:35.000Z</time>
      </trkpt>
      <trkpt lat="47.65439" lon="1.44249">
        <ele>73</ele>
        <time>2017-09-17T07:19:39.000Z</time>
      </trkpt>
      <trkpt lat="47.65437" lon="1.44222">
        <ele>73</ele>
        <time>2017-09-17T07:19:42.000Z</time>
      </trkpt>
      <trkpt lat="47.65425" lon="1.44157">
        <ele>72</ele>
        <time>2017-09-17T07:19:49.000Z</time>
      </trkpt>
      <trkpt lat="47.65424" lon="1.44147">
        <ele>72</ele>
        <time>2017-09-17T07:19:50.000Z</time>
      </trkpt>
      <trkpt lat="47.6542" lon="1.44072">
        <ele>70</ele>
        <time>2017-09-17T07:19:58.000Z</time>
      </trkpt>
      <trkpt lat="47.65419" lon="1.44062">
        <ele>69</ele>
        <time>2017-09-17T07:19:59.000Z</time>
      </trkpt>
      <trkpt lat="47.65409" lon="1.43999">
        <ele>65</ele>
        <time>2017-09-17T07:20:06.000Z</time>
      </trkpt>
      <trkpt lat="47.65407" lon="1.4399">
        <ele>64</ele>
        <time>2017-09-17T07:20:07.000Z</time>
      </trkpt>
      <trkpt lat="47.65388" lon="1.43921">
        <ele>62</ele>
        <time>2017-09-17T07:20:15.000Z</time>
      </trkpt>
      <trkpt lat="47.65385" lon="1.43913">
        <ele>62</ele>
        <time>2017-09-17T07:20:16.000Z</time>
      </trkpt>
      <trkpt lat="47.65371" lon="1.43843">
        <ele>62</ele>
        <time>2017-09-17T07:20:24.000Z</time>
      </trkpt>
      <trkpt lat="47.65369" lon="1.43834">
        <ele>62</ele>
        <time>2017-09-17T07:20:25.000Z</time>
      </trkpt>
      <trkpt lat="47.6535" lon="1.43764">
        <ele>63</ele>
        <time>2017-09-17T07:20:33.000Z</time>
      </trkpt>
      <trkpt lat="47.65349" lon="1.43755">
        <ele>63</ele>
        <time>2017-09-17T07:20:34.000Z</time>
      </trkpt>
      <trkpt lat="47.65343" lon="1.43714">
        <ele>63</ele>
        <time>2017-09-17T07:20:39.000Z</time>
      </trkpt>
      <trkpt lat="47.65346" lon="1.4367">
        <ele>63</ele>
        <time>2017-09-17T07:20:44.000Z</time>
      </trkpt>
      <trkpt lat="47.65337" lon="1.4364">
        <ele>63</ele>
        <time>2017-09-17T07:20:48.000Z</time>
      </trkpt>
      <trkpt lat="47.65331" lon="1.4361">
        <ele>64</ele>
        <time>2017-09-17T07:20:52.000Z</time>
      </trkpt>
      <trkpt lat="47.65325" lon="1.43551">
        <ele>64</ele>
        <time>2017-09-17T07:20:59.000Z</time>
      </trkpt>
      <trkpt lat="47.65323" lon="1.43543">
        <ele>65</ele>
        <time>2017-09-17T07:21:00.000Z</time>
      </trkpt>
      <trkpt lat="47.65308" lon="1.43475">
        <ele>64</ele>
        <time>2017-09-17T07:21:08.000Z</time>
      </trkpt>
      <trkpt lat="47.65306" lon="1.43467">
        <ele>64</ele>
        <time>2017-09-17T07:21:09.000Z</time>
      </trkpt>
      <trkpt lat="47.65302" lon="1.43442">
        <ele>64</ele>
        <time>2017-09-17T07:21:12.000Z</time>
      </trkpt>
      <trkpt lat="47.65303" lon="1.43388">
        <ele>64</ele>
        <time>2017-09-17T07:21:18.000Z</time>
      </trkpt>
      <trkpt lat="47.65308" lon="1.43317">
        <ele>63</ele>
        <time>2017-09-17T07:21:26.000Z</time>
      </trkpt>
      <trkpt lat="47.6531" lon="1.43311">
        <ele>63</ele>
        <time>2017-09-17T07:21:27.000Z</time>
      </trkpt>
      <trkpt lat="47.65323" lon="1.43298">
        <ele>64</ele>
        <time>2017-09-17T07:21:31.000Z</time>
      </trkpt>
      <trkpt lat="47.65333" lon="1.43285">
        <ele>65</ele>
        <time>2017-09-17T07:21:35.000Z</time>
      </trkpt>
      <trkpt lat="47.6534" lon="1.43289">
        <ele>66</ele>
        <time>2017-09-17T07:21:38.000Z</time>
      </trkpt>
      <trkpt lat="47.65351" lon="1.43301">
        <ele>68</ele>
        <time>2017-09-17T07:21:43.000Z</time>
      </trkpt>
      <trkpt lat="47.65355" lon="1.43294">
        <ele>69</ele>
        <time>2017-09-17T07:21:47.000Z</time>
      </trkpt>
      <trkpt lat="47.6532" lon="1.43247">
        <ele>70</ele>
        <time>2017-09-17T07:21:58.000Z</time>
      </trkpt>
      <trkpt lat="47.65316" lon="1.43241">
        <ele>70</ele>
        <time>2017-09-17T07:21:59.000Z</time>
      </trkpt>
      <trkpt lat="47.65313" lon="1.43236">
        <ele>70</ele>
        <time>2017-09-17T07:22:00.000Z</time>
      </trkpt>
      <trkpt lat="47.65282" lon="1.43182">
        <ele>71</ele>
        <time>2017-09-17T07:22:09.000Z</time>
      </trkpt>
      <trkpt lat="47.65279" lon="1.43176">
        <ele>71</ele>
        <time>2017-09-17T07:22:10.000Z</time>
      </trkpt>
      <trkpt lat="47.65247" lon="1.43123">
        <ele>71</ele>
        <time>2017-09-17T07:22:19.000Z</time>
      </trkpt>
      <trkpt lat="47.65244" lon="1.43116">
        <ele>71</ele>
        <time>2017-09-17T07:22:20.000Z</time>
      </trkpt>
      <trkpt lat="47.65212" lon="1.43062">
        <ele>70</ele>
        <time>2017-09-17T07:22:28.000Z</time>
      </trkpt>
      <trkpt lat="47.65208" lon="1.43055">
        <ele>70</ele>
        <time>2017-09-17T07:22:29.000Z</time>
      </trkpt>
      <trkpt lat="47.65177" lon="1.43001">
        <ele>70</ele>
        <time>2017-09-17T07:22:37.000Z</time>
      </trkpt>
      <trkpt lat="47.65173" lon="1.42995">
        <ele>70</ele>
        <time>2017-09-17T07:22:38.000Z</time>
      </trkpt>
      <trkpt lat="47.6514" lon="1.42942">
        <ele>70</ele>
        <time>2017-09-17T07:22:47.000Z</time>
      </trkpt>
      <trkpt lat="47.65136" lon="1.42936">
        <ele>70</ele>
        <time>2017-09-17T07:22:48.000Z</time>
      </trkpt>
      <trkpt lat="47.65104" lon="1.42885">
        <ele>71</ele>
        <time>2017-09-17T07:22:57.000Z</time>
      </trkpt>
      <trkpt lat="47.651" lon="1.42879">
        <ele>71</ele>
        <time>2017-09-17T07:22:58.000Z</time>
      </trkpt>
      <trkpt lat="47.65069" lon="1.42831">
        <ele>71</ele>
        <time>2017-09-17T07:23:06.000Z</time>
      </trkpt>
      <trkpt lat="47.65065" lon="1.42824">
        <ele>71</ele>
        <time>2017-09-17T07:23:07.000Z</time>
      </trkpt>
      <trkpt lat="47.65033" lon="1.42775">
        <ele>70</ele>
        <time>2017-09-17T07:23:14.000Z</time>
      </trkpt>
      <trkpt lat="47.65029" lon="1.42768">
        <ele>70</ele>
        <time>2017-09-17T07:23:15.000Z</time>
      </trkpt>
      <trkpt lat="47.64994" lon="1.42715">
        <ele>69</ele>
        <time>2017-09-17T07:23:23.000Z</time>
      </trkpt>
      <trkpt lat="47.6499" lon="1.42709">
        <ele>69</ele>
        <time>2017-09-17T07:23:24.000Z</time>
      </trkpt>
      <trkpt lat="47.64959" lon="1.42658">
        <ele>69</ele>
        <time>2017-09-17T07:23:32.000Z</time>
      </trkpt>
      <trkpt lat="47.64955" lon="1.42651">
        <ele>69</ele>
        <time>2017-09-17T07:23:33.000Z</time>
      </trkpt>
      <trkpt lat="47.64925" lon="1.42593">
        <ele>69</ele>
        <time>2017-09-17T07:23:42.000Z</time>
      </trkpt>
      <trkpt lat="47.64922" lon="1.42587">
        <ele>69</ele>
        <time>2017-09-17T07:23:43.000Z</time>
      </trkpt>
      <trkpt lat="47.64891" lon="1.42532">
        <ele>68</ele>
        <time>2017-09-17T07:23:52.000Z</time>
      </trkpt>
      <trkpt lat="47.64887" lon="1.42525">
        <ele>68</ele>
        <time>2017-09-17T07:23:53.000Z</time>
      </trkpt>
      <trkpt lat="47.64854" lon="1.42469">
        <ele>69</ele>
        <time>2017-09-17T07:24:02.000Z</time>
      </trkpt>
      <trkpt lat="47.64851" lon="1.42463">
        <ele>69</ele>
        <time>2017-09-17T07:24:03.000Z</time>
      </trkpt>
      <trkpt lat="47.6482" lon="1.4241">
        <ele>69</ele>
        <time>2017-09-17T07:24:11.000Z</time>
      </trkpt>
      <trkpt lat="47.64816" lon="1.42404">
        <ele>70</ele>
        <time>2017-09-17T07:24:12.000Z</time>
      </trkpt>
      <trkpt lat="47.64784" lon="1.42352">
        <ele>71</ele>
        <time>2017-09-17T07:24:20.000Z</time>
      </trkpt>
      <trkpt lat="47.6478" lon="1.42346">
        <ele>72</ele>
        <time>2017-09-17T07:24:21.000Z</time>
      </trkpt>
      <trkpt lat="47.64747" lon="1.42293">
        <ele>73</ele>
        <time>2017-09-17T07:24:31.000Z</time>
      </trkpt>
      <trkpt lat="47.64743" lon="1.42288">
        <ele>73</ele>
        <time>2017-09-17T07:24:32.000Z</time>
      </trkpt>
      <trkpt lat="47.64726" lon="1.42261">
        <ele>72</ele>
        <time>2017-09-17T07:24:36.000Z</time>
      </trkpt>
      <trkpt lat="47.64687" lon="1.42214">
        <ele>70</ele>
        <time>2017-09-17T07:24:44.000Z</time>
      </trkpt>
      <trkpt lat="47.64682" lon="1.42208">
        <ele>70</ele>
        <time>2017-09-17T07:24:45.000Z</time>
      </trkpt>
      <trkpt lat="47.64642" lon="1.42161">
        <ele>70</ele>
        <time>2017-09-17T07:24:53.000Z</time>
      </trkpt>
      <trkpt lat="47.64637" lon="1.42155">
        <ele>70</ele>
        <time>2017-09-17T07:24:54.000Z</time>
      </trkpt>
      <trkpt lat="47.64601" lon="1.42112">
        <ele>69</ele>
        <time>2017-09-17T07:25:01.000Z</time>
      </trkpt>
      <trkpt lat="47.64595" lon="1.42106">
        <ele>69</ele>
        <time>2017-09-17T07:25:02.000Z</time>
      </trkpt>
      <trkpt lat="47.64558" lon="1.42065">
        <ele>69</ele>
        <time>2017-09-17T07:25:09.000Z</time>
      </trkpt>
      <trkpt lat="47.64553" lon="1.42059">
        <ele>69</ele>
        <time>2017-09-17T07:25:10.000Z</time>
      </trkpt>
      <trkpt lat="47.64513" lon="1.42016">
        <ele>70</ele>
        <time>2017-09-17T07:25:18.000Z</time>
      </trkpt>
      <trkpt lat="47.64508" lon="1.42011">
        <ele>70</ele>
        <time>2017-09-17T07:25:19.000Z</time>
      </trkpt>
      <trkpt lat="47.6447" lon="1.41967">
        <ele>70</ele>
        <time>2017-09-17T07:25:27.000Z</time>
      </trkpt>
      <trkpt lat="47.64465" lon="1.41961">
        <ele>70</ele>
        <time>2017-09-17T07:25:28.000Z</time>
      </trkpt>
      <trkpt lat="47.64421" lon="1.41923">
        <ele>71</ele>
        <time>2017-09-17T07:25:36.000Z</time>
      </trkpt>
      <trkpt lat="47.64416" lon="1.41919">
        <ele>71</ele>
        <time>2017-09-17T07:25:37.000Z</time>
      </trkpt>
      <trkpt lat="47.64374" lon="1.4188">
        <ele>71</ele>
        <time>2017-09-17T07:25:45.000Z</time>
      </trkpt>
      <trkpt lat="47.64369" lon="1.41875">
        <ele>71</ele>
        <time>2017-09-17T07:25:46.000Z</time>
      </trkpt>
      <trkpt lat="47.64329" lon="1.41832">
        <ele>71</ele>
        <time>2017-09-17T07:25:54.000Z</time>
      </trkpt>
      <trkpt lat="47.64324" lon="1.41828">
        <ele>71</ele>
        <time>2017-09-17T07:25:55.000Z</time>
      </trkpt>
      <trkpt lat="47.64283" lon="1.41788">
        <ele>71</ele>
        <time>2017-09-17T07:26:03.000Z</time>
      </trkpt>
      <trkpt lat="47.64278" lon="1.41782">
        <ele>71</ele>
        <time>2017-09-17T07:26:04.000Z</time>
      </trkpt>
      <trkpt lat="47.64237" lon="1.41738">
        <ele>71</ele>
        <time>2017-09-17T07:26:12.000Z</time>
      </trkpt>
      <trkpt lat="47.64232" lon="1.41732">
        <ele>71</ele>
        <time>2017-09-17T07:26:13.000Z</time>
      </trkpt>
      <trkpt lat="47.64195" lon="1.41693">
        <ele>71</ele>
        <time>2017-09-17T07:26:20.000Z</time>
      </trkpt>
      <trkpt lat="47.6419" lon="1.41687">
        <ele>71</ele>
        <time>2017-09-17T07:26:21.000Z</time>
      </trkpt>
      <trkpt lat="47.64154" lon="1.41646">
        <ele>71</ele>
        <time>2017-09-17T07:26:28.000Z</time>
      </trkpt>
      <trkpt lat="47.64149" lon="1.4164">
        <ele>71</ele>
        <time>2017-09-17T07:26:29.000Z</time>
      </trkpt>
      <trkpt lat="47.64111" lon="1.4159">
        <ele>71</ele>
        <time>2017-09-17T07:26:37.000Z</time>
      </trkpt>
      <trkpt lat="47.64106" lon="1.41584">
        <ele>70</ele>
        <time>2017-09-17T07:26:38.000Z</time>
      </trkpt>
      <trkpt lat="47.6407" lon="1.41537">
        <ele>69</ele>
        <time>2017-09-17T07:26:45.000Z</time>
      </trkpt>
      <trkpt lat="47.64064" lon="1.4153">
        <ele>69</ele>
        <time>2017-09-17T07:26:46.000Z</time>
      </trkpt>
      <trkpt lat="47.64026" lon="1.41483">
        <ele>68</ele>
        <time>2017-09-17T07:26:53.000Z</time>
      </trkpt>
      <trkpt lat="47.6402" lon="1.41476">
        <ele>68</ele>
        <time>2017-09-17T07:26:54.000Z</time>
      </trkpt>
      <trkpt lat="47.63983" lon="1.41429">
        <ele>68</ele>
        <time>2017-09-17T07:27:01.000Z</time>
      </trkpt>
      <trkpt lat="47.63977" lon="1.41422">
        <ele>68</ele>
        <time>2017-09-17T07:27:02.000Z</time>
      </trkpt>
      <trkpt lat="47.63939" lon="1.41376">
        <ele>69</ele>
        <time>2017-09-17T07:27:09.000Z</time>
      </trkpt>
      <trkpt lat="47.63934" lon="1.4137">
        <ele>69</ele>
        <time>2017-09-17T07:27:10.000Z</time>
      </trkpt>
      <trkpt lat="47.63906" lon="1.41347">
        <ele>70</ele>
        <time>2017-09-17T07:27:16.000Z</time>
      </trkpt>
      <trkpt lat="47.63895" lon="1.41344">
        <ele>70</ele>
        <time>2017-09-17T07:27:19.000Z</time>
      </trkpt>
      <trkpt lat="47.63887" lon="1.41345">
        <ele>69</ele>
        <time>2017-09-17T07:27:21.000Z</time>
      </trkpt>
      <trkpt lat="47.6388" lon="1.41342">
        <ele>68</ele>
        <time>2017-09-17T07:27:23.000Z</time>
      </trkpt>
      <trkpt lat="47.63844" lon="1.41306">
        <ele>66</ele>
        <time>2017-09-17T07:27:31.000Z</time>
      </trkpt>
      <trkpt lat="47.6384" lon="1.41299">
        <ele>65</ele>
        <time>2017-09-17T07:27:32.000Z</time>
      </trkpt>
      <trkpt lat="47.63809" lon="1.41255">
        <ele>65</ele>
        <time>2017-09-17T07:27:39.000Z</time>
      </trkpt>
      <trkpt lat="47.63805" lon="1.41251">
        <ele>65</ele>
        <time>2017-09-17T07:27:40.000Z</time>
      </trkpt>
      <trkpt lat="47.638" lon="1.41246">
        <ele>65</ele>
        <time>2017-09-17T07:27:41.000Z</time>
      </trkpt>
      <trkpt lat="47.63765" lon="1.41197">
        <ele>67</ele>
        <time>2017-09-17T07:27:49.000Z</time>
      </trkpt>
      <trkpt lat="47.63762" lon="1.4119">
        <ele>67</ele>
        <time>2017-09-17T07:27:50.000Z</time>
      </trkpt>
      <trkpt lat="47.63758" lon="1.41183">
        <ele>68</ele>
        <time>2017-09-17T07:27:51.000Z</time>
      </trkpt>
      <trkpt lat="47.63723" lon="1.41139">
        <ele>68</ele>
        <time>2017-09-17T07:27:59.000Z</time>
      </trkpt>
      <trkpt lat="47.63719" lon="1.41135">
        <ele>68</ele>
        <time>2017-09-17T07:28:00.000Z</time>
      </trkpt>
      <trkpt lat="47.63696" lon="1.41111">
        <ele>68</ele>
        <time>2017-09-17T07:28:05.000Z</time>
      </trkpt>
      <trkpt lat="47.63683" lon="1.41101">
        <ele>67</ele>
        <time>2017-09-17T07:28:08.000Z</time>
      </trkpt>
      <trkpt lat="47.63665" lon="1.41063">
        <ele>66</ele>
        <time>2017-09-17T07:28:14.000Z</time>
      </trkpt>
      <trkpt lat="47.63659" lon="1.41045">
        <ele>66</ele>
        <time>2017-09-17T07:28:17.000Z</time>
      </trkpt>
      <trkpt lat="47.63636" lon="1.41012">
        <ele>67</ele>
        <time>2017-09-17T07:28:24.000Z</time>
      </trkpt>
      <trkpt lat="47.63603" lon="1.41">
        <ele>67</ele>
        <time>2017-09-17T07:28:30.000Z</time>
      </trkpt>
      <trkpt lat="47.63559" lon="1.40968">
        <ele>67</ele>
        <time>2017-09-17T07:28:38.000Z</time>
      </trkpt>
      <trkpt lat="47.63553" lon="1.40964">
        <ele>67</ele>
        <time>2017-09-17T07:28:39.000Z</time>
      </trkpt>
      <trkpt lat="47.63505" lon="1.40941">
        <ele>67</ele>
        <time>2017-09-17T07:28:47.000Z</time>
      </trkpt>
      <trkpt lat="47.63499" lon="1.40937">
        <ele>67</ele>
        <time>2017-09-17T07:28:48.000Z</time>
      </trkpt>
      <trkpt lat="47.63475" lon="1.40919">
        <ele>67</ele>
        <time>2017-09-17T07:28:53.000Z</time>
      </trkpt>
      <trkpt lat="47.63452" lon="1.40883">
        <ele>67</ele>
        <time>2017-09-17T07:28:59.000Z</time>
      </trkpt>
      <trkpt lat="47.63437" lon="1.40883">
        <ele>67</ele>
        <time>2017-09-17T07:29:02.000Z</time>
      </trkpt>
      <trkpt lat="47.6343" lon="1.40883">
        <ele>68</ele>
        <time>2017-09-17T07:29:05.000Z</time>
      </trkpt>
      <trkpt lat="47.63408" lon="1.40875">
        <ele>68</ele>
        <time>2017-09-17T07:29:12.000Z</time>
      </trkpt>
      <trkpt lat="47.63372" lon="1.40834">
        <ele>70</ele>
        <time>2017-09-17T07:29:23.000Z</time>
      </trkpt>
      <trkpt lat="47.63367" lon="1.40829">
        <ele>70</ele>
        <time>2017-09-17T07:29:24.000Z</time>
      </trkpt>
      <trkpt lat="47.63341" lon="1.40796">
        <ele>70</ele>
        <time>2017-09-17T07:29:30.000Z</time>
      </trkpt>
      <trkpt lat="47.63317" lon="1.40754">
        <ele>68</ele>
        <time>2017-09-17T07:29:36.000Z</time>
      </trkpt>
      <trkpt lat="47.63276" lon="1.40715">
        <ele>65</ele>
        <time>2017-09-17T07:29:44.000Z</time>
      </trkpt>
      <trkpt lat="47.63271" lon="1.4071">
        <ele>65</ele>
        <time>2017-09-17T07:29:45.000Z</time>
      </trkpt>
      <trkpt lat="47.63253" lon="1.40682">
        <ele>64</ele>
        <time>2017-09-17T07:29:49.000Z</time>
      </trkpt>
      <trkpt lat="47.63239" lon="1.40663">
        <ele>64</ele>
        <time>2017-09-17T07:29:52.000Z</time>
      </trkpt>
      <trkpt lat="47.63224" lon="1.40636">
        <ele>64</ele>
        <time>2017-09-17T07:29:56.000Z</time>
      </trkpt>
      <trkpt lat="47.63202" lon="1.40576">
        <ele>65</ele>
        <time>2017-09-17T07:30:05.000Z</time>
      </trkpt>
      <trkpt lat="47.63199" lon="1.40568">
        <ele>66</ele>
        <time>2017-09-17T07:30:06.000Z</time>
      </trkpt>
      <trkpt lat="47.63184" lon="1.40546">
        <ele>68</ele>
        <time>2017-09-17T07:30:10.000Z</time>
      </trkpt>
      <trkpt lat="47.6317" lon="1.40529">
        <ele>69</ele>
        <time>2017-09-17T07:30:13.000Z</time>
      </trkpt>
      <trkpt lat="47.63139" lon="1.40476">
        <ele>72</ele>
        <time>2017-09-17T07:30:21.000Z</time>
      </trkpt>
      <trkpt lat="47.63137" lon="1.40469">
        <ele>72</ele>
        <time>2017-09-17T07:30:22.000Z</time>
      </trkpt>
      <trkpt lat="47.63122" lon="1.40426">
        <ele>74</ele>
        <time>2017-09-17T07:30:28.000Z</time>
      </trkpt>
      <trkpt lat="47.63119" lon="1.40401">
        <ele>75</ele>
        <time>2017-09-17T07:30:31.000Z</time>
      </trkpt>
      <trkpt lat="47.63114" lon="1.40375">
        <ele>74</ele>
        <time>2017-09-17T07:30:34.000Z</time>
      </trkpt>
      <trkpt lat="47.631" lon="1.40325">
        <ele>72</ele>
        <time>2017-09-17T07:30:40.000Z</time>
      </trkpt>
      <trkpt lat="47.63064" lon="1.40279">
        <ele>70</ele>
        <time>2017-09-17T07:30:49.000Z</time>
      </trkpt>
      <trkpt lat="47.63059" lon="1.40276">
        <ele>69</ele>
        <time>2017-09-17T07:30:50.000Z</time>
      </trkpt>
      <trkpt lat="47.63055" lon="1.40271">
        <ele>69</ele>
        <time>2017-09-17T07:30:51.000Z</time>
      </trkpt>
      <trkpt lat="47.63049" lon="1.40258">
        <ele>69</ele>
        <time>2017-09-17T07:30:53.000Z</time>
      </trkpt>
      <trkpt lat="47.63041" lon="1.40228">
        <ele>67</ele>
        <time>2017-09-17T07:30:57.000Z</time>
      </trkpt>
      <trkpt lat="47.63015" lon="1.40173">
        <ele>66</ele>
        <time>2017-09-17T07:31:05.000Z</time>
      </trkpt>
      <trkpt lat="47.63012" lon="1.40166">
        <ele>65</ele>
        <time>2017-09-17T07:31:06.000Z</time>
      </trkpt>
      <trkpt lat="47.62989" lon="1.40106">
        <ele>66</ele>
        <time>2017-09-17T07:31:15.000Z</time>
      </trkpt>
      <trkpt lat="47.62986" lon="1.401">
        <ele>66</ele>
        <time>2017-09-17T07:31:16.000Z</time>
      </trkpt>
      <trkpt lat="47.62959" lon="1.40037">
        <ele>71</ele>
        <time>2017-09-17T07:31:27.000Z</time>
      </trkpt>
      <trkpt lat="47.62957" lon="1.40032">
        <ele>72</ele>
        <time>2017-09-17T07:31:28.000Z</time>
      </trkpt>
      <trkpt lat="47.62955" lon="1.40027">
        <ele>72</ele>
        <time>2017-09-17T07:31:29.000Z</time>
      </trkpt>
      <trkpt lat="47.62943" lon="1.40015">
        <ele>73</ele>
        <time>2017-09-17T07:31:32.000Z</time>
      </trkpt>
      <trkpt lat="47.62897" lon="1.39989">
        <ele>72</ele>
        <time>2017-09-17T07:31:41.000Z</time>
      </trkpt>
      <trkpt lat="47.62892" lon="1.39985">
        <ele>72</ele>
        <time>2017-09-17T07:31:42.000Z</time>
      </trkpt>
      <trkpt lat="47.62887" lon="1.3998">
        <ele>72</ele>
        <time>2017-09-17T07:31:43.000Z</time>
      </trkpt>
      <trkpt lat="47.62848" lon="1.39933">
        <ele>72</ele>
        <time>2017-09-17T07:31:52.000Z</time>
      </trkpt>
      <trkpt lat="47.62844" lon="1.39926">
        <ele>72</ele>
        <time>2017-09-17T07:31:53.000Z</time>
      </trkpt>
      <trkpt lat="47.6281" lon="1.39874">
        <ele>72</ele>
        <time>2017-09-17T07:32:01.000Z</time>
      </trkpt>
      <trkpt lat="47.62806" lon="1.39867">
        <ele>72</ele>
        <time>2017-09-17T07:32:02.000Z</time>
      </trkpt>
      <trkpt lat="47.62778" lon="1.39829">
        <ele>72</ele>
        <time>2017-09-17T07:32:08.000Z</time>
      </trkpt>
      <trkpt lat="47.62742" lon="1.39787">
        <ele>72</ele>
        <time>2017-09-17T07:32:15.000Z</time>
      </trkpt>
      <trkpt lat="47.62737" lon="1.39781">
        <ele>72</ele>
        <time>2017-09-17T07:32:16.000Z</time>
      </trkpt>
      <trkpt lat="47.62698" lon="1.39736">
        <ele>73</ele>
        <time>2017-09-17T07:32:24.000Z</time>
      </trkpt>
      <trkpt lat="47.62693" lon="1.3973">
        <ele>73</ele>
        <time>2017-09-17T07:32:25.000Z</time>
      </trkpt>
      <trkpt lat="47.62656" lon="1.3969">
        <ele>72</ele>
        <time>2017-09-17T07:32:32.000Z</time>
      </trkpt>
      <trkpt lat="47.62651" lon="1.39684">
        <ele>72</ele>
        <time>2017-09-17T07:32:33.000Z</time>
      </trkpt>
      <trkpt lat="47.62612" lon="1.39647">
        <ele>72</ele>
        <time>2017-09-17T07:32:40.000Z</time>
      </trkpt>
      <trkpt lat="47.62607" lon="1.39641">
        <ele>72</ele>
        <time>2017-09-17T07:32:41.000Z</time>
      </trkpt>
      <trkpt lat="47.6257" lon="1.39598">
        <ele>71</ele>
        <time>2017-09-17T07:32:48.000Z</time>
      </trkpt>
      <trkpt lat="47.62565" lon="1.39591">
        <ele>70</ele>
        <time>2017-09-17T07:32:49.000Z</time>
      </trkpt>
      <trkpt lat="47.62533" lon="1.39543">
        <ele>69</ele>
        <time>2017-09-17T07:32:56.000Z</time>
      </trkpt>
      <trkpt lat="47.62529" lon="1.39537">
        <ele>68</ele>
        <time>2017-09-17T07:32:57.000Z</time>
      </trkpt>
      <trkpt lat="47.62495" lon="1.39486">
        <ele>69</ele>
        <time>2017-09-17T07:33:05.000Z</time>
      </trkpt>
      <trkpt lat="47.62491" lon="1.39479">
        <ele>69</ele>
        <time>2017-09-17T07:33:06.000Z</time>
      </trkpt>
      <trkpt lat="47.62455" lon="1.39438">
        <ele>71</ele>
        <time>2017-09-17T07:33:13.000Z</time>
      </trkpt>
      <trkpt lat="47.6245" lon="1.39433">
        <ele>71</ele>
        <time>2017-09-17T07:33:14.000Z</time>
      </trkpt>
      <trkpt lat="47.62412" lon="1.39383">
        <ele>71</ele>
        <time>2017-09-17T07:33:22.000Z</time>
      </trkpt>
      <trkpt lat="47.62408" lon="1.39376">
        <ele>71</ele>
        <time>2017-09-17T07:33:23.000Z</time>
      </trkpt>
      <trkpt lat="47.62375" lon="1.39321">
        <ele>70</ele>
        <time>2017-09-17T07:33:31.000Z</time>
      </trkpt>
      <trkpt lat="47.62371" lon="1.39314">
        <ele>70</ele>
        <time>2017-09-17T07:33:32.000Z</time>
      </trkpt>
      <trkpt lat="47.62339" lon="1.39265">
        <ele>69</ele>
        <time>2017-09-17T07:33:39.000Z</time>
      </trkpt>
      <trkpt lat="47.62335" lon="1.39258">
        <ele>69</ele>
        <time>2017-09-17T07:33:40.000Z</time>
      </trkpt>
      <trkpt lat="47.62302" lon="1.39211">
        <ele>68</ele>
        <time>2017-09-17T07:33:47.000Z</time>
      </trkpt>
      <trkpt lat="47.62298" lon="1.39204">
        <ele>68</ele>
        <time>2017-09-17T07:33:48.000Z</time>
      </trkpt>
      <trkpt lat="47.62267" lon="1.39153">
        <ele>68</ele>
        <time>2017-09-17T07:33:55.000Z</time>
      </trkpt>
      <trkpt lat="47.62262" lon="1.39145">
        <ele>67</ele>
        <time>2017-09-17T07:33:56.000Z</time>
      </trkpt>
      <trkpt lat="47.62253" lon="1.39129">
        <ele>67</ele>
        <time>2017-09-17T07:33:58.000Z</time>
      </trkpt>
      <trkpt lat="47.6222" lon="1.39071">
        <ele>67</ele>
        <time>2017-09-17T07:34:05.000Z</time>
      </trkpt>
      <trkpt lat="47.62215" lon="1.39062">
        <ele>68</ele>
        <time>2017-09-17T07:34:06.000Z</time>
      </trkpt>
      <trkpt lat="47.62181" lon="1.39006">
        <ele>68</ele>
        <time>2017-09-17T07:34:13.000Z</time>
      </trkpt>
      <trkpt lat="47.62176" lon="1.38998">
        <ele>68</ele>
        <time>2017-09-17T07:34:14.000Z</time>
      </trkpt>
      <trkpt lat="47.62161" lon="1.38978">
        <ele>69</ele>
        <time>2017-09-17T07:34:17.000Z</time>
      </trkpt>
      <trkpt lat="47.62125" lon="1.38926">
        <ele>70</ele>
        <time>2017-09-17T07:34:25.000Z</time>
      </trkpt>
      <trkpt lat="47.62121" lon="1.3892">
        <ele>70</ele>
        <time>2017-09-17T07:34:26.000Z</time>
      </trkpt>
      <trkpt lat="47.62088" lon="1.38867">
        <ele>69</ele>
        <time>2017-09-17T07:34:34.000Z</time>
      </trkpt>
      <trkpt lat="47.62085" lon="1.38861">
        <ele>69</ele>
        <time>2017-09-17T07:34:35.000Z</time>
      </trkpt>
      <trkpt lat="47.62067" lon="1.38826">
        <ele>69</ele>
        <time>2017-09-17T07:34:40.000Z</time>
      </trkpt>
      <trkpt lat="47.62039" lon="1.38768">
        <ele>68</ele>
        <time>2017-09-17T07:34:48.000Z</time>
      </trkpt>
      <trkpt lat="47.62036" lon="1.3876">
        <ele>68</ele>
        <time>2017-09-17T07:34:49.000Z</time>
      </trkpt>
      <trkpt lat="47.62008" lon="1.38701">
        <ele>66</ele>
        <time>2017-09-17T07:34:57.000Z</time>
      </trkpt>
      <trkpt lat="47.62004" lon="1.38693">
        <ele>66</ele>
        <time>2017-09-17T07:34:58.000Z</time>
      </trkpt>
      <trkpt lat="47.61977" lon="1.38638">
        <ele>65</ele>
        <time>2017-09-17T07:35:05.000Z</time>
      </trkpt>
      <trkpt lat="47.61973" lon="1.3863">
        <ele>66</ele>
        <time>2017-09-17T07:35:06.000Z</time>
      </trkpt>
      <trkpt lat="47.61945" lon="1.38573">
        <ele>65</ele>
        <time>2017-09-17T07:35:14.000Z</time>
      </trkpt>
      <trkpt lat="47.61942" lon="1.38566">
        <ele>65</ele>
        <time>2017-09-17T07:35:15.000Z</time>
      </trkpt>
      <trkpt lat="47.61916" lon="1.38511">
        <ele>65</ele>
        <time>2017-09-17T07:35:23.000Z</time>
      </trkpt>
      <trkpt lat="47.61912" lon="1.38504">
        <ele>65</ele>
        <time>2017-09-17T07:35:24.000Z</time>
      </trkpt>
      <trkpt lat="47.61883" lon="1.38446">
        <ele>66</ele>
        <time>2017-09-17T07:35:32.000Z</time>
      </trkpt>
      <trkpt lat="47.6188" lon="1.38439">
        <ele>66</ele>
        <time>2017-09-17T07:35:33.000Z</time>
      </trkpt>
      <trkpt lat="47.61851" lon="1.38384">
        <ele>67</ele>
        <time>2017-09-17T07:35:41.000Z</time>
      </trkpt>
      <trkpt lat="47.61847" lon="1.38377">
        <ele>67</ele>
        <time>2017-09-17T07:35:42.000Z</time>
      </trkpt>
      <trkpt lat="47.61819" lon="1.38319">
        <ele>68</ele>
        <time>2017-09-17T07:35:50.000Z</time>
      </trkpt>
      <trkpt lat="47.61816" lon="1.38312">
        <ele>68</ele>
        <time>2017-09-17T07:35:51.000Z</time>
      </trkpt>
      <trkpt lat="47.61793" lon="1.38253">
        <ele>67</ele>
        <time>2017-09-17T07:35:59.000Z</time>
      </trkpt>
      <trkpt lat="47.61789" lon="1.38246">
        <ele>66</ele>
        <time>2017-09-17T07:36:00.000Z</time>
      </trkpt>
      <trkpt lat="47.61767" lon="1.38187">
        <ele>65</ele>
        <time>2017-09-17T07:36:08.000Z</time>
      </trkpt>
      <trkpt lat="47.61764" lon="1.3818">
        <ele>64</ele>
        <time>2017-09-17T07:36:09.000Z</time>
      </trkpt>
      <trkpt lat="47.61738" lon="1.38117">
        <ele>63</ele>
        <time>2017-09-17T07:36:18.000Z</time>
      </trkpt>
      <trkpt lat="47.61735" lon="1.3811">
        <ele>63</ele>
        <time>2017-09-17T07:36:19.000Z</time>
      </trkpt>
      <trkpt lat="47.61708" lon="1.38045">
        <ele>62</ele>
        <time>2017-09-17T07:36:28.000Z</time>
      </trkpt>
      <trkpt lat="47.61705" lon="1.38038">
        <ele>62</ele>
        <time>2017-09-17T07:36:29.000Z</time>
      </trkpt>
      <trkpt lat="47.61681" lon="1.3798">
        <ele>64</ele>
        <time>2017-09-17T07:36:37.000Z</time>
      </trkpt>
      <trkpt lat="47.61678" lon="1.37972">
        <ele>64</ele>
        <time>2017-09-17T07:36:38.000Z</time>
      </trkpt>
      <trkpt lat="47.61656" lon="1.37912">
        <ele>64</ele>
        <time>2017-09-17T07:36:46.000Z</time>
      </trkpt>
      <trkpt lat="47.61654" lon="1.37903">
        <ele>64</ele>
        <time>2017-09-17T07:36:47.000Z</time>
      </trkpt>
      <trkpt lat="47.61634" lon="1.37843">
        <ele>64</ele>
        <time>2017-09-17T07:36:55.000Z</time>
      </trkpt>
      <trkpt lat="47.6163" lon="1.37836">
        <ele>65</ele>
        <time>2017-09-17T07:36:56.000Z</time>
      </trkpt>
      <trkpt lat="47.61599" lon="1.37789">
        <ele>66</ele>
        <time>2017-09-17T07:37:04.000Z</time>
      </trkpt>
      <trkpt lat="47.61595" lon="1.37784">
        <ele>67</ele>
        <time>2017-09-17T07:37:05.000Z</time>
      </trkpt>
      <trkpt lat="47.61561" lon="1.37736">
        <ele>70</ele>
        <time>2017-09-17T07:37:13.000Z</time>
      </trkpt>
      <trkpt lat="47.61558" lon="1.3773">
        <ele>70</ele>
        <time>2017-09-17T07:37:14.000Z</time>
      </trkpt>
      <trkpt lat="47.6153" lon="1.37673">
        <ele>74</ele>
        <time>2017-09-17T07:37:23.000Z</time>
      </trkpt>
      <trkpt lat="47.61525" lon="1.37667">
        <ele>75</ele>
        <time>2017-09-17T07:37:24.000Z</time>
      </trkpt>
      <trkpt lat="47.61488" lon="1.37619">
        <ele>76</ele>
        <time>2017-09-17T07:37:32.000Z</time>
      </trkpt>
      <trkpt lat="47.61483" lon="1.37613">
        <ele>76</ele>
        <time>2017-09-17T07:37:33.000Z</time>
      </trkpt>
      <trkpt lat="47.61448" lon="1.37563">
        <ele>74</ele>
        <time>2017-09-17T07:37:41.000Z</time>
      </trkpt>
      <trkpt lat="47.61443" lon="1.37556">
        <ele>74</ele>
        <time>2017-09-17T07:37:42.000Z</time>
      </trkpt>
      <trkpt lat="47.61408" lon="1.37505">
        <ele>74</ele>
        <time>2017-09-17T07:37:50.000Z</time>
      </trkpt>
      <trkpt lat="47.61404" lon="1.37499">
        <ele>74</ele>
        <time>2017-09-17T07:37:51.000Z</time>
      </trkpt>
      <trkpt lat="47.61363" lon="1.37462">
        <ele>72</ele>
        <time>2017-09-17T07:37:59.000Z</time>
      </trkpt>
      <trkpt lat="47.61358" lon="1.37457">
        <ele>72</ele>
        <time>2017-09-17T07:38:00.000Z</time>
      </trkpt>
      <trkpt lat="47.6132" lon="1.37408">
        <ele>72</ele>
        <time>2017-09-17T07:38:08.000Z</time>
      </trkpt>
      <trkpt lat="47.61316" lon="1.37401">
        <ele>72</ele>
        <time>2017-09-17T07:38:09.000Z</time>
      </trkpt>
      <trkpt lat="47.6128" lon="1.37349">
        <ele>71</ele>
        <time>2017-09-17T07:38:17.000Z</time>
      </trkpt>
      <trkpt lat="47.61275" lon="1.37343">
        <ele>71</ele>
        <time>2017-09-17T07:38:18.000Z</time>
      </trkpt>
      <trkpt lat="47.61237" lon="1.37294">
        <ele>69</ele>
        <time>2017-09-17T07:38:26.000Z</time>
      </trkpt>
      <trkpt lat="47.61231" lon="1.37289">
        <ele>69</ele>
        <time>2017-09-17T07:38:27.000Z</time>
      </trkpt>
      <trkpt lat="47.61187" lon="1.37251">
        <ele>70</ele>
        <time>2017-09-17T07:38:35.000Z</time>
      </trkpt>
      <trkpt lat="47.61181" lon="1.37246">
        <ele>70</ele>
        <time>2017-09-17T07:38:36.000Z</time>
      </trkpt>
      <trkpt lat="47.61138" lon="1.37208">
        <ele>70</ele>
        <time>2017-09-17T07:38:44.000Z</time>
      </trkpt>
      <trkpt lat="47.61133" lon="1.37204">
        <ele>70</ele>
        <time>2017-09-17T07:38:45.000Z</time>
      </trkpt>
      <trkpt lat="47.61098" lon="1.3718">
        <ele>70</ele>
        <time>2017-09-17T07:38:51.000Z</time>
      </trkpt>
      <trkpt lat="47.61053" lon="1.37157">
        <ele>69</ele>
        <time>2017-09-17T07:38:58.000Z</time>
      </trkpt>
      <trkpt lat="47.61047" lon="1.37154">
        <ele>69</ele>
        <time>2017-09-17T07:38:59.000Z</time>
      </trkpt>
      <trkpt lat="47.61" lon="1.37132">
        <ele>70</ele>
        <time>2017-09-17T07:39:06.000Z</time>
      </trkpt>
      <trkpt lat="47.60994" lon="1.37129">
        <ele>70</ele>
        <time>2017-09-17T07:39:07.000Z</time>
      </trkpt>
      <trkpt lat="47.60947" lon="1.37104">
        <ele>69</ele>
        <time>2017-09-17T07:39:15.000Z</time>
      </trkpt>
      <trkpt lat="47.60942" lon="1.37101">
        <ele>69</ele>
        <time>2017-09-17T07:39:16.000Z</time>
      </trkpt>
      <trkpt lat="47.60898" lon="1.37074">
        <ele>69</ele>
        <time>2017-09-17T07:39:24.000Z</time>
      </trkpt>
      <trkpt lat="47.60893" lon="1.3707">
        <ele>69</ele>
        <time>2017-09-17T07:39:25.000Z</time>
      </trkpt>
      <trkpt lat="47.60849" lon="1.37042">
        <ele>68</ele>
        <time>2017-09-17T07:39:33.000Z</time>
      </trkpt>
      <trkpt lat="47.60843" lon="1.37039">
        <ele>68</ele>
        <time>2017-09-17T07:39:34.000Z</time>
      </trkpt>
      <trkpt lat="47.60797" lon="1.37019">
        <ele>67</ele>
        <time>2017-09-17T07:39:42.000Z</time>
      </trkpt>
      <trkpt lat="47.60791" lon="1.37017">
        <ele>67</ele>
        <time>2017-09-17T07:39:43.000Z</time>
      </trkpt>
      <trkpt lat="47.60744" lon="1.37001">
        <ele>66</ele>
        <time>2017-09-17T07:39:51.000Z</time>
      </trkpt>
      <trkpt lat="47.60739" lon="1.36999">
        <ele>66</ele>
        <time>2017-09-17T07:39:52.000Z</time>
      </trkpt>
      <trkpt lat="47.60694" lon="1.36988">
        <ele>66</ele>
        <time>2017-09-17T07:39:59.000Z</time>
      </trkpt>
      <trkpt lat="47.60687" lon="1.36986">
        <ele>66</ele>
        <time>2017-09-17T07:40:00.000Z</time>
      </trkpt>
      <trkpt lat="47.6064" lon="1.36969">
        <ele>66</ele>
        <time>2017-09-17T07:40:07.000Z</time>
      </trkpt>
      <trkpt lat="47.60633" lon="1.36968">
        <ele>66</ele>
        <time>2017-09-17T07:40:08.000Z</time>
      </trkpt>
      <trkpt lat="47.60583" lon="1.36952">
        <ele>65</ele>
        <time>2017-09-17T07:40:15.000Z</time>
      </trkpt>
      <trkpt lat="47.60577" lon="1.36949">
        <ele>65</ele>
        <time>2017-09-17T07:40:16.000Z</time>
      </trkpt>
      <trkpt lat="47.60564" lon="1.36942">
        <ele>65</ele>
        <time>2017-09-17T07:40:18.000Z</time>
      </trkpt>
      <trkpt lat="47.60521" lon="1.36907">
        <ele>66</ele>
        <time>2017-09-17T07:40:25.000Z</time>
      </trkpt>
      <trkpt lat="47.60515" lon="1.36902">
        <ele>66</ele>
        <time>2017-09-17T07:40:26.000Z</time>
      </trkpt>
      <trkpt lat="47.60491" lon="1.3688">
        <ele>66</ele>
        <time>2017-09-17T07:40:30.000Z</time>
      </trkpt>
      <trkpt lat="47.60455" lon="1.36834">
        <ele>66</ele>
        <time>2017-09-17T07:40:37.000Z</time>
      </trkpt>
      <trkpt lat="47.6045" lon="1.36828">
        <ele>66</ele>
        <time>2017-09-17T07:40:38.000Z</time>
      </trkpt>
      <trkpt lat="47.60412" lon="1.36781">
        <ele>66</ele>
        <time>2017-09-17T07:40:46.000Z</time>
      </trkpt>
      <trkpt lat="47.60407" lon="1.36775">
        <ele>67</ele>
        <time>2017-09-17T07:40:47.000Z</time>
      </trkpt>
      <trkpt lat="47.60373" lon="1.36731">
        <ele>67</ele>
        <time>2017-09-17T07:40:54.000Z</time>
      </trkpt>
      <trkpt lat="47.60368" lon="1.36724">
        <ele>67</ele>
        <time>2017-09-17T07:40:55.000Z</time>
      </trkpt>
      <trkpt lat="47.60329" lon="1.36685">
        <ele>68</ele>
        <time>2017-09-17T07:41:02.000Z</time>
      </trkpt>
      <trkpt lat="47.60324" lon="1.3668">
        <ele>67</ele>
        <time>2017-09-17T07:41:03.000Z</time>
      </trkpt>
      <trkpt lat="47.60286" lon="1.36639">
        <ele>67</ele>
        <time>2017-09-17T07:41:11.000Z</time>
      </trkpt>
      <trkpt lat="47.60281" lon="1.36634">
        <ele>67</ele>
        <time>2017-09-17T07:41:12.000Z</time>
      </trkpt>
      <trkpt lat="47.60241" lon="1.3659">
        <ele>67</ele>
        <time>2017-09-17T07:41:21.000Z</time>
      </trkpt>
      <trkpt lat="47.60237" lon="1.36586">
        <ele>67</ele>
        <time>2017-09-17T07:41:22.000Z</time>
      </trkpt>
      <trkpt lat="47.60207" lon="1.36548">
        <ele>67</ele>
        <time>2017-09-17T07:41:37.000Z</time>
      </trkpt>
      <trkpt lat="47.60199" lon="1.36532">
        <ele>67</ele>
        <time>2017-09-17T07:41:41.000Z</time>
      </trkpt>
      <trkpt lat="47.60188" lon="1.36518">
        <ele>67</ele>
        <time>2017-09-17T07:41:44.000Z</time>
      </trkpt>
      <trkpt lat="47.60152" lon="1.36475">
        <ele>67</ele>
        <time>2017-09-17T07:41:51.000Z</time>
      </trkpt>
      <trkpt lat="47.60147" lon="1.36468">
        <ele>67</ele>
        <time>2017-09-17T07:41:52.000Z</time>
      </trkpt>
      <trkpt lat="47.60113" lon="1.3642">
        <ele>67</ele>
        <time>2017-09-17T07:41:59.000Z</time>
      </trkpt>
      <trkpt lat="47.60108" lon="1.36413">
        <ele>67</ele>
        <time>2017-09-17T07:42:00.000Z</time>
      </trkpt>
      <trkpt lat="47.60071" lon="1.36362">
        <ele>68</ele>
        <time>2017-09-17T07:42:08.000Z</time>
      </trkpt>
      <trkpt lat="47.60067" lon="1.36355">
        <ele>68</ele>
        <time>2017-09-17T07:42:09.000Z</time>
      </trkpt>
      <trkpt lat="47.60029" lon="1.3631">
        <ele>67</ele>
        <time>2017-09-17T07:42:17.000Z</time>
      </trkpt>
      <trkpt lat="47.60024" lon="1.36304">
        <ele>67</ele>
        <time>2017-09-17T07:42:18.000Z</time>
      </trkpt>
      <trkpt lat="47.59987" lon="1.36256">
        <ele>67</ele>
        <time>2017-09-17T07:42:26.000Z</time>
      </trkpt>
      <trkpt lat="47.59983" lon="1.3625">
        <ele>67</ele>
        <time>2017-09-17T07:42:27.000Z</time>
      </trkpt>
      <trkpt lat="47.59949" lon="1.36194">
        <ele>66</ele>
        <time>2017-09-17T07:42:35.000Z</time>
      </trkpt>
      <trkpt lat="47.59946" lon="1.36187">
        <ele>66</ele>
        <time>2017-09-17T07:42:36.000Z</time>
      </trkpt>
      <trkpt lat="47.59915" lon="1.36132">
        <ele>66</ele>
        <time>2017-09-17T07:42:44.000Z</time>
      </trkpt>
      <trkpt lat="47.59911" lon="1.36126">
        <ele>66</ele>
        <time>2017-09-17T07:42:45.000Z</time>
      </trkpt>
      <trkpt lat="47.59881" lon="1.36073">
        <ele>66</ele>
        <time>2017-09-17T07:42:53.000Z</time>
      </trkpt>
      <trkpt lat="47.59877" lon="1.36067">
        <ele>66</ele>
        <time>2017-09-17T07:42:54.000Z</time>
      </trkpt>
      <trkpt lat="47.59859" lon="1.36033">
        <ele>66</ele>
        <time>2017-09-17T07:42:59.000Z</time>
      </trkpt>
      <trkpt lat="47.59829" lon="1.35976">
        <ele>67</ele>
        <time>2017-09-17T07:43:08.000Z</time>
      </trkpt>
      <trkpt lat="47.59826" lon="1.3597">
        <ele>67</ele>
        <time>2017-09-17T07:43:09.000Z</time>
      </trkpt>
      <trkpt lat="47.59794" lon="1.35916">
        <ele>67</ele>
        <time>2017-09-17T07:43:18.000Z</time>
      </trkpt>
      <trkpt lat="47.5979" lon="1.3591">
        <ele>67</ele>
        <time>2017-09-17T07:43:19.000Z</time>
      </trkpt>
      <trkpt lat="47.59758" lon="1.35853">
        <ele>67</ele>
        <time>2017-09-17T07:43:28.000Z</time>
      </trkpt>
      <trkpt lat="47.59754" lon="1.35846">
        <ele>67</ele>
        <time>2017-09-17T07:43:29.000Z</time>
      </trkpt>
      <trkpt lat="47.59735" lon="1.35814">
        <ele>67</ele>
        <time>2017-09-17T07:43:34.000Z</time>
      </trkpt>
      <trkpt lat="47.59722" lon="1.35788">
        <ele>67</ele>
        <time>2017-09-17T07:43:38.000Z</time>
      </trkpt>
      <trkpt lat="47.59695" lon="1.35727">
        <ele>68</ele>
        <time>2017-09-17T07:43:47.000Z</time>
      </trkpt>
      <trkpt lat="47.59691" lon="1.35721">
        <ele>68</ele>
        <time>2017-09-17T07:43:48.000Z</time>
      </trkpt>
      <trkpt lat="47.59662" lon="1.35661">
        <ele>69</ele>
        <time>2017-09-17T07:43:57.000Z</time>
      </trkpt>
      <trkpt lat="47.59659" lon="1.35654">
        <ele>69</ele>
        <time>2017-09-17T07:43:58.000Z</time>
      </trkpt>
      <trkpt lat="47.5963" lon="1.35594">
        <ele>71</ele>
        <time>2017-09-17T07:44:07.000Z</time>
      </trkpt>
      <trkpt lat="47.59626" lon="1.35588">
        <ele>71</ele>
        <time>2017-09-17T07:44:08.000Z</time>
      </trkpt>
      <trkpt lat="47.59616" lon="1.35568">
        <ele>71</ele>
        <time>2017-09-17T07:44:11.000Z</time>
      </trkpt>
      <trkpt lat="47.59583" lon="1.35512">
        <ele>70</ele>
        <time>2017-09-17T07:44:20.000Z</time>
      </trkpt>
      <trkpt lat="47.59579" lon="1.35506">
        <ele>70</ele>
        <time>2017-09-17T07:44:21.000Z</time>
      </trkpt>
      <trkpt lat="47.59545" lon="1.35452">
        <ele>70</ele>
        <time>2017-09-17T07:44:30.000Z</time>
      </trkpt>
      <trkpt lat="47.59541" lon="1.35446">
        <ele>70</ele>
        <time>2017-09-17T07:44:31.000Z</time>
      </trkpt>
      <trkpt lat="47.59508" lon="1.3539">
        <ele>69</ele>
        <time>2017-09-17T07:44:40.000Z</time>
      </trkpt>
      <trkpt lat="47.59504" lon="1.35384">
        <ele>69</ele>
        <time>2017-09-17T07:44:41.000Z</time>
      </trkpt>
      <trkpt lat="47.59475" lon="1.35331">
        <ele>69</ele>
        <time>2017-09-17T07:44:49.000Z</time>
      </trkpt>
      <trkpt lat="47.59472" lon="1.35325">
        <ele>69</ele>
        <time>2017-09-17T07:44:50.000Z</time>
      </trkpt>
      <trkpt lat="47.5944" lon="1.35268">
        <ele>67</ele>
        <time>2017-09-17T07:45:00.000Z</time>
      </trkpt>
      <trkpt lat="47.59436" lon="1.35262">
        <ele>67</ele>
        <time>2017-09-17T07:45:01.000Z</time>
      </trkpt>
      <trkpt lat="47.59406" lon="1.35207">
        <ele>67</ele>
        <time>2017-09-17T07:45:10.000Z</time>
      </trkpt>
      <trkpt lat="47.59403" lon="1.35201">
        <ele>67</ele>
        <time>2017-09-17T07:45:11.000Z</time>
      </trkpt>
      <trkpt lat="47.59374" lon="1.35146">
        <ele>67</ele>
        <time>2017-09-17T07:45:20.000Z</time>
      </trkpt>
      <trkpt lat="47.5937" lon="1.3514">
        <ele>67</ele>
        <time>2017-09-17T07:45:21.000Z</time>
      </trkpt>
      <trkpt lat="47.59352" lon="1.35102">
        <ele>67</ele>
        <time>2017-09-17T07:45:27.000Z</time>
      </trkpt>
      <trkpt lat="47.59335" lon="1.35036">
        <ele>67</ele>
        <time>2017-09-17T07:45:36.000Z</time>
      </trkpt>
      <trkpt lat="47.59333" lon="1.35029">
        <ele>67</ele>
        <time>2017-09-17T07:45:37.000Z</time>
      </trkpt>
      <trkpt lat="47.5931" lon="1.34967">
        <ele>69</ele>
        <time>2017-09-17T07:45:47.000Z</time>
      </trkpt>
      <trkpt lat="47.59307" lon="1.34962">
        <ele>70</ele>
        <time>2017-09-17T07:45:48.000Z</time>
      </trkpt>
      <trkpt lat="47.59299" lon="1.34945">
        <ele>70</ele>
        <time>2017-09-17T07:45:51.000Z</time>
      </trkpt>
      <trkpt lat="47.59273" lon="1.34889">
        <ele>69</ele>
        <time>2017-09-17T07:45:59.000Z</time>
      </trkpt>
      <trkpt lat="47.59271" lon="1.34881">
        <ele>69</ele>
        <time>2017-09-17T07:46:00.000Z</time>
      </trkpt>
      <trkpt lat="47.59256" lon="1.3481">
        <ele>68</ele>
        <time>2017-09-17T07:46:09.000Z</time>
      </trkpt>
      <trkpt lat="47.59253" lon="1.34802">
        <ele>68</ele>
        <time>2017-09-17T07:46:10.000Z</time>
      </trkpt>
      <trkpt lat="47.59251" lon="1.34794">
        <ele>68</ele>
        <time>2017-09-17T07:46:11.000Z</time>
      </trkpt>
      <trkpt lat="47.59229" lon="1.34731">
        <ele>66</ele>
        <time>2017-09-17T07:46:20.000Z</time>
      </trkpt>
      <trkpt lat="47.59227" lon="1.34724">
        <ele>66</ele>
        <time>2017-09-17T07:46:21.000Z</time>
      </trkpt>
      <trkpt lat="47.59204" lon="1.34662">
        <ele>66</ele>
        <time>2017-09-17T07:46:30.000Z</time>
      </trkpt>
      <trkpt lat="47.59202" lon="1.34655">
        <ele>66</ele>
        <time>2017-09-17T07:46:31.000Z</time>
      </trkpt>
      <trkpt lat="47.59175" lon="1.34594">
        <ele>66</ele>
        <time>2017-09-17T07:46:40.000Z</time>
      </trkpt>
      <trkpt lat="47.59172" lon="1.34587">
        <ele>66</ele>
        <time>2017-09-17T07:46:41.000Z</time>
      </trkpt>
      <trkpt lat="47.59166" lon="1.34574">
        <ele>66</ele>
        <time>2017-09-17T07:46:43.000Z</time>
      </trkpt>
      <trkpt lat="47.59139" lon="1.34518">
        <ele>66</ele>
        <time>2017-09-17T07:46:52.000Z</time>
      </trkpt>
      <trkpt lat="47.59136" lon="1.34512">
        <ele>66</ele>
        <time>2017-09-17T07:46:53.000Z</time>
      </trkpt>
      <trkpt lat="47.59109" lon="1.34457">
        <ele>66</ele>
        <time>2017-09-17T07:47:02.000Z</time>
      </trkpt>
      <trkpt lat="47.59106" lon="1.34451">
        <ele>66</ele>
        <time>2017-09-17T07:47:03.000Z</time>
      </trkpt>
      <trkpt lat="47.59078" lon="1.34395">
        <ele>65</ele>
        <time>2017-09-17T07:47:12.000Z</time>
      </trkpt>
      <trkpt lat="47.59074" lon="1.34389">
        <ele>65</ele>
        <time>2017-09-17T07:47:13.000Z</time>
      </trkpt>
      <trkpt lat="47.59045" lon="1.34333">
        <ele>65</ele>
        <time>2017-09-17T07:47:22.000Z</time>
      </trkpt>
      <trkpt lat="47.59042" lon="1.34327">
        <ele>65</ele>
        <time>2017-09-17T07:47:23.000Z</time>
      </trkpt>
      <trkpt lat="47.59011" lon="1.34271">
        <ele>64</ele>
        <time>2017-09-17T07:47:32.000Z</time>
      </trkpt>
      <trkpt lat="47.59008" lon="1.34265">
        <ele>64</ele>
        <time>2017-09-17T07:47:33.000Z</time>
      </trkpt>
      <trkpt lat="47.58981" lon="1.34205">
        <ele>64</ele>
        <time>2017-09-17T07:47:43.000Z</time>
      </trkpt>
      <trkpt lat="47.58979" lon="1.34199">
        <ele>64</ele>
        <time>2017-09-17T07:47:44.000Z</time>
      </trkpt>
      <trkpt lat="47.58958" lon="1.34159">
        <ele>66</ele>
        <time>2017-09-17T07:47:52.000Z</time>
      </trkpt>
      <trkpt lat="47.58925" lon="1.3411">
        <ele>69</ele>
        <time>2017-09-17T07:48:03.000Z</time>
      </trkpt>
      <trkpt lat="47.58921" lon="1.34105">
        <ele>69</ele>
        <time>2017-09-17T07:48:04.000Z</time>
      </trkpt>
      <trkpt lat="47.58887" lon="1.34056">
        <ele>66</ele>
        <time>2017-09-17T07:48:16.000Z</time>
      </trkpt>
      <trkpt lat="47.58884" lon="1.34052">
        <ele>65</ele>
        <time>2017-09-17T07:48:17.000Z</time>
      </trkpt>
      <trkpt lat="47.58879" lon="1.34043">
        <ele>64</ele>
        <time>2017-09-17T07:48:19.000Z</time>
      </trkpt>
      <trkpt lat="47.58862" lon="1.3401">
        <ele>60</ele>
        <time>2017-09-17T07:48:26.000Z</time>
      </trkpt>
      <trkpt lat="47.58847" lon="1.33982">
        <ele>56</ele>
        <time>2017-09-17T07:48:33.000Z</time>
      </trkpt>
      <trkpt lat="47.58831" lon="1.33957">
        <ele>54</ele>
        <time>2017-09-17T07:48:38.000Z</time>
      </trkpt>
      <trkpt lat="47.58815" lon="1.33937">
        <ele>52</ele>
        <time>2017-09-17T07:48:43.000Z</time>
      </trkpt>
      <trkpt lat="47.58787" lon="1.339">
        <ele>51</ele>
        <time>2017-09-17T07:48:51.000Z</time>
      </trkpt>
      <trkpt lat="47.58754" lon="1.33848">
        <ele>54</ele>
        <time>2017-09-17T07:49:00.000Z</time>
      </trkpt>
      <trkpt lat="47.58751" lon="1.33842">
        <ele>54</ele>
        <time>2017-09-17T07:49:01.000Z</time>
      </trkpt>
      <trkpt lat="47.58717" lon="1.33788">
        <ele>57</ele>
        <time>2017-09-17T07:49:11.000Z</time>
      </trkpt>
      <trkpt lat="47.58713" lon="1.33782">
        <ele>58</ele>
        <time>2017-09-17T07:49:12.000Z</time>
      </trkpt>
      <trkpt lat="47.58678" lon="1.33731">
        <ele>62</ele>
        <time>2017-09-17T07:49:21.000Z</time>
      </trkpt>
      <trkpt lat="47.58675" lon="1.33726">
        <ele>63</ele>
        <time>2017-09-17T07:49:22.000Z</time>
      </trkpt>
      <trkpt lat="47.58641" lon="1.33681">
        <ele>65</ele>
        <time>2017-09-17T07:49:32.000Z</time>
      </trkpt>
      <trkpt lat="47.58638" lon="1.33677">
        <ele>66</ele>
        <time>2017-09-17T07:49:33.000Z</time>
      </trkpt>
      <trkpt lat="47.58604" lon="1.33631">
        <ele>68</ele>
        <time>2017-09-17T07:49:46.000Z</time>
      </trkpt>
      <trkpt lat="47.58603" lon="1.3363">
        <ele>69</ele>
        <time>2017-09-17T07:49:47.000Z</time>
      </trkpt>
      <trkpt lat="47.58602" lon="1.33625">
        <ele>70</ele>
        <time>2017-09-17T07:49:57.000Z</time>
      </trkpt>
      <trkpt lat="47.58597" lon="1.33617">
        <ele>70</ele>
        <time>2017-09-17T07:50:01.000Z</time>
      </trkpt>
      <trkpt lat="47.58592" lon="1.33608">
        <ele>70</ele>
        <time>2017-09-17T07:50:05.000Z</time>
      </trkpt>
      <trkpt lat="47.58557" lon="1.33562">
        <ele>69</ele>
        <time>2017-09-17T07:50:17.000Z</time>
      </trkpt>
      <trkpt lat="47.58554" lon="1.33557">
        <ele>69</ele>
        <time>2017-09-17T07:50:18.000Z</time>
      </trkpt>
      <trkpt lat="47.58521" lon="1.3351">
        <ele>68</ele>
        <time>2017-09-17T07:50:29.000Z</time>
      </trkpt>
      <trkpt lat="47.58518" lon="1.33505">
        <ele>68</ele>
        <time>2017-09-17T07:50:30.000Z</time>
      </trkpt>
      <trkpt lat="47.58484" lon="1.33456">
        <ele>67</ele>
        <time>2017-09-17T07:50:42.000Z</time>
      </trkpt>
      <trkpt lat="47.58481" lon="1.33452">
        <ele>67</ele>
        <time>2017-09-17T07:50:43.000Z</time>
      </trkpt>
      <trkpt lat="47.58474" lon="1.33435">
        <ele>67</ele>
        <time>2017-09-17T07:50:50.000Z</time>
      </trkpt>
      <trkpt lat="47.58476" lon="1.33427">
        <ele>67</ele>
        <time>2017-09-17T07:50:53.000Z</time>
      </trkpt>
      <trkpt lat="47.58486" lon="1.33412">
        <ele>67</ele>
        <time>2017-09-17T07:51:05.000Z</time>
      </trkpt>
      <trkpt lat="47.5849" lon="1.33411">
        <ele>75</ele>
        <time>2017-09-17T07:52:23.000Z</time>
      </trkpt>
      <trkpt lat="47.58489" lon="1.33433">
        <ele>86</ele>
        <time>2017-09-17T07:53:44.000Z</time>
      </trkpt>
      <trkpt lat="47.58487" lon="1.33433">
        <ele>86</ele>
        <time>2017-09-17T07:55:55.000Z</time>
      </trkpt>
      <trkpt lat="47.5849" lon="1.33421">
        <ele>80</ele>
        <time>2017-09-17T07:58:42.000Z</time>
      </trkpt>
      <trkpt lat="47.58488" lon="1.3343">
        <ele>85</ele>
        <time>2017-09-17T07:59:45.000Z</time>
      </trkpt>
      <trkpt lat="47.5849" lon="1.3342">
        <ele>80</ele>
        <time>2017-09-17T08:01:34.000Z</time>
      </trkpt>
      <trkpt lat="47.58488" lon="1.33421">
        <ele>82</ele>
        <time>2017-09-17T08:04:36.000Z</time>
      </trkpt>
      <trkpt lat="47.58486" lon="1.3342">
        <ele>74</ele>
        <time>2017-09-17T08:04:47.000Z</time>
      </trkpt>
      <trkpt lat="47.58478" lon="1.33431">
        <ele>74</ele>
        <time>2017-09-17T08:04:53.000Z</time>
      </trkpt>
      <trkpt lat="47.5848" lon="1.3344">
        <ele>74</ele>
        <time>2017-09-17T08:04:56.000Z</time>
      </trkpt>
      <trkpt lat="47.58513" lon="1.33489">
        <ele>73</ele>
        <time>2017-09-17T08:05:07.000Z</time>
      </trkpt>
      <trkpt lat="47.58515" lon="1.33494">
        <ele>73</ele>
        <time>2017-09-17T08:05:08.000Z</time>
      </trkpt>
      <trkpt lat="47.58548" lon="1.33546">
        <ele>72</ele>
        <time>2017-09-17T08:05:18.000Z</time>
      </trkpt>
      <trkpt lat="47.58552" lon="1.33551">
        <ele>72</ele>
        <time>2017-09-17T08:05:19.000Z</time>
      </trkpt>
      <trkpt lat="47.58585" lon="1.33595">
        <ele>71</ele>
        <time>2017-09-17T08:05:28.000Z</time>
      </trkpt>
      <trkpt lat="47.58589" lon="1.33599">
        <ele>71</ele>
        <time>2017-09-17T08:05:29.000Z</time>
      </trkpt>
      <trkpt lat="47.58593" lon="1.33609">
        <ele>71</ele>
        <time>2017-09-17T08:05:31.000Z</time>
      </trkpt>
      <trkpt lat="47.58592" lon="1.33618">
        <ele>72</ele>
        <time>2017-09-17T08:05:33.000Z</time>
      </trkpt>
      <trkpt lat="47.58559" lon="1.33671">
        <ele>74</ele>
        <time>2017-09-17T08:05:45.000Z</time>
      </trkpt>
      <trkpt lat="47.58556" lon="1.33676">
        <ele>74</ele>
        <time>2017-09-17T08:05:46.000Z</time>
      </trkpt>
      <trkpt lat="47.58522" lon="1.33727">
        <ele>76</ele>
        <time>2017-09-17T08:05:57.000Z</time>
      </trkpt>
      <trkpt lat="47.58519" lon="1.33731">
        <ele>76</ele>
        <time>2017-09-17T08:05:58.000Z</time>
      </trkpt>
      <trkpt lat="47.58492" lon="1.33771">
        <ele>76</ele>
        <time>2017-09-17T08:06:06.000Z</time>
      </trkpt>
      <trkpt lat="47.58457" lon="1.33823">
        <ele>74</ele>
        <time>2017-09-17T08:06:14.000Z</time>
      </trkpt>
      <trkpt lat="47.58452" lon="1.3383">
        <ele>74</ele>
        <time>2017-09-17T08:06:15.000Z</time>
      </trkpt>
      <trkpt lat="47.58418" lon="1.3388">
        <ele>71</ele>
        <time>2017-09-17T08:06:24.000Z</time>
      </trkpt>
      <trkpt lat="47.58416" lon="1.33883">
        <ele>71</ele>
        <time>2017-09-17T08:06:25.000Z</time>
      </trkpt>
      <trkpt lat="47.58414" lon="1.33886">
        <ele>71</ele>
        <time>2017-09-17T08:06:26.000Z</time>
      </trkpt>
      <trkpt lat="47.58411" lon="1.33896">
        <ele>70</ele>
        <time>2017-09-17T08:06:30.000Z</time>
      </trkpt>
      <trkpt lat="47.58418" lon="1.33906">
        <ele>70</ele>
        <time>2017-09-17T08:06:33.000Z</time>
      </trkpt>
      <trkpt lat="47.58453" lon="1.33954">
        <ele>70</ele>
        <time>2017-09-17T08:06:43.000Z</time>
      </trkpt>
      <trkpt lat="47.58457" lon="1.3396">
        <ele>70</ele>
        <time>2017-09-17T08:06:44.000Z</time>
      </trkpt>
      <trkpt lat="47.58492" lon="1.3401">
        <ele>70</ele>
        <time>2017-09-17T08:06:53.000Z</time>
      </trkpt>
      <trkpt lat="47.58496" lon="1.34016">
        <ele>70</ele>
        <time>2017-09-17T08:06:54.000Z</time>
      </trkpt>
      <trkpt lat="47.58527" lon="1.34066">
        <ele>69</ele>
        <time>2017-09-17T08:07:05.000Z</time>
      </trkpt>
      <trkpt lat="47.5853" lon="1.34071">
        <ele>69</ele>
        <time>2017-09-17T08:07:06.000Z</time>
      </trkpt>
      <trkpt lat="47.58559" lon="1.34127">
        <ele>69</ele>
        <time>2017-09-17T08:07:18.000Z</time>
      </trkpt>
      <trkpt lat="47.58561" lon="1.34133">
        <ele>68</ele>
        <time>2017-09-17T08:07:19.000Z</time>
      </trkpt>
      <trkpt lat="47.58566" lon="1.342">
        <ele>68</ele>
        <time>2017-09-17T08:07:29.000Z</time>
      </trkpt>
      <trkpt lat="47.58566" lon="1.34207">
        <ele>68</ele>
        <time>2017-09-17T08:07:30.000Z</time>
      </trkpt>
      <trkpt lat="47.58571" lon="1.34268">
        <ele>69</ele>
        <time>2017-09-17T08:07:39.000Z</time>
      </trkpt>
      <trkpt lat="47.58572" lon="1.34277">
        <ele>69</ele>
        <time>2017-09-17T08:07:40.000Z</time>
      </trkpt>
      <trkpt lat="47.58581" lon="1.34313">
        <ele>69</ele>
        <time>2017-09-17T08:07:44.000Z</time>
      </trkpt>
      <trkpt lat="47.58604" lon="1.34376">
        <ele>69</ele>
        <time>2017-09-17T08:07:52.000Z</time>
      </trkpt>
      <trkpt lat="47.58607" lon="1.34383">
        <ele>69</ele>
        <time>2017-09-17T08:07:53.000Z</time>
      </trkpt>
      <trkpt lat="47.58626" lon="1.34422">
        <ele>69</ele>
        <time>2017-09-17T08:07:58.000Z</time>
      </trkpt>
      <trkpt lat="47.58656" lon="1.34481">
        <ele>69</ele>
        <time>2017-09-17T08:08:05.000Z</time>
      </trkpt>
      <trkpt lat="47.58661" lon="1.34489">
        <ele>69</ele>
        <time>2017-09-17T08:08:06.000Z</time>
      </trkpt>
      <trkpt lat="47.58694" lon="1.34547">
        <ele>68</ele>
        <time>2017-09-17T08:08:13.000Z</time>
      </trkpt>
      <trkpt lat="47.58699" lon="1.34555">
        <ele>68</ele>
        <time>2017-09-17T08:08:14.000Z</time>
      </trkpt>
      <trkpt lat="47.58725" lon="1.34618">
        <ele>68</ele>
        <time>2017-09-17T08:08:21.000Z</time>
      </trkpt>
      <trkpt lat="47.58728" lon="1.34627">
        <ele>68</ele>
        <time>2017-09-17T08:08:22.000Z</time>
      </trkpt>
      <trkpt lat="47.58756" lon="1.3469">
        <ele>67</ele>
        <time>2017-09-17T08:08:29.000Z</time>
      </trkpt>
      <trkpt lat="47.5876" lon="1.34699">
        <ele>67</ele>
        <time>2017-09-17T08:08:30.000Z</time>
      </trkpt>
      <trkpt lat="47.58783" lon="1.34742">
        <ele>67</ele>
        <time>2017-09-17T08:08:36.000Z</time>
      </trkpt>
      <trkpt lat="47.58799" lon="1.34755">
        <ele>67</ele>
        <time>2017-09-17T08:08:40.000Z</time>
      </trkpt>
      <trkpt lat="47.58823" lon="1.34811">
        <ele>68</ele>
        <time>2017-09-17T08:08:48.000Z</time>
      </trkpt>
      <trkpt lat="47.58827" lon="1.34818">
        <ele>68</ele>
        <time>2017-09-17T08:08:49.000Z</time>
      </trkpt>
      <trkpt lat="47.58857" lon="1.34876">
        <ele>68</ele>
        <time>2017-09-17T08:08:57.000Z</time>
      </trkpt>
      <trkpt lat="47.58862" lon="1.34883">
        <ele>68</ele>
        <time>2017-09-17T08:08:58.000Z</time>
      </trkpt>
      <trkpt lat="47.58891" lon="1.34935">
        <ele>68</ele>
        <time>2017-09-17T08:09:05.000Z</time>
      </trkpt>
      <trkpt lat="47.58892" lon="1.34941">
        <ele>68</ele>
        <time>2017-09-17T08:09:06.000Z</time>
      </trkpt>
      <trkpt lat="47.5892" lon="1.35002">
        <ele>66</ele>
        <time>2017-09-17T08:09:13.000Z</time>
      </trkpt>
      <trkpt lat="47.58923" lon="1.35011">
        <ele>66</ele>
        <time>2017-09-17T08:09:14.000Z</time>
      </trkpt>
      <trkpt lat="47.58929" lon="1.35032">
        <ele>66</ele>
        <time>2017-09-17T08:09:16.000Z</time>
      </trkpt>
      <trkpt lat="47.58951" lon="1.35101">
        <ele>66</ele>
        <time>2017-09-17T08:09:23.000Z</time>
      </trkpt>
      <trkpt lat="47.58954" lon="1.3511">
        <ele>66</ele>
        <time>2017-09-17T08:09:24.000Z</time>
      </trkpt>
      <trkpt lat="47.58972" lon="1.35182">
        <ele>65</ele>
        <time>2017-09-17T08:09:31.000Z</time>
      </trkpt>
      <trkpt lat="47.58974" lon="1.35192">
        <ele>65</ele>
        <time>2017-09-17T08:09:32.000Z</time>
      </trkpt>
      <trkpt lat="47.58992" lon="1.35266">
        <ele>65</ele>
        <time>2017-09-17T08:09:39.000Z</time>
      </trkpt>
      <trkpt lat="47.58994" lon="1.35276">
        <ele>65</ele>
        <time>2017-09-17T08:09:40.000Z</time>
      </trkpt>
      <trkpt lat="47.59008" lon="1.35343">
        <ele>65</ele>
        <time>2017-09-17T08:09:47.000Z</time>
      </trkpt>
      <trkpt lat="47.5901" lon="1.35352">
        <ele>65</ele>
        <time>2017-09-17T08:09:48.000Z</time>
      </trkpt>
      <trkpt lat="47.59028" lon="1.35421">
        <ele>65</ele>
        <time>2017-09-17T08:09:56.000Z</time>
      </trkpt>
      <trkpt lat="47.59031" lon="1.35429">
        <ele>65</ele>
        <time>2017-09-17T08:09:57.000Z</time>
      </trkpt>
      <trkpt lat="47.59041" lon="1.35452">
        <ele>66</ele>
        <time>2017-09-17T08:10:00.000Z</time>
      </trkpt>
      <trkpt lat="47.59066" lon="1.35491">
        <ele>66</ele>
        <time>2017-09-17T08:10:07.000Z</time>
      </trkpt>
      <trkpt lat="47.5908" lon="1.35505">
        <ele>67</ele>
        <time>2017-09-17T08:10:14.000Z</time>
      </trkpt>
      <trkpt lat="47.59125" lon="1.35522">
        <ele>67</ele>
        <time>2017-09-17T08:10:25.000Z</time>
      </trkpt>
      <trkpt lat="47.5913" lon="1.35525">
        <ele>67</ele>
        <time>2017-09-17T08:10:26.000Z</time>
      </trkpt>
      <trkpt lat="47.59139" lon="1.35531">
        <ele>67</ele>
        <time>2017-09-17T08:10:28.000Z</time>
      </trkpt>
      <trkpt lat="47.59158" lon="1.35552">
        <ele>67</ele>
        <time>2017-09-17T08:10:32.000Z</time>
      </trkpt>
      <trkpt lat="47.5919" lon="1.35601">
        <ele>66</ele>
        <time>2017-09-17T08:10:39.000Z</time>
      </trkpt>
      <trkpt lat="47.59195" lon="1.35608">
        <ele>66</ele>
        <time>2017-09-17T08:10:40.000Z</time>
      </trkpt>
      <trkpt lat="47.59215" lon="1.35644">
        <ele>68</ele>
        <time>2017-09-17T08:10:45.000Z</time>
      </trkpt>
      <trkpt lat="47.5922" lon="1.35662">
        <ele>68</ele>
        <time>2017-09-17T08:10:47.000Z</time>
      </trkpt>
      <trkpt lat="47.59253" lon="1.35708">
        <ele>66</ele>
        <time>2017-09-17T08:10:54.000Z</time>
      </trkpt>
      <trkpt lat="47.59259" lon="1.35715">
        <ele>66</ele>
        <time>2017-09-17T08:10:55.000Z</time>
      </trkpt>
      <trkpt lat="47.5929" lon="1.35762">
        <ele>66</ele>
        <time>2017-09-17T08:11:02.000Z</time>
      </trkpt>
      <trkpt lat="47.59295" lon="1.3577">
        <ele>66</ele>
        <time>2017-09-17T08:11:03.000Z</time>
      </trkpt>
      <trkpt lat="47.5932" lon="1.35819">
        <ele>66</ele>
        <time>2017-09-17T08:11:09.000Z</time>
      </trkpt>
      <trkpt lat="47.59324" lon="1.35827">
        <ele>66</ele>
        <time>2017-09-17T08:11:10.000Z</time>
      </trkpt>
      <trkpt lat="47.59352" lon="1.35888">
        <ele>65</ele>
        <time>2017-09-17T08:11:17.000Z</time>
      </trkpt>
      <trkpt lat="47.59357" lon="1.35897">
        <ele>65</ele>
        <time>2017-09-17T08:11:18.000Z</time>
      </trkpt>
      <trkpt lat="47.59386" lon="1.35952">
        <ele>65</ele>
        <time>2017-09-17T08:11:25.000Z</time>
      </trkpt>
      <trkpt lat="47.59389" lon="1.3596">
        <ele>65</ele>
        <time>2017-09-17T08:11:26.000Z</time>
      </trkpt>
      <trkpt lat="47.59419" lon="1.3602">
        <ele>65</ele>
        <time>2017-09-17T08:11:34.000Z</time>
      </trkpt>
      <trkpt lat="47.59423" lon="1.36027">
        <ele>65</ele>
        <time>2017-09-17T08:11:35.000Z</time>
      </trkpt>
      <trkpt lat="47.59453" lon="1.36087">
        <ele>65</ele>
        <time>2017-09-17T08:11:43.000Z</time>
      </trkpt>
      <trkpt lat="47.59457" lon="1.36095">
        <ele>65</ele>
        <time>2017-09-17T08:11:44.000Z</time>
      </trkpt>
      <trkpt lat="47.59484" lon="1.36151">
        <ele>65</ele>
        <time>2017-09-17T08:11:51.000Z</time>
      </trkpt>
      <trkpt lat="47.59488" lon="1.36159">
        <ele>65</ele>
        <time>2017-09-17T08:11:52.000Z</time>
      </trkpt>
      <trkpt lat="47.59516" lon="1.3622">
        <ele>66</ele>
        <time>2017-09-17T08:12:00.000Z</time>
      </trkpt>
      <trkpt lat="47.5952" lon="1.36228">
        <ele>66</ele>
        <time>2017-09-17T08:12:01.000Z</time>
      </trkpt>
      <trkpt lat="47.59545" lon="1.36284">
        <ele>65</ele>
        <time>2017-09-17T08:12:08.000Z</time>
      </trkpt>
      <trkpt lat="47.59549" lon="1.36293">
        <ele>65</ele>
        <time>2017-09-17T08:12:09.000Z</time>
      </trkpt>
      <trkpt lat="47.59576" lon="1.36349">
        <ele>65</ele>
        <time>2017-09-17T08:12:16.000Z</time>
      </trkpt>
      <trkpt lat="47.5958" lon="1.36356">
        <ele>65</ele>
        <time>2017-09-17T08:12:17.000Z</time>
      </trkpt>
      <trkpt lat="47.59609" lon="1.36408">
        <ele>65</ele>
        <time>2017-09-17T08:12:24.000Z</time>
      </trkpt>
      <trkpt lat="47.59613" lon="1.36415">
        <ele>65</ele>
        <time>2017-09-17T08:12:25.000Z</time>
      </trkpt>
      <trkpt lat="47.59646" lon="1.36469">
        <ele>67</ele>
        <time>2017-09-17T08:12:33.000Z</time>
      </trkpt>
      <trkpt lat="47.5965" lon="1.36476">
        <ele>67</ele>
        <time>2017-09-17T08:12:34.000Z</time>
      </trkpt>
      <trkpt lat="47.59681" lon="1.36525">
        <ele>70</ele>
        <time>2017-09-17T08:12:44.000Z</time>
      </trkpt>
      <trkpt lat="47.59686" lon="1.3653">
        <ele>70</ele>
        <time>2017-09-17T08:12:45.000Z</time>
      </trkpt>
      <trkpt lat="47.59689" lon="1.36535">
        <ele>69</ele>
        <time>2017-09-17T08:12:46.000Z</time>
      </trkpt>
      <trkpt lat="47.59709" lon="1.36551">
        <ele>68</ele>
        <time>2017-09-17T08:12:50.000Z</time>
      </trkpt>
      <trkpt lat="47.59733" lon="1.36566">
        <ele>67</ele>
        <time>2017-09-17T08:12:54.000Z</time>
      </trkpt>
      <trkpt lat="47.5976" lon="1.36593">
        <ele>67</ele>
        <time>2017-09-17T08:12:59.000Z</time>
      </trkpt>
      <trkpt lat="47.59771" lon="1.36625">
        <ele>67</ele>
        <time>2017-09-17T08:13:03.000Z</time>
      </trkpt>
      <trkpt lat="47.59796" lon="1.36676">
        <ele>67</ele>
        <time>2017-09-17T08:13:10.000Z</time>
      </trkpt>
      <trkpt lat="47.59801" lon="1.36684">
        <ele>67</ele>
        <time>2017-09-17T08:13:11.000Z</time>
      </trkpt>
      <trkpt lat="47.59834" lon="1.36743">
        <ele>66</ele>
        <time>2017-09-17T08:13:18.000Z</time>
      </trkpt>
      <trkpt lat="47.59838" lon="1.36751">
        <ele>67</ele>
        <time>2017-09-17T08:13:19.000Z</time>
      </trkpt>
      <trkpt lat="47.59866" lon="1.36807">
        <ele>68</ele>
        <time>2017-09-17T08:13:26.000Z</time>
      </trkpt>
      <trkpt lat="47.59871" lon="1.36815">
        <ele>68</ele>
        <time>2017-09-17T08:13:27.000Z</time>
      </trkpt>
      <trkpt lat="47.59902" lon="1.36863">
        <ele>68</ele>
        <time>2017-09-17T08:13:34.000Z</time>
      </trkpt>
      <trkpt lat="47.59908" lon="1.3687">
        <ele>68</ele>
        <time>2017-09-17T08:13:35.000Z</time>
      </trkpt>
      <trkpt lat="47.59927" lon="1.36905">
        <ele>68</ele>
        <time>2017-09-17T08:13:39.000Z</time>
      </trkpt>
      <trkpt lat="47.59949" lon="1.36946">
        <ele>68</ele>
        <time>2017-09-17T08:13:44.000Z</time>
      </trkpt>
      <trkpt lat="47.59966" lon="1.36962">
        <ele>67</ele>
        <time>2017-09-17T08:13:47.000Z</time>
      </trkpt>
      <trkpt lat="47.59978" lon="1.3696">
        <ele>67</ele>
        <time>2017-09-17T08:13:49.000Z</time>
      </trkpt>
      <trkpt lat="47.59998" lon="1.36954">
        <ele>66</ele>
        <time>2017-09-17T08:13:52.000Z</time>
      </trkpt>
      <trkpt lat="47.60009" lon="1.36962">
        <ele>66</ele>
        <time>2017-09-17T08:13:54.000Z</time>
      </trkpt>
      <trkpt lat="47.6004" lon="1.37014">
        <ele>67</ele>
        <time>2017-09-17T08:14:01.000Z</time>
      </trkpt>
      <trkpt lat="47.60044" lon="1.37021">
        <ele>67</ele>
        <time>2017-09-17T08:14:02.000Z</time>
      </trkpt>
      <trkpt lat="47.60075" lon="1.37067">
        <ele>68</ele>
        <time>2017-09-17T08:14:09.000Z</time>
      </trkpt>
      <trkpt lat="47.60074" lon="1.37075">
        <ele>68</ele>
        <time>2017-09-17T08:14:10.000Z</time>
      </trkpt>
      <trkpt lat="47.60072" lon="1.37081">
        <ele>68</ele>
        <time>2017-09-17T08:14:11.000Z</time>
      </trkpt>
      <trkpt lat="47.60065" lon="1.37099">
        <ele>70</ele>
        <time>2017-09-17T08:14:14.000Z</time>
      </trkpt>
      <trkpt lat="47.60068" lon="1.37109">
        <ele>71</ele>
        <time>2017-09-17T08:14:16.000Z</time>
      </trkpt>
      <trkpt lat="47.60078" lon="1.37127">
        <ele>71</ele>
        <time>2017-09-17T08:14:22.000Z</time>
      </trkpt>
      <trkpt lat="47.60081" lon="1.37139">
        <ele>71</ele>
        <time>2017-09-17T08:14:28.000Z</time>
      </trkpt>
      <trkpt lat="47.60093" lon="1.37154">
        <ele>70</ele>
        <time>2017-09-17T08:14:32.000Z</time>
      </trkpt>
      <trkpt lat="47.60103" lon="1.3716">
        <ele>69</ele>
        <time>2017-09-17T08:14:34.000Z</time>
      </trkpt>
      <trkpt lat="47.60114" lon="1.37156">
        <ele>68</ele>
        <time>2017-09-17T08:14:36.000Z</time>
      </trkpt>
      <trkpt lat="47.60144" lon="1.37128">
        <ele>66</ele>
        <time>2017-09-17T08:14:42.000Z</time>
      </trkpt>
      <trkpt lat="47.60192" lon="1.37119">
        <ele>66</ele>
        <time>2017-09-17T08:14:50.000Z</time>
      </trkpt>
      <trkpt lat="47.60198" lon="1.37118">
        <ele>65</ele>
        <time>2017-09-17T08:14:51.000Z</time>
      </trkpt>
      <trkpt lat="47.60217" lon="1.37118">
        <ele>65</ele>
        <time>2017-09-17T08:14:54.000Z</time>
      </trkpt>
      <trkpt lat="47.60261" lon="1.37136">
        <ele>66</ele>
        <time>2017-09-17T08:15:02.000Z</time>
      </trkpt>
      <trkpt lat="47.60266" lon="1.37139">
        <ele>66</ele>
        <time>2017-09-17T08:15:03.000Z</time>
      </trkpt>
      <trkpt lat="47.60312" lon="1.37157">
        <ele>66</ele>
        <time>2017-09-17T08:15:11.000Z</time>
      </trkpt>
      <trkpt lat="47.60318" lon="1.3716">
        <ele>66</ele>
        <time>2017-09-17T08:15:12.000Z</time>
      </trkpt>
      <trkpt lat="47.60347" lon="1.37173">
        <ele>66</ele>
        <time>2017-09-17T08:15:17.000Z</time>
      </trkpt>
      <trkpt lat="47.60392" lon="1.372">
        <ele>66</ele>
        <time>2017-09-17T08:15:25.000Z</time>
      </trkpt>
      <trkpt lat="47.60397" lon="1.37204">
        <ele>66</ele>
        <time>2017-09-17T08:15:26.000Z</time>
      </trkpt>
      <trkpt lat="47.60441" lon="1.37236">
        <ele>67</ele>
        <time>2017-09-17T08:15:34.000Z</time>
      </trkpt>
      <trkpt lat="47.60447" lon="1.37241">
        <ele>67</ele>
        <time>2017-09-17T08:15:35.000Z</time>
      </trkpt>
      <trkpt lat="47.60476" lon="1.37267">
        <ele>67</ele>
        <time>2017-09-17T08:15:41.000Z</time>
      </trkpt>
      <trkpt lat="47.60507" lon="1.37292">
        <ele>66</ele>
        <time>2017-09-17T08:15:46.000Z</time>
      </trkpt>
      <trkpt lat="47.60548" lon="1.37321">
        <ele>65</ele>
        <time>2017-09-17T08:15:52.000Z</time>
      </trkpt>
      <trkpt lat="47.60555" lon="1.37327">
        <ele>65</ele>
        <time>2017-09-17T08:15:53.000Z</time>
      </trkpt>
      <trkpt lat="47.60565" lon="1.37337">
        <ele>66</ele>
        <time>2017-09-17T08:15:55.000Z</time>
      </trkpt>
      <trkpt lat="47.60579" lon="1.37356">
        <ele>66</ele>
        <time>2017-09-17T08:15:58.000Z</time>
      </trkpt>
      <trkpt lat="47.60588" lon="1.37384">
        <ele>67</ele>
        <time>2017-09-17T08:16:02.000Z</time>
      </trkpt>
      <trkpt lat="47.60615" lon="1.37446">
        <ele>67</ele>
        <time>2017-09-17T08:16:12.000Z</time>
      </trkpt>
      <trkpt lat="47.60618" lon="1.37452">
        <ele>67</ele>
        <time>2017-09-17T08:16:13.000Z</time>
      </trkpt>
      <trkpt lat="47.60645" lon="1.37508">
        <ele>68</ele>
        <time>2017-09-17T08:16:22.000Z</time>
      </trkpt>
      <trkpt lat="47.60649" lon="1.37513">
        <ele>68</ele>
        <time>2017-09-17T08:16:23.000Z</time>
      </trkpt>
      <trkpt lat="47.60685" lon="1.37562">
        <ele>67</ele>
        <time>2017-09-17T08:16:32.000Z</time>
      </trkpt>
      <trkpt lat="47.60688" lon="1.37567">
        <ele>67</ele>
        <time>2017-09-17T08:16:33.000Z</time>
      </trkpt>
      <trkpt lat="47.60725" lon="1.37619">
        <ele>67</ele>
        <time>2017-09-17T08:16:42.000Z</time>
      </trkpt>
      <trkpt lat="47.60729" lon="1.37625">
        <ele>67</ele>
        <time>2017-09-17T08:16:43.000Z</time>
      </trkpt>
      <trkpt lat="47.60764" lon="1.37675">
        <ele>67</ele>
        <time>2017-09-17T08:16:52.000Z</time>
      </trkpt>
      <trkpt lat="47.60767" lon="1.3768">
        <ele>67</ele>
        <time>2017-09-17T08:16:53.000Z</time>
      </trkpt>
      <trkpt lat="47.60778" lon="1.37697">
        <ele>68</ele>
        <time>2017-09-17T08:18:15.000Z</time>
      </trkpt>
      <trkpt lat="47.60783" lon="1.37697">
        <ele>67</ele>
        <time>2017-09-17T08:21:16.000Z</time>
      </trkpt>
      <trkpt lat="47.60787" lon="1.37701">
        <ele>68</ele>
        <time>2017-09-17T08:21:25.000Z</time>
      </trkpt>
      <trkpt lat="47.60793" lon="1.37695">
        <ele>68</ele>
        <time>2017-09-17T08:21:29.000Z</time>
      </trkpt>
      <trkpt lat="47.60809" lon="1.37675">
        <ele>69</ele>
        <time>2017-09-17T08:21:36.000Z</time>
      </trkpt>
      <trkpt lat="47.60819" lon="1.37675">
        <ele>69</ele>
        <time>2017-09-17T08:21:39.000Z</time>
      </trkpt>
      <trkpt lat="47.60827" lon="1.37681">
        <ele>69</ele>
        <time>2017-09-17T08:21:41.000Z</time>
      </trkpt>
      <trkpt lat="47.60862" lon="1.37733">
        <ele>69</ele>
        <time>2017-09-17T08:21:50.000Z</time>
      </trkpt>
      <trkpt lat="47.60867" lon="1.3774">
        <ele>69</ele>
        <time>2017-09-17T08:21:51.000Z</time>
      </trkpt>
      <trkpt lat="47.609" lon="1.37789">
        <ele>69</ele>
        <time>2017-09-17T08:21:58.000Z</time>
      </trkpt>
      <trkpt lat="47.60905" lon="1.37796">
        <ele>69</ele>
        <time>2017-09-17T08:21:59.000Z</time>
      </trkpt>
      <trkpt lat="47.60941" lon="1.37849">
        <ele>69</ele>
        <time>2017-09-17T08:22:06.000Z</time>
      </trkpt>
      <trkpt lat="47.60947" lon="1.37857">
        <ele>69</ele>
        <time>2017-09-17T08:22:07.000Z</time>
      </trkpt>
      <trkpt lat="47.60983" lon="1.3791">
        <ele>69</ele>
        <time>2017-09-17T08:22:14.000Z</time>
      </trkpt>
      <trkpt lat="47.60988" lon="1.37918">
        <ele>69</ele>
        <time>2017-09-17T08:22:15.000Z</time>
      </trkpt>
      <trkpt lat="47.61024" lon="1.37973">
        <ele>69</ele>
        <time>2017-09-17T08:22:22.000Z</time>
      </trkpt>
      <trkpt lat="47.6103" lon="1.37981">
        <ele>69</ele>
        <time>2017-09-17T08:22:23.000Z</time>
      </trkpt>
      <trkpt lat="47.61066" lon="1.38034">
        <ele>69</ele>
        <time>2017-09-17T08:22:30.000Z</time>
      </trkpt>
      <trkpt lat="47.61071" lon="1.38041">
        <ele>69</ele>
        <time>2017-09-17T08:22:31.000Z</time>
      </trkpt>
      <trkpt lat="47.61105" lon="1.38091">
        <ele>69</ele>
        <time>2017-09-17T08:22:38.000Z</time>
      </trkpt>
      <trkpt lat="47.6111" lon="1.38099">
        <ele>69</ele>
        <time>2017-09-17T08:22:39.000Z</time>
      </trkpt>
      <trkpt lat="47.61146" lon="1.38151">
        <ele>69</ele>
        <time>2017-09-17T08:22:46.000Z</time>
      </trkpt>
      <trkpt lat="47.61151" lon="1.38158">
        <ele>69</ele>
        <time>2017-09-17T08:22:47.000Z</time>
      </trkpt>
      <trkpt lat="47.61188" lon="1.38202">
        <ele>69</ele>
        <time>2017-09-17T08:22:54.000Z</time>
      </trkpt>
      <trkpt lat="47.61194" lon="1.38208">
        <ele>69</ele>
        <time>2017-09-17T08:22:55.000Z</time>
      </trkpt>
      <trkpt lat="47.6123" lon="1.38257">
        <ele>69</ele>
        <time>2017-09-17T08:23:02.000Z</time>
      </trkpt>
      <trkpt lat="47.61234" lon="1.38265">
        <ele>69</ele>
        <time>2017-09-17T08:23:03.000Z</time>
      </trkpt>
      <trkpt lat="47.6126" lon="1.38313">
        <ele>69</ele>
        <time>2017-09-17T08:23:09.000Z</time>
      </trkpt>
      <trkpt lat="47.61265" lon="1.3832">
        <ele>69</ele>
        <time>2017-09-17T08:23:10.000Z</time>
      </trkpt>
      <trkpt lat="47.61288" lon="1.38342">
        <ele>69</ele>
        <time>2017-09-17T08:23:14.000Z</time>
      </trkpt>
      <trkpt lat="47.61331" lon="1.38365">
        <ele>69</ele>
        <time>2017-09-17T08:23:21.000Z</time>
      </trkpt>
      <trkpt lat="47.61336" lon="1.38373">
        <ele>69</ele>
        <time>2017-09-17T08:23:22.000Z</time>
      </trkpt>
      <trkpt lat="47.61366" lon="1.3843">
        <ele>70</ele>
        <time>2017-09-17T08:23:29.000Z</time>
      </trkpt>
      <trkpt lat="47.61371" lon="1.38437">
        <ele>70</ele>
        <time>2017-09-17T08:23:30.000Z</time>
      </trkpt>
      <trkpt lat="47.61404" lon="1.38494">
        <ele>70</ele>
        <time>2017-09-17T08:23:37.000Z</time>
      </trkpt>
      <trkpt lat="47.61409" lon="1.38502">
        <ele>70</ele>
        <time>2017-09-17T08:23:38.000Z</time>
      </trkpt>
      <trkpt lat="47.61445" lon="1.38558">
        <ele>70</ele>
        <time>2017-09-17T08:23:45.000Z</time>
      </trkpt>
      <trkpt lat="47.6145" lon="1.38567">
        <ele>70</ele>
        <time>2017-09-17T08:23:46.000Z</time>
      </trkpt>
      <trkpt lat="47.61483" lon="1.38619">
        <ele>70</ele>
        <time>2017-09-17T08:23:52.000Z</time>
      </trkpt>
      <trkpt lat="47.61488" lon="1.38628">
        <ele>70</ele>
        <time>2017-09-17T08:23:53.000Z</time>
      </trkpt>
      <trkpt lat="47.6152" lon="1.38681">
        <ele>70</ele>
        <time>2017-09-17T08:23:59.000Z</time>
      </trkpt>
      <trkpt lat="47.61524" lon="1.38691">
        <ele>70</ele>
        <time>2017-09-17T08:24:00.000Z</time>
      </trkpt>
      <trkpt lat="47.61554" lon="1.38744">
        <ele>71</ele>
        <time>2017-09-17T08:24:06.000Z</time>
      </trkpt>
      <trkpt lat="47.61559" lon="1.38753">
        <ele>71</ele>
        <time>2017-09-17T08:24:07.000Z</time>
      </trkpt>
      <trkpt lat="47.61592" lon="1.38806">
        <ele>71</ele>
        <time>2017-09-17T08:24:13.000Z</time>
      </trkpt>
      <trkpt lat="47.61597" lon="1.38815">
        <ele>71</ele>
        <time>2017-09-17T08:24:14.000Z</time>
      </trkpt>
      <trkpt lat="47.61629" lon="1.38868">
        <ele>71</ele>
        <time>2017-09-17T08:24:20.000Z</time>
      </trkpt>
      <trkpt lat="47.61634" lon="1.38876">
        <ele>71</ele>
        <time>2017-09-17T08:24:21.000Z</time>
      </trkpt>
      <trkpt lat="47.61666" lon="1.38927">
        <ele>71</ele>
        <time>2017-09-17T08:24:27.000Z</time>
      </trkpt>
      <trkpt lat="47.61671" lon="1.38936">
        <ele>71</ele>
        <time>2017-09-17T08:24:28.000Z</time>
      </trkpt>
      <trkpt lat="47.61701" lon="1.38986">
        <ele>71</ele>
        <time>2017-09-17T08:24:34.000Z</time>
      </trkpt>
      <trkpt lat="47.61707" lon="1.38994">
        <ele>71</ele>
        <time>2017-09-17T08:24:35.000Z</time>
      </trkpt>
      <trkpt lat="47.61741" lon="1.39042">
        <ele>71</ele>
        <time>2017-09-17T08:24:41.000Z</time>
      </trkpt>
      <trkpt lat="47.61747" lon="1.3905">
        <ele>71</ele>
        <time>2017-09-17T08:24:42.000Z</time>
      </trkpt>
      <trkpt lat="47.61782" lon="1.39099">
        <ele>71</ele>
        <time>2017-09-17T08:24:48.000Z</time>
      </trkpt>
      <trkpt lat="47.61788" lon="1.39107">
        <ele>71</ele>
        <time>2017-09-17T08:24:49.000Z</time>
      </trkpt>
      <trkpt lat="47.61822" lon="1.39155">
        <ele>71</ele>
        <time>2017-09-17T08:24:55.000Z</time>
      </trkpt>
      <trkpt lat="47.61827" lon="1.39163">
        <ele>71</ele>
        <time>2017-09-17T08:24:56.000Z</time>
      </trkpt>
      <trkpt lat="47.61861" lon="1.39211">
        <ele>71</ele>
        <time>2017-09-17T08:25:02.000Z</time>
      </trkpt>
      <trkpt lat="47.61867" lon="1.3922">
        <ele>71</ele>
        <time>2017-09-17T08:25:03.000Z</time>
      </trkpt>
      <trkpt lat="47.61901" lon="1.39269">
        <ele>71</ele>
        <time>2017-09-17T08:25:09.000Z</time>
      </trkpt>
      <trkpt lat="47.61907" lon="1.39276">
        <ele>71</ele>
        <time>2017-09-17T08:25:10.000Z</time>
      </trkpt>
      <trkpt lat="47.61942" lon="1.39321">
        <ele>71</ele>
        <time>2017-09-17T08:25:16.000Z</time>
      </trkpt>
      <trkpt lat="47.61948" lon="1.39329">
        <ele>71</ele>
        <time>2017-09-17T08:25:17.000Z</time>
      </trkpt>
      <trkpt lat="47.61985" lon="1.39384">
        <ele>71</ele>
        <time>2017-09-17T08:25:24.000Z</time>
      </trkpt>
      <trkpt lat="47.61989" lon="1.39392">
        <ele>71</ele>
        <time>2017-09-17T08:25:25.000Z</time>
      </trkpt>
      <trkpt lat="47.62021" lon="1.39451">
        <ele>71</ele>
        <time>2017-09-17T08:25:32.000Z</time>
      </trkpt>
      <trkpt lat="47.62026" lon="1.39459">
        <ele>71</ele>
        <time>2017-09-17T08:25:33.000Z</time>
      </trkpt>
      <trkpt lat="47.62059" lon="1.39518">
        <ele>71</ele>
        <time>2017-09-17T08:25:40.000Z</time>
      </trkpt>
      <trkpt lat="47.62064" lon="1.39527">
        <ele>71</ele>
        <time>2017-09-17T08:25:41.000Z</time>
      </trkpt>
      <trkpt lat="47.62093" lon="1.39588">
        <ele>71</ele>
        <time>2017-09-17T08:25:48.000Z</time>
      </trkpt>
      <trkpt lat="47.62097" lon="1.39596">
        <ele>70</ele>
        <time>2017-09-17T08:25:49.000Z</time>
      </trkpt>
      <trkpt lat="47.6213" lon="1.39654">
        <ele>70</ele>
        <time>2017-09-17T08:25:56.000Z</time>
      </trkpt>
      <trkpt lat="47.62136" lon="1.39662">
        <ele>69</ele>
        <time>2017-09-17T08:25:57.000Z</time>
      </trkpt>
      <trkpt lat="47.62175" lon="1.39714">
        <ele>69</ele>
        <time>2017-09-17T08:26:04.000Z</time>
      </trkpt>
      <trkpt lat="47.62181" lon="1.39721">
        <ele>68</ele>
        <time>2017-09-17T08:26:05.000Z</time>
      </trkpt>
      <trkpt lat="47.62212" lon="1.39757">
        <ele>68</ele>
        <time>2017-09-17T08:26:10.000Z</time>
      </trkpt>
      <trkpt lat="47.62218" lon="1.39763">
        <ele>68</ele>
        <time>2017-09-17T08:26:11.000Z</time>
      </trkpt>
      <trkpt lat="47.62259" lon="1.39809">
        <ele>69</ele>
        <time>2017-09-17T08:26:18.000Z</time>
      </trkpt>
      <trkpt lat="47.62264" lon="1.39815">
        <ele>69</ele>
        <time>2017-09-17T08:26:19.000Z</time>
      </trkpt>
      <trkpt lat="47.62306" lon="1.39857">
        <ele>69</ele>
        <time>2017-09-17T08:26:26.000Z</time>
      </trkpt>
      <trkpt lat="47.62312" lon="1.39862">
        <ele>69</ele>
        <time>2017-09-17T08:26:27.000Z</time>
      </trkpt>
      <trkpt lat="47.62351" lon="1.39906">
        <ele>69</ele>
        <time>2017-09-17T08:26:34.000Z</time>
      </trkpt>
      <trkpt lat="47.62356" lon="1.39912">
        <ele>69</ele>
        <time>2017-09-17T08:26:35.000Z</time>
      </trkpt>
      <trkpt lat="47.62392" lon="1.39957">
        <ele>70</ele>
        <time>2017-09-17T08:26:42.000Z</time>
      </trkpt>
      <trkpt lat="47.62397" lon="1.39964">
        <ele>70</ele>
        <time>2017-09-17T08:26:43.000Z</time>
      </trkpt>
      <trkpt lat="47.6243" lon="1.40016">
        <ele>70</ele>
        <time>2017-09-17T08:26:50.000Z</time>
      </trkpt>
      <trkpt lat="47.62436" lon="1.40024">
        <ele>70</ele>
        <time>2017-09-17T08:26:51.000Z</time>
      </trkpt>
      <trkpt lat="47.62475" lon="1.40072">
        <ele>71</ele>
        <time>2017-09-17T08:26:58.000Z</time>
      </trkpt>
      <trkpt lat="47.6248" lon="1.40081">
        <ele>71</ele>
        <time>2017-09-17T08:26:59.000Z</time>
      </trkpt>
      <trkpt lat="47.62511" lon="1.40131">
        <ele>71</ele>
        <time>2017-09-17T08:27:05.000Z</time>
      </trkpt>
      <trkpt lat="47.62516" lon="1.40138">
        <ele>71</ele>
        <time>2017-09-17T08:27:06.000Z</time>
      </trkpt>
      <trkpt lat="47.62553" lon="1.40189">
        <ele>70</ele>
        <time>2017-09-17T08:27:13.000Z</time>
      </trkpt>
      <trkpt lat="47.62558" lon="1.40196">
        <ele>70</ele>
        <time>2017-09-17T08:27:14.000Z</time>
      </trkpt>
      <trkpt lat="47.6259" lon="1.40246">
        <ele>69</ele>
        <time>2017-09-17T08:27:21.000Z</time>
      </trkpt>
      <trkpt lat="47.62594" lon="1.40253">
        <ele>69</ele>
        <time>2017-09-17T08:27:22.000Z</time>
      </trkpt>
      <trkpt lat="47.62626" lon="1.40305">
        <ele>69</ele>
        <time>2017-09-17T08:27:29.000Z</time>
      </trkpt>
      <trkpt lat="47.62631" lon="1.40312">
        <ele>69</ele>
        <time>2017-09-17T08:27:30.000Z</time>
      </trkpt>
      <trkpt lat="47.62666" lon="1.40363">
        <ele>69</ele>
        <time>2017-09-17T08:27:37.000Z</time>
      </trkpt>
      <trkpt lat="47.62671" lon="1.4037">
        <ele>69</ele>
        <time>2017-09-17T08:27:38.000Z</time>
      </trkpt>
      <trkpt lat="47.62706" lon="1.40421">
        <ele>69</ele>
        <time>2017-09-17T08:27:45.000Z</time>
      </trkpt>
      <trkpt lat="47.62711" lon="1.40428">
        <ele>69</ele>
        <time>2017-09-17T08:27:46.000Z</time>
      </trkpt>
      <trkpt lat="47.62743" lon="1.40483">
        <ele>69</ele>
        <time>2017-09-17T08:27:53.000Z</time>
      </trkpt>
      <trkpt lat="47.62748" lon="1.4049">
        <ele>69</ele>
        <time>2017-09-17T08:27:54.000Z</time>
      </trkpt>
      <trkpt lat="47.62785" lon="1.40537">
        <ele>69</ele>
        <time>2017-09-17T08:28:01.000Z</time>
      </trkpt>
      <trkpt lat="47.6279" lon="1.40544">
        <ele>69</ele>
        <time>2017-09-17T08:28:02.000Z</time>
      </trkpt>
      <trkpt lat="47.62827" lon="1.40595">
        <ele>68</ele>
        <time>2017-09-17T08:28:09.000Z</time>
      </trkpt>
      <trkpt lat="47.62833" lon="1.40601">
        <ele>68</ele>
        <time>2017-09-17T08:28:10.000Z</time>
      </trkpt>
      <trkpt lat="47.62847" lon="1.40613">
        <ele>67</ele>
        <time>2017-09-17T08:28:12.000Z</time>
      </trkpt>
      <trkpt lat="47.62889" lon="1.40643">
        <ele>67</ele>
        <time>2017-09-17T08:28:18.000Z</time>
      </trkpt>
      <trkpt lat="47.62896" lon="1.40647">
        <ele>68</ele>
        <time>2017-09-17T08:28:19.000Z</time>
      </trkpt>
      <trkpt lat="47.62932" lon="1.40682">
        <ele>68</ele>
        <time>2017-09-17T08:28:25.000Z</time>
      </trkpt>
      <trkpt lat="47.62937" lon="1.4069">
        <ele>68</ele>
        <time>2017-09-17T08:28:26.000Z</time>
      </trkpt>
      <trkpt lat="47.62945" lon="1.40708">
        <ele>68</ele>
        <time>2017-09-17T08:28:28.000Z</time>
      </trkpt>
      <trkpt lat="47.6297" lon="1.40775">
        <ele>68</ele>
        <time>2017-09-17T08:28:35.000Z</time>
      </trkpt>
      <trkpt lat="47.62974" lon="1.40784">
        <ele>68</ele>
        <time>2017-09-17T08:28:36.000Z</time>
      </trkpt>
      <trkpt lat="47.62999" lon="1.40851">
        <ele>67</ele>
        <time>2017-09-17T08:28:43.000Z</time>
      </trkpt>
      <trkpt lat="47.63003" lon="1.40861">
        <ele>67</ele>
        <time>2017-09-17T08:28:44.000Z</time>
      </trkpt>
      <trkpt lat="47.63031" lon="1.40927">
        <ele>68</ele>
        <time>2017-09-17T08:28:51.000Z</time>
      </trkpt>
      <trkpt lat="47.63035" lon="1.40936">
        <ele>68</ele>
        <time>2017-09-17T08:28:52.000Z</time>
      </trkpt>
      <trkpt lat="47.63065" lon="1.40987">
        <ele>67</ele>
        <time>2017-09-17T08:28:58.000Z</time>
      </trkpt>
      <trkpt lat="47.63071" lon="1.40995">
        <ele>67</ele>
        <time>2017-09-17T08:28:59.000Z</time>
      </trkpt>
      <trkpt lat="47.63103" lon="1.41055">
        <ele>68</ele>
        <time>2017-09-17T08:29:06.000Z</time>
      </trkpt>
      <trkpt lat="47.63108" lon="1.41062">
        <ele>68</ele>
        <time>2017-09-17T08:29:07.000Z</time>
      </trkpt>
      <trkpt lat="47.63113" lon="1.41068">
        <ele>68</ele>
        <time>2017-09-17T08:29:08.000Z</time>
      </trkpt>
      <trkpt lat="47.63132" lon="1.41098">
        <ele>68</ele>
        <time>2017-09-17T08:29:12.000Z</time>
      </trkpt>
      <trkpt lat="47.63145" lon="1.41121">
        <ele>69</ele>
        <time>2017-09-17T08:29:15.000Z</time>
      </trkpt>
      <trkpt lat="47.63181" lon="1.41168">
        <ele>69</ele>
        <time>2017-09-17T08:29:22.000Z</time>
      </trkpt>
      <trkpt lat="47.63186" lon="1.41174">
        <ele>69</ele>
        <time>2017-09-17T08:29:23.000Z</time>
      </trkpt>
      <trkpt lat="47.63223" lon="1.41216">
        <ele>69</ele>
        <time>2017-09-17T08:29:30.000Z</time>
      </trkpt>
      <trkpt lat="47.63228" lon="1.41221">
        <ele>69</ele>
        <time>2017-09-17T08:29:31.000Z</time>
      </trkpt>
      <trkpt lat="47.63245" lon="1.41237">
        <ele>69</ele>
        <time>2017-09-17T08:29:34.000Z</time>
      </trkpt>
      <trkpt lat="47.63287" lon="1.41271">
        <ele>69</ele>
        <time>2017-09-17T08:29:41.000Z</time>
      </trkpt>
      <trkpt lat="47.63293" lon="1.41278">
        <ele>69</ele>
        <time>2017-09-17T08:29:42.000Z</time>
      </trkpt>
      <trkpt lat="47.63332" lon="1.41326">
        <ele>69</ele>
        <time>2017-09-17T08:29:49.000Z</time>
      </trkpt>
      <trkpt lat="47.63337" lon="1.41333">
        <ele>69</ele>
        <time>2017-09-17T08:29:50.000Z</time>
      </trkpt>
      <trkpt lat="47.63371" lon="1.41388">
        <ele>69</ele>
        <time>2017-09-17T08:29:57.000Z</time>
      </trkpt>
      <trkpt lat="47.63376" lon="1.41396">
        <ele>69</ele>
        <time>2017-09-17T08:29:58.000Z</time>
      </trkpt>
      <trkpt lat="47.63416" lon="1.41446">
        <ele>70</ele>
        <time>2017-09-17T08:30:05.000Z</time>
      </trkpt>
      <trkpt lat="47.63422" lon="1.41454">
        <ele>70</ele>
        <time>2017-09-17T08:30:06.000Z</time>
      </trkpt>
      <trkpt lat="47.63462" lon="1.41501">
        <ele>69</ele>
        <time>2017-09-17T08:30:13.000Z</time>
      </trkpt>
      <trkpt lat="47.63468" lon="1.41508">
        <ele>69</ele>
        <time>2017-09-17T08:30:14.000Z</time>
      </trkpt>
      <trkpt lat="47.63507" lon="1.41556">
        <ele>70</ele>
        <time>2017-09-17T08:30:21.000Z</time>
      </trkpt>
      <trkpt lat="47.63512" lon="1.41562">
        <ele>70</ele>
        <time>2017-09-17T08:30:22.000Z</time>
      </trkpt>
      <trkpt lat="47.6355" lon="1.41611">
        <ele>70</ele>
        <time>2017-09-17T08:30:29.000Z</time>
      </trkpt>
      <trkpt lat="47.63555" lon="1.41618">
        <ele>70</ele>
        <time>2017-09-17T08:30:30.000Z</time>
      </trkpt>
      <trkpt lat="47.63593" lon="1.41664">
        <ele>70</ele>
        <time>2017-09-17T08:30:37.000Z</time>
      </trkpt>
      <trkpt lat="47.63598" lon="1.41671">
        <ele>70</ele>
        <time>2017-09-17T08:30:38.000Z</time>
      </trkpt>
      <trkpt lat="47.63636" lon="1.41715">
        <ele>70</ele>
        <time>2017-09-17T08:30:45.000Z</time>
      </trkpt>
      <trkpt lat="47.63642" lon="1.41721">
        <ele>70</ele>
        <time>2017-09-17T08:30:46.000Z</time>
      </trkpt>
      <trkpt lat="47.63648" lon="1.41727">
        <ele>70</ele>
        <time>2017-09-17T08:30:47.000Z</time>
      </trkpt>
      <trkpt lat="47.63688" lon="1.41774">
        <ele>70</ele>
        <time>2017-09-17T08:30:54.000Z</time>
      </trkpt>
      <trkpt lat="47.63694" lon="1.41781">
        <ele>70</ele>
        <time>2017-09-17T08:30:55.000Z</time>
      </trkpt>
      <trkpt lat="47.63733" lon="1.41831">
        <ele>70</ele>
        <time>2017-09-17T08:31:02.000Z</time>
      </trkpt>
      <trkpt lat="47.63738" lon="1.41838">
        <ele>70</ele>
        <time>2017-09-17T08:31:03.000Z</time>
      </trkpt>
      <trkpt lat="47.63771" lon="1.4188">
        <ele>69</ele>
        <time>2017-09-17T08:31:09.000Z</time>
      </trkpt>
      <trkpt lat="47.63776" lon="1.41888">
        <ele>69</ele>
        <time>2017-09-17T08:31:10.000Z</time>
      </trkpt>
      <trkpt lat="47.63809" lon="1.41935">
        <ele>69</ele>
        <time>2017-09-17T08:31:16.000Z</time>
      </trkpt>
      <trkpt lat="47.63815" lon="1.41942">
        <ele>69</ele>
        <time>2017-09-17T08:31:17.000Z</time>
      </trkpt>
      <trkpt lat="47.63853" lon="1.41993">
        <ele>70</ele>
        <time>2017-09-17T08:31:24.000Z</time>
      </trkpt>
      <trkpt lat="47.63858" lon="1.42">
        <ele>70</ele>
        <time>2017-09-17T08:31:25.000Z</time>
      </trkpt>
      <trkpt lat="47.63889" lon="1.42051">
        <ele>71</ele>
        <time>2017-09-17T08:31:32.000Z</time>
      </trkpt>
      <trkpt lat="47.63894" lon="1.42057">
        <ele>71</ele>
        <time>2017-09-17T08:31:33.000Z</time>
      </trkpt>
      <trkpt lat="47.63929" lon="1.42109">
        <ele>71</ele>
        <time>2017-09-17T08:31:41.000Z</time>
      </trkpt>
      <trkpt lat="47.63934" lon="1.42115">
        <ele>71</ele>
        <time>2017-09-17T08:31:42.000Z</time>
      </trkpt>
      <trkpt lat="47.63968" lon="1.4216">
        <ele>72</ele>
        <time>2017-09-17T08:31:49.000Z</time>
      </trkpt>
      <trkpt lat="47.63972" lon="1.42167">
        <ele>72</ele>
        <time>2017-09-17T08:31:50.000Z</time>
      </trkpt>
      <trkpt lat="47.64011" lon="1.42218">
        <ele>72</ele>
        <time>2017-09-17T08:31:58.000Z</time>
      </trkpt>
      <trkpt lat="47.64016" lon="1.42224">
        <ele>72</ele>
        <time>2017-09-17T08:31:59.000Z</time>
      </trkpt>
      <trkpt lat="47.64038" lon="1.42246">
        <ele>72</ele>
        <time>2017-09-17T08:32:03.000Z</time>
      </trkpt>
      <trkpt lat="47.64069" lon="1.42276">
        <ele>72</ele>
        <time>2017-09-17T08:32:09.000Z</time>
      </trkpt>
      <trkpt lat="47.64081" lon="1.4227">
        <ele>72</ele>
        <time>2017-09-17T08:32:11.000Z</time>
      </trkpt>
      <trkpt lat="47.64089" lon="1.42256">
        <ele>72</ele>
        <time>2017-09-17T08:32:13.000Z</time>
      </trkpt>
      <trkpt lat="47.64101" lon="1.42238">
        <ele>72</ele>
        <time>2017-09-17T08:32:16.000Z</time>
      </trkpt>
      <trkpt lat="47.6411" lon="1.42239">
        <ele>72</ele>
        <time>2017-09-17T08:32:18.000Z</time>
      </trkpt>
      <trkpt lat="47.64149" lon="1.42279">
        <ele>72</ele>
        <time>2017-09-17T08:32:26.000Z</time>
      </trkpt>
      <trkpt lat="47.64154" lon="1.42284">
        <ele>72</ele>
        <time>2017-09-17T08:32:27.000Z</time>
      </trkpt>
      <trkpt lat="47.64194" lon="1.42321">
        <ele>72</ele>
        <time>2017-09-17T08:32:34.000Z</time>
      </trkpt>
      <trkpt lat="47.64199" lon="1.42327">
        <ele>72</ele>
        <time>2017-09-17T08:32:35.000Z</time>
      </trkpt>
      <trkpt lat="47.64236" lon="1.42367">
        <ele>72</ele>
        <time>2017-09-17T08:32:42.000Z</time>
      </trkpt>
      <trkpt lat="47.6424" lon="1.42372">
        <ele>73</ele>
        <time>2017-09-17T08:32:43.000Z</time>
      </trkpt>
      <trkpt lat="47.6428" lon="1.42413">
        <ele>73</ele>
        <time>2017-09-17T08:32:51.000Z</time>
      </trkpt>
      <trkpt lat="47.64286" lon="1.42419">
        <ele>73</ele>
        <time>2017-09-17T08:32:52.000Z</time>
      </trkpt>
      <trkpt lat="47.64323" lon="1.42456">
        <ele>73</ele>
        <time>2017-09-17T08:32:59.000Z</time>
      </trkpt>
      <trkpt lat="47.64329" lon="1.42461">
        <ele>73</ele>
        <time>2017-09-17T08:33:00.000Z</time>
      </trkpt>
      <trkpt lat="47.6437" lon="1.42507">
        <ele>73</ele>
        <time>2017-09-17T08:33:08.000Z</time>
      </trkpt>
      <trkpt lat="47.64375" lon="1.42513">
        <ele>73</ele>
        <time>2017-09-17T08:33:09.000Z</time>
      </trkpt>
      <trkpt lat="47.64408" lon="1.42556">
        <ele>73</ele>
        <time>2017-09-17T08:33:16.000Z</time>
      </trkpt>
      <trkpt lat="47.64413" lon="1.42562">
        <ele>73</ele>
        <time>2017-09-17T08:33:17.000Z</time>
      </trkpt>
      <trkpt lat="47.64449" lon="1.42609">
        <ele>73</ele>
        <time>2017-09-17T08:33:24.000Z</time>
      </trkpt>
      <trkpt lat="47.64454" lon="1.42616">
        <ele>73</ele>
        <time>2017-09-17T08:33:25.000Z</time>
      </trkpt>
      <trkpt lat="47.64489" lon="1.42662">
        <ele>73</ele>
        <time>2017-09-17T08:33:32.000Z</time>
      </trkpt>
      <trkpt lat="47.64494" lon="1.42668">
        <ele>73</ele>
        <time>2017-09-17T08:33:33.000Z</time>
      </trkpt>
      <trkpt lat="47.64528" lon="1.42716">
        <ele>73</ele>
        <time>2017-09-17T08:33:40.000Z</time>
      </trkpt>
      <trkpt lat="47.64533" lon="1.42723">
        <ele>73</ele>
        <time>2017-09-17T08:33:41.000Z</time>
      </trkpt>
      <trkpt lat="47.64542" lon="1.42738">
        <ele>72</ele>
        <time>2017-09-17T08:33:43.000Z</time>
      </trkpt>
      <trkpt lat="47.64573" lon="1.4279">
        <ele>72</ele>
        <time>2017-09-17T08:33:50.000Z</time>
      </trkpt>
      <trkpt lat="47.64578" lon="1.42797">
        <ele>72</ele>
        <time>2017-09-17T08:33:51.000Z</time>
      </trkpt>
      <trkpt lat="47.64606" lon="1.42828">
        <ele>72</ele>
        <time>2017-09-17T08:33:56.000Z</time>
      </trkpt>
      <trkpt lat="47.64645" lon="1.42869">
        <ele>73</ele>
        <time>2017-09-17T08:34:03.000Z</time>
      </trkpt>
      <trkpt lat="47.64651" lon="1.42874">
        <ele>72</ele>
        <time>2017-09-17T08:34:04.000Z</time>
      </trkpt>
      <trkpt lat="47.64693" lon="1.42915">
        <ele>72</ele>
        <time>2017-09-17T08:34:12.000Z</time>
      </trkpt>
      <trkpt lat="47.64699" lon="1.42921">
        <ele>72</ele>
        <time>2017-09-17T08:34:13.000Z</time>
      </trkpt>
      <trkpt lat="47.64736" lon="1.42963">
        <ele>72</ele>
        <time>2017-09-17T08:34:20.000Z</time>
      </trkpt>
      <trkpt lat="47.64741" lon="1.4297">
        <ele>72</ele>
        <time>2017-09-17T08:34:21.000Z</time>
      </trkpt>
      <trkpt lat="47.64751" lon="1.42986">
        <ele>72</ele>
        <time>2017-09-17T08:34:23.000Z</time>
      </trkpt>
      <trkpt lat="47.64784" lon="1.43039">
        <ele>72</ele>
        <time>2017-09-17T08:34:30.000Z</time>
      </trkpt>
      <trkpt lat="47.64789" lon="1.43047">
        <ele>72</ele>
        <time>2017-09-17T08:34:31.000Z</time>
      </trkpt>
      <trkpt lat="47.6482" lon="1.431">
        <ele>72</ele>
        <time>2017-09-17T08:34:38.000Z</time>
      </trkpt>
      <trkpt lat="47.64825" lon="1.43108">
        <ele>72</ele>
        <time>2017-09-17T08:34:39.000Z</time>
      </trkpt>
      <trkpt lat="47.64855" lon="1.43167">
        <ele>72</ele>
        <time>2017-09-17T08:34:46.000Z</time>
      </trkpt>
      <trkpt lat="47.64858" lon="1.43175">
        <ele>72</ele>
        <time>2017-09-17T08:34:47.000Z</time>
      </trkpt>
      <trkpt lat="47.64886" lon="1.43228">
        <ele>72</ele>
        <time>2017-09-17T08:34:54.000Z</time>
      </trkpt>
      <trkpt lat="47.64891" lon="1.43235">
        <ele>72</ele>
        <time>2017-09-17T08:34:55.000Z</time>
      </trkpt>
      <trkpt lat="47.64925" lon="1.43292">
        <ele>72</ele>
        <time>2017-09-17T08:35:03.000Z</time>
      </trkpt>
      <trkpt lat="47.64929" lon="1.43299">
        <ele>72</ele>
        <time>2017-09-17T08:35:04.000Z</time>
      </trkpt>
      <trkpt lat="47.64959" lon="1.4335">
        <ele>72</ele>
        <time>2017-09-17T08:35:11.000Z</time>
      </trkpt>
      <trkpt lat="47.64963" lon="1.43358">
        <ele>72</ele>
        <time>2017-09-17T08:35:12.000Z</time>
      </trkpt>
      <trkpt lat="47.64997" lon="1.43406">
        <ele>72</ele>
        <time>2017-09-17T08:35:19.000Z</time>
      </trkpt>
      <trkpt lat="47.65002" lon="1.43414">
        <ele>72</ele>
        <time>2017-09-17T08:35:20.000Z</time>
      </trkpt>
      <trkpt lat="47.65027" lon="1.43472">
        <ele>72</ele>
        <time>2017-09-17T08:35:27.000Z</time>
      </trkpt>
      <trkpt lat="47.6503" lon="1.43481">
        <ele>72</ele>
        <time>2017-09-17T08:35:28.000Z</time>
      </trkpt>
      <trkpt lat="47.6505" lon="1.4355">
        <ele>72</ele>
        <time>2017-09-17T08:35:36.000Z</time>
      </trkpt>
      <trkpt lat="47.65053" lon="1.43558">
        <ele>72</ele>
        <time>2017-09-17T08:35:37.000Z</time>
      </trkpt>
      <trkpt lat="47.65071" lon="1.43625">
        <ele>71</ele>
        <time>2017-09-17T08:35:45.000Z</time>
      </trkpt>
      <trkpt lat="47.65073" lon="1.43634">
        <ele>71</ele>
        <time>2017-09-17T08:35:46.000Z</time>
      </trkpt>
      <trkpt lat="47.65086" lon="1.43707">
        <ele>72</ele>
        <time>2017-09-17T08:35:54.000Z</time>
      </trkpt>
      <trkpt lat="47.65087" lon="1.43717">
        <ele>72</ele>
        <time>2017-09-17T08:35:55.000Z</time>
      </trkpt>
      <trkpt lat="47.65093" lon="1.43785">
        <ele>74</ele>
        <time>2017-09-17T08:36:02.000Z</time>
      </trkpt>
      <trkpt lat="47.65094" lon="1.43795">
        <ele>75</ele>
        <time>2017-09-17T08:36:03.000Z</time>
      </trkpt>
      <trkpt lat="47.65095" lon="1.43836">
        <ele>75</ele>
        <time>2017-09-17T08:36:07.000Z</time>
      </trkpt>
      <trkpt lat="47.65091" lon="1.43909">
        <ele>76</ele>
        <time>2017-09-17T08:36:14.000Z</time>
      </trkpt>
      <trkpt lat="47.6509" lon="1.43919">
        <ele>76</ele>
        <time>2017-09-17T08:36:15.000Z</time>
      </trkpt>
      <trkpt lat="47.65084" lon="1.43985">
        <ele>75</ele>
        <time>2017-09-17T08:36:22.000Z</time>
      </trkpt>
      <trkpt lat="47.65083" lon="1.43994">
        <ele>75</ele>
        <time>2017-09-17T08:36:23.000Z</time>
      </trkpt>
      <trkpt lat="47.65074" lon="1.4407">
        <ele>76</ele>
        <time>2017-09-17T08:36:31.000Z</time>
      </trkpt>
      <trkpt lat="47.65075" lon="1.4408">
        <ele>76</ele>
        <time>2017-09-17T08:36:32.000Z</time>
      </trkpt>
      <trkpt lat="47.65075" lon="1.44152">
        <ele>76</ele>
        <time>2017-09-17T08:36:39.000Z</time>
      </trkpt>
      <trkpt lat="47.65075" lon="1.44162">
        <ele>76</ele>
        <time>2017-09-17T08:36:40.000Z</time>
      </trkpt>
      <trkpt lat="47.65073" lon="1.44237">
        <ele>77</ele>
        <time>2017-09-17T08:36:48.000Z</time>
      </trkpt>
      <trkpt lat="47.65073" lon="1.44246">
        <ele>77</ele>
        <time>2017-09-17T08:36:49.000Z</time>
      </trkpt>
      <trkpt lat="47.65071" lon="1.44321">
        <ele>78</ele>
        <time>2017-09-17T08:36:57.000Z</time>
      </trkpt>
      <trkpt lat="47.6507" lon="1.4433">
        <ele>78</ele>
        <time>2017-09-17T08:36:58.000Z</time>
      </trkpt>
      <trkpt lat="47.65063" lon="1.44403">
        <ele>78</ele>
        <time>2017-09-17T08:37:06.000Z</time>
      </trkpt>
      <trkpt lat="47.65062" lon="1.44412">
        <ele>78</ele>
        <time>2017-09-17T08:37:07.000Z</time>
      </trkpt>
      <trkpt lat="47.65062" lon="1.44425">
        <ele>77</ele>
        <time>2017-09-17T08:37:09.000Z</time>
      </trkpt>
      <trkpt lat="47.65075" lon="1.44495">
        <ele>74</ele>
        <time>2017-09-17T08:37:20.000Z</time>
      </trkpt>
      <trkpt lat="47.65077" lon="1.44504">
        <ele>74</ele>
        <time>2017-09-17T08:37:21.000Z</time>
      </trkpt>
      <trkpt lat="47.65082" lon="1.44551">
        <ele>73</ele>
        <time>2017-09-17T08:37:26.000Z</time>
      </trkpt>
      <trkpt lat="47.65089" lon="1.44626">
        <ele>73</ele>
        <time>2017-09-17T08:37:34.000Z</time>
      </trkpt>
      <trkpt lat="47.6509" lon="1.44636">
        <ele>73</ele>
        <time>2017-09-17T08:37:35.000Z</time>
      </trkpt>
      <trkpt lat="47.65096" lon="1.44704">
        <ele>74</ele>
        <time>2017-09-17T08:37:42.000Z</time>
      </trkpt>
      <trkpt lat="47.65096" lon="1.44713">
        <ele>74</ele>
        <time>2017-09-17T08:37:43.000Z</time>
      </trkpt>
      <trkpt lat="47.65099" lon="1.44789">
        <ele>74</ele>
        <time>2017-09-17T08:37:51.000Z</time>
      </trkpt>
      <trkpt lat="47.65099" lon="1.44798">
        <ele>74</ele>
        <time>2017-09-17T08:37:52.000Z</time>
      </trkpt>
      <trkpt lat="47.65096" lon="1.44872">
        <ele>75</ele>
        <time>2017-09-17T08:38:00.000Z</time>
      </trkpt>
      <trkpt lat="47.65096" lon="1.44881">
        <ele>75</ele>
        <time>2017-09-17T08:38:01.000Z</time>
      </trkpt>
      <trkpt lat="47.65097" lon="1.44952">
        <ele>75</ele>
        <time>2017-09-17T08:38:09.000Z</time>
      </trkpt>
      <trkpt lat="47.65097" lon="1.4496">
        <ele>75</ele>
        <time>2017-09-17T08:38:10.000Z</time>
      </trkpt>
      <trkpt lat="47.65103" lon="1.4503">
        <ele>75</ele>
        <time>2017-09-17T08:38:18.000Z</time>
      </trkpt>
      <trkpt lat="47.65104" lon="1.45039">
        <ele>75</ele>
        <time>2017-09-17T08:38:19.000Z</time>
      </trkpt>
      <trkpt lat="47.65113" lon="1.45092">
        <ele>76</ele>
        <time>2017-09-17T08:38:25.000Z</time>
      </trkpt>
      <trkpt lat="47.65129" lon="1.45164">
        <ele>76</ele>
        <time>2017-09-17T08:38:33.000Z</time>
      </trkpt>
      <trkpt lat="47.6513" lon="1.45172">
        <ele>76</ele>
        <time>2017-09-17T08:38:34.000Z</time>
      </trkpt>
      <trkpt lat="47.65145" lon="1.45235">
        <ele>74</ele>
        <time>2017-09-17T08:38:41.000Z</time>
      </trkpt>
      <trkpt lat="47.65146" lon="1.45246">
        <ele>73</ele>
        <time>2017-09-17T08:38:42.000Z</time>
      </trkpt>
      <trkpt lat="47.65144" lon="1.45301">
        <ele>72</ele>
        <time>2017-09-17T08:38:47.000Z</time>
      </trkpt>
      <trkpt lat="47.65143" lon="1.45313">
        <ele>72</ele>
        <time>2017-09-17T08:38:48.000Z</time>
      </trkpt>
      <trkpt lat="47.65144" lon="1.45384">
        <ele>71</ele>
        <time>2017-09-17T08:38:54.000Z</time>
      </trkpt>
      <trkpt lat="47.65144" lon="1.45395">
        <ele>71</ele>
        <time>2017-09-17T08:38:55.000Z</time>
      </trkpt>
      <trkpt lat="47.65147" lon="1.45472">
        <ele>70</ele>
        <time>2017-09-17T08:39:02.000Z</time>
      </trkpt>
      <trkpt lat="47.65147" lon="1.45482">
        <ele>70</ele>
        <time>2017-09-17T08:39:03.000Z</time>
      </trkpt>
      <trkpt lat="47.65149" lon="1.45513">
        <ele>70</ele>
        <time>2017-09-17T08:39:06.000Z</time>
      </trkpt>
      <trkpt lat="47.65154" lon="1.45584">
        <ele>70</ele>
        <time>2017-09-17T08:39:13.000Z</time>
      </trkpt>
      <trkpt lat="47.65155" lon="1.45595">
        <ele>69</ele>
        <time>2017-09-17T08:39:14.000Z</time>
      </trkpt>
      <trkpt lat="47.65164" lon="1.4567">
        <ele>69</ele>
        <time>2017-09-17T08:39:21.000Z</time>
      </trkpt>
      <trkpt lat="47.65165" lon="1.45681">
        <ele>69</ele>
        <time>2017-09-17T08:39:22.000Z</time>
      </trkpt>
      <trkpt lat="47.65173" lon="1.45758">
        <ele>68</ele>
        <time>2017-09-17T08:39:29.000Z</time>
      </trkpt>
      <trkpt lat="47.65174" lon="1.4577">
        <ele>68</ele>
        <time>2017-09-17T08:39:30.000Z</time>
      </trkpt>
      <trkpt lat="47.65182" lon="1.45836">
        <ele>68</ele>
        <time>2017-09-17T08:39:36.000Z</time>
      </trkpt>
      <trkpt lat="47.65183" lon="1.45847">
        <ele>68</ele>
        <time>2017-09-17T08:39:37.000Z</time>
      </trkpt>
      <trkpt lat="47.65194" lon="1.45921">
        <ele>68</ele>
        <time>2017-09-17T08:39:44.000Z</time>
      </trkpt>
      <trkpt lat="47.65195" lon="1.45931">
        <ele>68</ele>
        <time>2017-09-17T08:39:45.000Z</time>
      </trkpt>
      <trkpt lat="47.652" lon="1.46002">
        <ele>67</ele>
        <time>2017-09-17T08:39:52.000Z</time>
      </trkpt>
      <trkpt lat="47.65201" lon="1.46012">
        <ele>67</ele>
        <time>2017-09-17T08:39:53.000Z</time>
      </trkpt>
      <trkpt lat="47.65208" lon="1.46082">
        <ele>67</ele>
        <time>2017-09-17T08:40:00.000Z</time>
      </trkpt>
      <trkpt lat="47.65209" lon="1.46092">
        <ele>67</ele>
        <time>2017-09-17T08:40:01.000Z</time>
      </trkpt>
      <trkpt lat="47.65213" lon="1.46161">
        <ele>67</ele>
        <time>2017-09-17T08:40:08.000Z</time>
      </trkpt>
      <trkpt lat="47.65213" lon="1.4617">
        <ele>67</ele>
        <time>2017-09-17T08:40:09.000Z</time>
      </trkpt>
      <trkpt lat="47.65212" lon="1.46241">
        <ele>67</ele>
        <time>2017-09-17T08:40:16.000Z</time>
      </trkpt>
      <trkpt lat="47.65212" lon="1.46251">
        <ele>67</ele>
        <time>2017-09-17T08:40:17.000Z</time>
      </trkpt>
      <trkpt lat="47.65216" lon="1.46319">
        <ele>67</ele>
        <time>2017-09-17T08:40:24.000Z</time>
      </trkpt>
      <trkpt lat="47.65217" lon="1.46329">
        <ele>67</ele>
        <time>2017-09-17T08:40:25.000Z</time>
      </trkpt>
      <trkpt lat="47.65224" lon="1.46405">
        <ele>66</ele>
        <time>2017-09-17T08:40:33.000Z</time>
      </trkpt>
      <trkpt lat="47.65225" lon="1.46414">
        <ele>66</ele>
        <time>2017-09-17T08:40:34.000Z</time>
      </trkpt>
      <trkpt lat="47.65234" lon="1.46488">
        <ele>66</ele>
        <time>2017-09-17T08:40:42.000Z</time>
      </trkpt>
      <trkpt lat="47.65236" lon="1.46497">
        <ele>66</ele>
        <time>2017-09-17T08:40:43.000Z</time>
      </trkpt>
      <trkpt lat="47.65242" lon="1.46565">
        <ele>66</ele>
        <time>2017-09-17T08:40:50.000Z</time>
      </trkpt>
      <trkpt lat="47.65243" lon="1.46575">
        <ele>66</ele>
        <time>2017-09-17T08:40:51.000Z</time>
      </trkpt>
      <trkpt lat="47.65248" lon="1.46645">
        <ele>65</ele>
        <time>2017-09-17T08:40:58.000Z</time>
      </trkpt>
      <trkpt lat="47.65249" lon="1.46656">
        <ele>65</ele>
        <time>2017-09-17T08:40:59.000Z</time>
      </trkpt>
      <trkpt lat="47.65254" lon="1.46727">
        <ele>65</ele>
        <time>2017-09-17T08:41:06.000Z</time>
      </trkpt>
      <trkpt lat="47.65255" lon="1.46736">
        <ele>65</ele>
        <time>2017-09-17T08:41:07.000Z</time>
      </trkpt>
      <trkpt lat="47.6526" lon="1.46807">
        <ele>66</ele>
        <time>2017-09-17T08:41:15.000Z</time>
      </trkpt>
      <trkpt lat="47.6526" lon="1.46815">
        <ele>66</ele>
        <time>2017-09-17T08:41:16.000Z</time>
      </trkpt>
      <trkpt lat="47.65268" lon="1.46886">
        <ele>66</ele>
        <time>2017-09-17T08:41:25.000Z</time>
      </trkpt>
      <trkpt lat="47.65269" lon="1.46894">
        <ele>66</ele>
        <time>2017-09-17T08:41:26.000Z</time>
      </trkpt>
      <trkpt lat="47.65276" lon="1.46966">
        <ele>66</ele>
        <time>2017-09-17T08:41:35.000Z</time>
      </trkpt>
      <trkpt lat="47.65277" lon="1.46974">
        <ele>66</ele>
        <time>2017-09-17T08:41:36.000Z</time>
      </trkpt>
      <trkpt lat="47.65287" lon="1.4704">
        <ele>66</ele>
        <time>2017-09-17T08:41:44.000Z</time>
      </trkpt>
      <trkpt lat="47.65289" lon="1.47049">
        <ele>66</ele>
        <time>2017-09-17T08:41:45.000Z</time>
      </trkpt>
      <trkpt lat="47.65305" lon="1.47119">
        <ele>66</ele>
        <time>2017-09-17T08:41:53.000Z</time>
      </trkpt>
      <trkpt lat="47.65308" lon="1.47128">
        <ele>66</ele>
        <time>2017-09-17T08:41:54.000Z</time>
      </trkpt>
      <trkpt lat="47.65332" lon="1.47187">
        <ele>66</ele>
        <time>2017-09-17T08:42:01.000Z</time>
      </trkpt>
      <trkpt lat="47.65334" lon="1.47197">
        <ele>66</ele>
        <time>2017-09-17T08:42:02.000Z</time>
      </trkpt>
      <trkpt lat="47.65337" lon="1.4727">
        <ele>67</ele>
        <time>2017-09-17T08:42:09.000Z</time>
      </trkpt>
      <trkpt lat="47.65339" lon="1.4728">
        <ele>67</ele>
        <time>2017-09-17T08:42:10.000Z</time>
      </trkpt>
      <trkpt lat="47.65344" lon="1.47307">
        <ele>67</ele>
        <time>2017-09-17T08:42:13.000Z</time>
      </trkpt>
      <trkpt lat="47.65359" lon="1.4738">
        <ele>67</ele>
        <time>2017-09-17T08:42:21.000Z</time>
      </trkpt>
      <trkpt lat="47.65361" lon="1.4739">
        <ele>67</ele>
        <time>2017-09-17T08:42:22.000Z</time>
      </trkpt>
      <trkpt lat="47.65373" lon="1.47463">
        <ele>68</ele>
        <time>2017-09-17T08:42:30.000Z</time>
      </trkpt>
      <trkpt lat="47.65376" lon="1.47471">
        <ele>68</ele>
        <time>2017-09-17T08:42:31.000Z</time>
      </trkpt>
      <trkpt lat="47.65391" lon="1.47541">
        <ele>68</ele>
        <time>2017-09-17T08:42:39.000Z</time>
      </trkpt>
      <trkpt lat="47.65392" lon="1.4755">
        <ele>68</ele>
        <time>2017-09-17T08:42:40.000Z</time>
      </trkpt>
      <trkpt lat="47.65408" lon="1.47621">
        <ele>68</ele>
        <time>2017-09-17T08:42:48.000Z</time>
      </trkpt>
      <trkpt lat="47.65411" lon="1.47629">
        <ele>68</ele>
        <time>2017-09-17T08:42:49.000Z</time>
      </trkpt>
      <trkpt lat="47.65428" lon="1.47695">
        <ele>68</ele>
        <time>2017-09-17T08:42:56.000Z</time>
      </trkpt>
      <trkpt lat="47.6543" lon="1.47705">
        <ele>68</ele>
        <time>2017-09-17T08:42:57.000Z</time>
      </trkpt>
      <trkpt lat="47.65436" lon="1.47751">
        <ele>67</ele>
        <time>2017-09-17T08:43:02.000Z</time>
      </trkpt>
      <trkpt lat="47.65437" lon="1.47785">
        <ele>68</ele>
        <time>2017-09-17T08:43:07.000Z</time>
      </trkpt>
      <trkpt lat="47.65436" lon="1.47795">
        <ele>69</ele>
        <time>2017-09-17T08:43:10.000Z</time>
      </trkpt>
      <trkpt lat="47.65442" lon="1.47813">
        <ele>69</ele>
        <time>2017-09-17T08:43:14.000Z</time>
      </trkpt>
      <trkpt lat="47.65466" lon="1.47864">
        <ele>68</ele>
        <time>2017-09-17T08:43:23.000Z</time>
      </trkpt>
      <trkpt lat="47.65469" lon="1.47871">
        <ele>68</ele>
        <time>2017-09-17T08:43:24.000Z</time>
      </trkpt>
      <trkpt lat="47.65488" lon="1.4794">
        <ele>70</ele>
        <time>2017-09-17T08:43:33.000Z</time>
      </trkpt>
      <trkpt lat="47.6549" lon="1.47949">
        <ele>70</ele>
        <time>2017-09-17T08:43:34.000Z</time>
      </trkpt>
      <trkpt lat="47.65504" lon="1.4802">
        <ele>72</ele>
        <time>2017-09-17T08:43:42.000Z</time>
      </trkpt>
      <trkpt lat="47.65507" lon="1.48029">
        <ele>72</ele>
        <time>2017-09-17T08:43:43.000Z</time>
      </trkpt>
      <trkpt lat="47.6552" lon="1.48098">
        <ele>74</ele>
        <time>2017-09-17T08:43:51.000Z</time>
      </trkpt>
      <trkpt lat="47.65522" lon="1.48107">
        <ele>74</ele>
        <time>2017-09-17T08:43:52.000Z</time>
      </trkpt>
      <trkpt lat="47.65536" lon="1.48175">
        <ele>75</ele>
        <time>2017-09-17T08:44:00.000Z</time>
      </trkpt>
      <trkpt lat="47.65539" lon="1.48183">
        <ele>75</ele>
        <time>2017-09-17T08:44:01.000Z</time>
      </trkpt>
      <trkpt lat="47.65557" lon="1.48251">
        <ele>74</ele>
        <time>2017-09-17T08:44:09.000Z</time>
      </trkpt>
      <trkpt lat="47.65559" lon="1.4826">
        <ele>74</ele>
        <time>2017-09-17T08:44:10.000Z</time>
      </trkpt>
      <trkpt lat="47.65572" lon="1.48327">
        <ele>73</ele>
        <time>2017-09-17T08:44:17.000Z</time>
      </trkpt>
      <trkpt lat="47.65574" lon="1.48336">
        <ele>73</ele>
        <time>2017-09-17T08:44:18.000Z</time>
      </trkpt>
      <trkpt lat="47.65586" lon="1.48403">
        <ele>73</ele>
        <time>2017-09-17T08:44:25.000Z</time>
      </trkpt>
      <trkpt lat="47.65588" lon="1.48412">
        <ele>73</ele>
        <time>2017-09-17T08:44:26.000Z</time>
      </trkpt>
      <trkpt lat="47.65607" lon="1.4848">
        <ele>73</ele>
        <time>2017-09-17T08:44:34.000Z</time>
      </trkpt>
      <trkpt lat="47.6561" lon="1.48489">
        <ele>72</ele>
        <time>2017-09-17T08:44:35.000Z</time>
      </trkpt>
      <trkpt lat="47.65633" lon="1.48555">
        <ele>72</ele>
        <time>2017-09-17T08:44:43.000Z</time>
      </trkpt>
      <trkpt lat="47.65636" lon="1.48563">
        <ele>72</ele>
        <time>2017-09-17T08:44:44.000Z</time>
      </trkpt>
      <trkpt lat="47.65659" lon="1.48631">
        <ele>73</ele>
        <time>2017-09-17T08:44:52.000Z</time>
      </trkpt>
      <trkpt lat="47.65662" lon="1.4864">
        <ele>73</ele>
        <time>2017-09-17T08:44:53.000Z</time>
      </trkpt>
      <trkpt lat="47.65682" lon="1.48705">
        <ele>73</ele>
        <time>2017-09-17T08:45:00.000Z</time>
      </trkpt>
      <trkpt lat="47.65685" lon="1.48714">
        <ele>73</ele>
        <time>2017-09-17T08:45:01.000Z</time>
      </trkpt>
      <trkpt lat="47.65704" lon="1.48776">
        <ele>73</ele>
        <time>2017-09-17T08:45:08.000Z</time>
      </trkpt>
      <trkpt lat="47.65707" lon="1.48785">
        <ele>72</ele>
        <time>2017-09-17T08:45:09.000Z</time>
      </trkpt>
      <trkpt lat="47.65727" lon="1.48848">
        <ele>72</ele>
        <time>2017-09-17T08:45:16.000Z</time>
      </trkpt>
      <trkpt lat="47.6573" lon="1.48857">
        <ele>72</ele>
        <time>2017-09-17T08:45:17.000Z</time>
      </trkpt>
      <trkpt lat="47.65744" lon="1.48923">
        <ele>71</ele>
        <time>2017-09-17T08:45:24.000Z</time>
      </trkpt>
      <trkpt lat="47.65747" lon="1.48932">
        <ele>71</ele>
        <time>2017-09-17T08:45:25.000Z</time>
      </trkpt>
      <trkpt lat="47.65761" lon="1.49001">
        <ele>72</ele>
        <time>2017-09-17T08:45:33.000Z</time>
      </trkpt>
      <trkpt lat="47.65763" lon="1.49009">
        <ele>72</ele>
        <time>2017-09-17T08:45:34.000Z</time>
      </trkpt>
      <trkpt lat="47.65781" lon="1.4908">
        <ele>72</ele>
        <time>2017-09-17T08:45:43.000Z</time>
      </trkpt>
      <trkpt lat="47.65784" lon="1.49089">
        <ele>72</ele>
        <time>2017-09-17T08:45:44.000Z</time>
      </trkpt>
      <trkpt lat="47.65803" lon="1.49151">
        <ele>72</ele>
        <time>2017-09-17T08:45:51.000Z</time>
      </trkpt>
      <trkpt lat="47.65806" lon="1.4916">
        <ele>71</ele>
        <time>2017-09-17T08:45:52.000Z</time>
      </trkpt>
      <trkpt lat="47.65827" lon="1.49226">
        <ele>71</ele>
        <time>2017-09-17T08:45:59.000Z</time>
      </trkpt>
      <trkpt lat="47.65829" lon="1.49235">
        <ele>71</ele>
        <time>2017-09-17T08:46:00.000Z</time>
      </trkpt>
      <trkpt lat="47.65836" lon="1.49274">
        <ele>71</ele>
        <time>2017-09-17T08:46:04.000Z</time>
      </trkpt>
      <trkpt lat="47.65846" lon="1.49347">
        <ele>72</ele>
        <time>2017-09-17T08:46:12.000Z</time>
      </trkpt>
      <trkpt lat="47.65847" lon="1.49355">
        <ele>72</ele>
        <time>2017-09-17T08:46:13.000Z</time>
      </trkpt>
      <trkpt lat="47.65852" lon="1.4938">
        <ele>73</ele>
        <time>2017-09-17T08:46:16.000Z</time>
      </trkpt>
      <trkpt lat="47.65867" lon="1.49445">
        <ele>74</ele>
        <time>2017-09-17T08:46:26.000Z</time>
      </trkpt>
      <trkpt lat="47.65869" lon="1.49451">
        <ele>74</ele>
        <time>2017-09-17T08:46:27.000Z</time>
      </trkpt>
      <trkpt lat="47.65889" lon="1.49514">
        <ele>73</ele>
        <time>2017-09-17T08:46:36.000Z</time>
      </trkpt>
      <trkpt lat="47.65892" lon="1.49521">
        <ele>73</ele>
        <time>2017-09-17T08:46:37.000Z</time>
      </trkpt>
      <trkpt lat="47.65908" lon="1.49563">
        <ele>74</ele>
        <time>2017-09-17T08:46:43.000Z</time>
      </trkpt>
      <trkpt lat="47.6593" lon="1.49623">
        <ele>75</ele>
        <time>2017-09-17T08:46:51.000Z</time>
      </trkpt>
      <trkpt lat="47.65932" lon="1.49631">
        <ele>75</ele>
        <time>2017-09-17T08:46:52.000Z</time>
      </trkpt>
      <trkpt lat="47.65953" lon="1.49699">
        <ele>75</ele>
        <time>2017-09-17T08:47:00.000Z</time>
      </trkpt>
      <trkpt lat="47.65956" lon="1.49708">
        <ele>75</ele>
        <time>2017-09-17T08:47:01.000Z</time>
      </trkpt>
      <trkpt lat="47.65979" lon="1.49772">
        <ele>76</ele>
        <time>2017-09-17T08:47:09.000Z</time>
      </trkpt>
      <trkpt lat="47.65981" lon="1.4978">
        <ele>76</ele>
        <time>2017-09-17T08:47:10.000Z</time>
      </trkpt>
      <trkpt lat="47.66002" lon="1.49845">
        <ele>76</ele>
        <time>2017-09-17T08:47:18.000Z</time>
      </trkpt>
      <trkpt lat="47.66005" lon="1.49853">
        <ele>76</ele>
        <time>2017-09-17T08:47:19.000Z</time>
      </trkpt>
      <trkpt lat="47.66026" lon="1.49915">
        <ele>76</ele>
        <time>2017-09-17T08:47:27.000Z</time>
      </trkpt>
      <trkpt lat="47.66028" lon="1.49923">
        <ele>76</ele>
        <time>2017-09-17T08:47:28.000Z</time>
      </trkpt>
      <trkpt lat="47.66039" lon="1.4996">
        <ele>76</ele>
        <time>2017-09-17T08:47:33.000Z</time>
      </trkpt>
      <trkpt lat="47.66058" lon="1.50023">
        <ele>76</ele>
        <time>2017-09-17T08:47:41.000Z</time>
      </trkpt>
      <trkpt lat="47.6606" lon="1.50031">
        <ele>75</ele>
        <time>2017-09-17T08:47:42.000Z</time>
      </trkpt>
      <trkpt lat="47.66082" lon="1.50097">
        <ele>75</ele>
        <time>2017-09-17T08:47:50.000Z</time>
      </trkpt>
      <trkpt lat="47.66084" lon="1.50104">
        <ele>76</ele>
        <time>2017-09-17T08:47:51.000Z</time>
      </trkpt>
      <trkpt lat="47.66102" lon="1.50173">
        <ele>76</ele>
        <time>2017-09-17T08:48:01.000Z</time>
      </trkpt>
      <trkpt lat="47.66104" lon="1.5018">
        <ele>76</ele>
        <time>2017-09-17T08:48:02.000Z</time>
      </trkpt>
      <trkpt lat="47.66127" lon="1.50247">
        <ele>75</ele>
        <time>2017-09-17T08:48:11.000Z</time>
      </trkpt>
      <trkpt lat="47.6613" lon="1.50256">
        <ele>75</ele>
        <time>2017-09-17T08:48:12.000Z</time>
      </trkpt>
      <trkpt lat="47.66153" lon="1.5032">
        <ele>74</ele>
        <time>2017-09-17T08:48:20.000Z</time>
      </trkpt>
      <trkpt lat="47.66156" lon="1.50328">
        <ele>74</ele>
        <time>2017-09-17T08:48:21.000Z</time>
      </trkpt>
      <trkpt lat="47.66175" lon="1.50393">
        <ele>74</ele>
        <time>2017-09-17T08:48:29.000Z</time>
      </trkpt>
      <trkpt lat="47.66177" lon="1.50401">
        <ele>74</ele>
        <time>2017-09-17T08:48:30.000Z</time>
      </trkpt>
      <trkpt lat="47.66198" lon="1.50469">
        <ele>75</ele>
        <time>2017-09-17T08:48:39.000Z</time>
      </trkpt>
      <trkpt lat="47.662" lon="1.50476">
        <ele>75</ele>
        <time>2017-09-17T08:48:40.000Z</time>
      </trkpt>
      <trkpt lat="47.6622" lon="1.50537">
        <ele>77</ele>
        <time>2017-09-17T08:48:48.000Z</time>
      </trkpt>
      <trkpt lat="47.66222" lon="1.50545">
        <ele>77</ele>
        <time>2017-09-17T08:48:49.000Z</time>
      </trkpt>
      <trkpt lat="47.66245" lon="1.50609">
        <ele>77</ele>
        <time>2017-09-17T08:48:57.000Z</time>
      </trkpt>
      <trkpt lat="47.66248" lon="1.50617">
        <ele>78</ele>
        <time>2017-09-17T08:48:58.000Z</time>
      </trkpt>
      <trkpt lat="47.66265" lon="1.5068">
        <ele>79</ele>
        <time>2017-09-17T08:49:07.000Z</time>
      </trkpt>
      <trkpt lat="47.66267" lon="1.50688">
        <ele>79</ele>
        <time>2017-09-17T08:49:08.000Z</time>
      </trkpt>
      <trkpt lat="47.66285" lon="1.50751">
        <ele>78</ele>
        <time>2017-09-17T08:49:16.000Z</time>
      </trkpt>
      <trkpt lat="47.66286" lon="1.50759">
        <ele>78</ele>
        <time>2017-09-17T08:49:17.000Z</time>
      </trkpt>
      <trkpt lat="47.66298" lon="1.50793">
        <ele>78</ele>
        <time>2017-09-17T08:49:21.000Z</time>
      </trkpt>
      <trkpt lat="47.66322" lon="1.50853">
        <ele>78</ele>
        <time>2017-09-17T08:49:29.000Z</time>
      </trkpt>
      <trkpt lat="47.66325" lon="1.5086">
        <ele>78</ele>
        <time>2017-09-17T08:49:30.000Z</time>
      </trkpt>
      <trkpt lat="47.66348" lon="1.50919">
        <ele>77</ele>
        <time>2017-09-17T08:49:37.000Z</time>
      </trkpt>
      <trkpt lat="47.66352" lon="1.50928">
        <ele>76</ele>
        <time>2017-09-17T08:49:38.000Z</time>
      </trkpt>
      <trkpt lat="47.66374" lon="1.50989">
        <ele>76</ele>
        <time>2017-09-17T08:49:45.000Z</time>
      </trkpt>
      <trkpt lat="47.66377" lon="1.50998">
        <ele>76</ele>
        <time>2017-09-17T08:49:46.000Z</time>
      </trkpt>
      <trkpt lat="47.66391" lon="1.51046">
        <ele>77</ele>
        <time>2017-09-17T08:49:52.000Z</time>
      </trkpt>
      <trkpt lat="47.66402" lon="1.51084">
        <ele>78</ele>
        <time>2017-09-17T08:49:57.000Z</time>
      </trkpt>
      <trkpt lat="47.66429" lon="1.51142">
        <ele>78</ele>
        <time>2017-09-17T08:50:05.000Z</time>
      </trkpt>
      <trkpt lat="47.66432" lon="1.51149">
        <ele>78</ele>
        <time>2017-09-17T08:50:06.000Z</time>
      </trkpt>
      <trkpt lat="47.66439" lon="1.51173">
        <ele>78</ele>
        <time>2017-09-17T08:50:09.000Z</time>
      </trkpt>
      <trkpt lat="47.66447" lon="1.51198">
        <ele>78</ele>
        <time>2017-09-17T08:50:12.000Z</time>
      </trkpt>
      <trkpt lat="47.66463" lon="1.51232">
        <ele>78</ele>
        <time>2017-09-17T08:50:17.000Z</time>
      </trkpt>
      <trkpt lat="47.66493" lon="1.51288">
        <ele>78</ele>
        <time>2017-09-17T08:50:25.000Z</time>
      </trkpt>
      <trkpt lat="47.66497" lon="1.51295">
        <ele>78</ele>
        <time>2017-09-17T08:50:26.000Z</time>
      </trkpt>
      <trkpt lat="47.66523" lon="1.51352">
        <ele>79</ele>
        <time>2017-09-17T08:50:34.000Z</time>
      </trkpt>
      <trkpt lat="47.66526" lon="1.5136">
        <ele>79</ele>
        <time>2017-09-17T08:50:35.000Z</time>
      </trkpt>
      <trkpt lat="47.6655" lon="1.51419">
        <ele>79</ele>
        <time>2017-09-17T08:50:43.000Z</time>
      </trkpt>
      <trkpt lat="47.66553" lon="1.51427">
        <ele>79</ele>
        <time>2017-09-17T08:50:44.000Z</time>
      </trkpt>
      <trkpt lat="47.6657" lon="1.51453">
        <ele>78</ele>
        <time>2017-09-17T08:50:48.000Z</time>
      </trkpt>
      <trkpt lat="47.66583" lon="1.51475">
        <ele>77</ele>
        <time>2017-09-17T08:50:51.000Z</time>
      </trkpt>
      <trkpt lat="47.66604" lon="1.51535">
        <ele>77</ele>
        <time>2017-09-17T08:50:58.000Z</time>
      </trkpt>
      <trkpt lat="47.66606" lon="1.51543">
        <ele>77</ele>
        <time>2017-09-17T08:50:59.000Z</time>
      </trkpt>
      <trkpt lat="47.66624" lon="1.51593">
        <ele>77</ele>
        <time>2017-09-17T08:51:06.000Z</time>
      </trkpt>
      <trkpt lat="47.66656" lon="1.51647">
        <ele>78</ele>
        <time>2017-09-17T08:51:15.000Z</time>
      </trkpt>
      <trkpt lat="47.66661" lon="1.51654">
        <ele>78</ele>
        <time>2017-09-17T08:51:16.000Z</time>
      </trkpt>
      <trkpt lat="47.66692" lon="1.51708">
        <ele>79</ele>
        <time>2017-09-17T08:51:24.000Z</time>
      </trkpt>
      <trkpt lat="47.66696" lon="1.51715">
        <ele>79</ele>
        <time>2017-09-17T08:51:25.000Z</time>
      </trkpt>
      <trkpt lat="47.66727" lon="1.51767">
        <ele>79</ele>
        <time>2017-09-17T08:51:33.000Z</time>
      </trkpt>
      <trkpt lat="47.66731" lon="1.51774">
        <ele>79</ele>
        <time>2017-09-17T08:51:34.000Z</time>
      </trkpt>
      <trkpt lat="47.66764" lon="1.51831">
        <ele>78</ele>
        <time>2017-09-17T08:51:42.000Z</time>
      </trkpt>
      <trkpt lat="47.66768" lon="1.51839">
        <ele>79</ele>
        <time>2017-09-17T08:51:43.000Z</time>
      </trkpt>
      <trkpt lat="47.66774" lon="1.51855">
        <ele>79</ele>
        <time>2017-09-17T08:51:45.000Z</time>
      </trkpt>
      <trkpt lat="47.66805" lon="1.51914">
        <ele>79</ele>
        <time>2017-09-17T08:51:54.000Z</time>
      </trkpt>
      <trkpt lat="47.66808" lon="1.5192">
        <ele>80</ele>
        <time>2017-09-17T08:51:55.000Z</time>
      </trkpt>
      <trkpt lat="47.66839" lon="1.5197">
        <ele>80</ele>
        <time>2017-09-17T08:52:03.000Z</time>
      </trkpt>
      <trkpt lat="47.66843" lon="1.51977">
        <ele>80</ele>
        <time>2017-09-17T08:52:04.000Z</time>
      </trkpt>
      <trkpt lat="47.66873" lon="1.52031">
        <ele>80</ele>
        <time>2017-09-17T08:52:12.000Z</time>
      </trkpt>
      <trkpt lat="47.66877" lon="1.52038">
        <ele>80</ele>
        <time>2017-09-17T08:52:13.000Z</time>
      </trkpt>
      <trkpt lat="47.66897" lon="1.52088">
        <ele>81</ele>
        <time>2017-09-17T08:52:20.000Z</time>
      </trkpt>
      <trkpt lat="47.6692" lon="1.52149">
        <ele>81</ele>
        <time>2017-09-17T08:52:29.000Z</time>
      </trkpt>
      <trkpt lat="47.66922" lon="1.52156">
        <ele>81</ele>
        <time>2017-09-17T08:52:30.000Z</time>
      </trkpt>
      <trkpt lat="47.6693" lon="1.52188">
        <ele>80</ele>
        <time>2017-09-17T08:52:34.000Z</time>
      </trkpt>
      <trkpt lat="47.66942" lon="1.52256">
        <ele>77</ele>
        <time>2017-09-17T08:52:41.000Z</time>
      </trkpt>
      <trkpt lat="47.66944" lon="1.52267">
        <ele>77</ele>
        <time>2017-09-17T08:52:42.000Z</time>
      </trkpt>
      <trkpt lat="47.6695" lon="1.5234">
        <ele>75</ele>
        <time>2017-09-17T08:52:49.000Z</time>
      </trkpt>
      <trkpt lat="47.66952" lon="1.52349">
        <ele>75</ele>
        <time>2017-09-17T08:52:50.000Z</time>
      </trkpt>
      <trkpt lat="47.66959" lon="1.52376">
        <ele>75</ele>
        <time>2017-09-17T08:52:53.000Z</time>
      </trkpt>
      <trkpt lat="47.66982" lon="1.52442">
        <ele>74</ele>
        <time>2017-09-17T08:53:00.000Z</time>
      </trkpt>
      <trkpt lat="47.66985" lon="1.52451">
        <ele>73</ele>
        <time>2017-09-17T08:53:01.000Z</time>
      </trkpt>
      <trkpt lat="47.67002" lon="1.52487">
        <ele>73</ele>
        <time>2017-09-17T08:53:05.000Z</time>
      </trkpt>
      <trkpt lat="47.67036" lon="1.52536">
        <ele>74</ele>
        <time>2017-09-17T08:53:12.000Z</time>
      </trkpt>
      <trkpt lat="47.67041" lon="1.52542">
        <ele>74</ele>
        <time>2017-09-17T08:53:13.000Z</time>
      </trkpt>
      <trkpt lat="47.67046" lon="1.52549">
        <ele>74</ele>
        <time>2017-09-17T08:53:14.000Z</time>
      </trkpt>
      <trkpt lat="47.67083" lon="1.52591">
        <ele>76</ele>
        <time>2017-09-17T08:53:21.000Z</time>
      </trkpt>
      <trkpt lat="47.67088" lon="1.52597">
        <ele>76</ele>
        <time>2017-09-17T08:53:22.000Z</time>
      </trkpt>
      <trkpt lat="47.67125" lon="1.5264">
        <ele>78</ele>
        <time>2017-09-17T08:53:29.000Z</time>
      </trkpt>
      <trkpt lat="47.6713" lon="1.52646">
        <ele>78</ele>
        <time>2017-09-17T08:53:30.000Z</time>
      </trkpt>
      <trkpt lat="47.67168" lon="1.5269">
        <ele>80</ele>
        <time>2017-09-17T08:53:38.000Z</time>
      </trkpt>
      <trkpt lat="47.67171" lon="1.52695">
        <ele>80</ele>
        <time>2017-09-17T08:53:39.000Z</time>
      </trkpt>
      <trkpt lat="47.67208" lon="1.52745">
        <ele>82</ele>
        <time>2017-09-17T08:53:48.000Z</time>
      </trkpt>
      <trkpt lat="47.67212" lon="1.52751">
        <ele>82</ele>
        <time>2017-09-17T08:53:49.000Z</time>
      </trkpt>
      <trkpt lat="47.67245" lon="1.52804">
        <ele>83</ele>
        <time>2017-09-17T08:53:58.000Z</time>
      </trkpt>
      <trkpt lat="47.67249" lon="1.5281">
        <ele>83</ele>
        <time>2017-09-17T08:53:59.000Z</time>
      </trkpt>
      <trkpt lat="47.67252" lon="1.52816">
        <ele>83</ele>
        <time>2017-09-17T08:54:00.000Z</time>
      </trkpt>
      <trkpt lat="47.67263" lon="1.52832">
        <ele>82</ele>
        <time>2017-09-17T08:54:03.000Z</time>
      </trkpt>
      <trkpt lat="47.67274" lon="1.52835">
        <ele>82</ele>
        <time>2017-09-17T08:54:05.000Z</time>
      </trkpt>
      <trkpt lat="47.67286" lon="1.52829">
        <ele>81</ele>
        <time>2017-09-17T08:54:07.000Z</time>
      </trkpt>
      <trkpt lat="47.67327" lon="1.52785">
        <ele>77</ele>
        <time>2017-09-17T08:54:13.000Z</time>
      </trkpt>
      <trkpt lat="47.67334" lon="1.52777">
        <ele>77</ele>
        <time>2017-09-17T08:54:14.000Z</time>
      </trkpt>
      <trkpt lat="47.67364" lon="1.52744">
        <ele>77</ele>
        <time>2017-09-17T08:54:21.000Z</time>
      </trkpt>
      <trkpt lat="47.67361" lon="1.52735">
        <ele>76</ele>
        <time>2017-09-17T08:54:25.000Z</time>
      </trkpt>
      <trkpt lat="47.67374" lon="1.5274">
        <ele>76</ele>
        <time>2017-09-17T08:56:24.000Z</time>
      </trkpt>
      <trkpt lat="47.67378" lon="1.52749">
        <ele>76</ele>
        <time>2017-09-17T08:56:26.000Z</time>
      </trkpt>
      <trkpt lat="47.67387" lon="1.52786">
        <ele>76</ele>
        <time>2017-09-17T08:56:33.000Z</time>
      </trkpt>
      <trkpt lat="47.67384" lon="1.52854">
        <ele>77</ele>
        <time>2017-09-17T08:56:43.000Z</time>
      </trkpt>
      <trkpt lat="47.67384" lon="1.52861">
        <ele>77</ele>
        <time>2017-09-17T08:56:44.000Z</time>
      </trkpt>
      <trkpt lat="47.67386" lon="1.52924">
        <ele>76</ele>
        <time>2017-09-17T08:56:52.000Z</time>
      </trkpt>
      <trkpt lat="47.67388" lon="1.52932">
        <ele>76</ele>
        <time>2017-09-17T08:56:53.000Z</time>
      </trkpt>
      <trkpt lat="47.6741" lon="1.52995">
        <ele>75</ele>
        <time>2017-09-17T08:57:01.000Z</time>
      </trkpt>
      <trkpt lat="47.67413" lon="1.53003">
        <ele>75</ele>
        <time>2017-09-17T08:57:02.000Z</time>
      </trkpt>
      <trkpt lat="47.67437" lon="1.53064">
        <ele>75</ele>
        <time>2017-09-17T08:57:10.000Z</time>
      </trkpt>
      <trkpt lat="47.67437" lon="1.53073">
        <ele>75</ele>
        <time>2017-09-17T08:57:11.000Z</time>
      </trkpt>
      <trkpt lat="47.67442" lon="1.53114">
        <ele>78</ele>
        <time>2017-09-17T08:57:17.000Z</time>
      </trkpt>
      <trkpt lat="47.67449" lon="1.53128">
        <ele>79</ele>
        <time>2017-09-17T08:57:20.000Z</time>
      </trkpt>
      <trkpt lat="47.67469" lon="1.5316">
        <ele>81</ele>
        <time>2017-09-17T08:57:27.000Z</time>
      </trkpt>
      <trkpt lat="47.67491" lon="1.53204">
        <ele>83</ele>
        <time>2017-09-17T08:57:36.000Z</time>
      </trkpt>
      <trkpt lat="47.67523" lon="1.5326">
        <ele>84</ele>
        <time>2017-09-17T08:57:47.000Z</time>
      </trkpt>
      <trkpt lat="47.67525" lon="1.53265">
        <ele>84</ele>
        <time>2017-09-17T08:57:48.000Z</time>
      </trkpt>
      <trkpt lat="47.67558" lon="1.53322">
        <ele>84</ele>
        <time>2017-09-17T08:57:58.000Z</time>
      </trkpt>
      <trkpt lat="47.67562" lon="1.53327">
        <ele>84</ele>
        <time>2017-09-17T08:57:59.000Z</time>
      </trkpt>
      <trkpt lat="47.67595" lon="1.5338">
        <ele>85</ele>
        <time>2017-09-17T08:58:08.000Z</time>
      </trkpt>
      <trkpt lat="47.67598" lon="1.53387">
        <ele>84</ele>
        <time>2017-09-17T08:58:09.000Z</time>
      </trkpt>
      <trkpt lat="47.67626" lon="1.53444">
        <ele>85</ele>
        <time>2017-09-17T08:58:17.000Z</time>
      </trkpt>
      <trkpt lat="47.67629" lon="1.5345">
        <ele>85</ele>
        <time>2017-09-17T08:58:18.000Z</time>
      </trkpt>
      <trkpt lat="47.67661" lon="1.53508">
        <ele>86</ele>
        <time>2017-09-17T08:58:27.000Z</time>
      </trkpt>
      <trkpt lat="47.67664" lon="1.53515">
        <ele>86</ele>
        <time>2017-09-17T08:58:28.000Z</time>
      </trkpt>
      <trkpt lat="47.67691" lon="1.53569">
        <ele>87</ele>
        <time>2017-09-17T08:58:36.000Z</time>
      </trkpt>
      <trkpt lat="47.67695" lon="1.53576">
        <ele>87</ele>
        <time>2017-09-17T08:58:37.000Z</time>
      </trkpt>
      <trkpt lat="47.67702" lon="1.53592">
        <ele>87</ele>
        <time>2017-09-17T08:58:39.000Z</time>
      </trkpt>
      <trkpt lat="47.67725" lon="1.53655">
        <ele>87</ele>
        <time>2017-09-17T08:58:47.000Z</time>
      </trkpt>
      <trkpt lat="47.67728" lon="1.53662">
        <ele>87</ele>
        <time>2017-09-17T08:58:48.000Z</time>
      </trkpt>
      <trkpt lat="47.67756" lon="1.53724">
        <ele>87</ele>
        <time>2017-09-17T08:58:57.000Z</time>
      </trkpt>
      <trkpt lat="47.6776" lon="1.5373">
        <ele>87</ele>
        <time>2017-09-17T08:58:58.000Z</time>
      </trkpt>
      <trkpt lat="47.67773" lon="1.53756">
        <ele>87</ele>
        <time>2017-09-17T08:59:02.000Z</time>
      </trkpt>
      <trkpt lat="47.67796" lon="1.53796">
        <ele>85</ele>
        <time>2017-09-17T08:59:08.000Z</time>
      </trkpt>
      <trkpt lat="47.67825" lon="1.53856">
        <ele>83</ele>
        <time>2017-09-17T08:59:15.000Z</time>
      </trkpt>
      <trkpt lat="47.67829" lon="1.53864">
        <ele>83</ele>
        <time>2017-09-17T08:59:16.000Z</time>
      </trkpt>
      <trkpt lat="47.67857" lon="1.53919">
        <ele>84</ele>
        <time>2017-09-17T08:59:23.000Z</time>
      </trkpt>
      <trkpt lat="47.6786" lon="1.53927">
        <ele>84</ele>
        <time>2017-09-17T08:59:24.000Z</time>
      </trkpt>
      <trkpt lat="47.67883" lon="1.53986">
        <ele>84</ele>
        <time>2017-09-17T08:59:31.000Z</time>
      </trkpt>
      <trkpt lat="47.67886" lon="1.53995">
        <ele>83</ele>
        <time>2017-09-17T08:59:32.000Z</time>
      </trkpt>
      <trkpt lat="47.67916" lon="1.54044">
        <ele>83</ele>
        <time>2017-09-17T08:59:39.000Z</time>
      </trkpt>
      <trkpt lat="47.67921" lon="1.5405">
        <ele>83</ele>
        <time>2017-09-17T08:59:40.000Z</time>
      </trkpt>
      <trkpt lat="47.67934" lon="1.54075">
        <ele>83</ele>
        <time>2017-09-17T08:59:43.000Z</time>
      </trkpt>
      <trkpt lat="47.67962" lon="1.54137">
        <ele>82</ele>
        <time>2017-09-17T08:59:50.000Z</time>
      </trkpt>
      <trkpt lat="47.67965" lon="1.54146">
        <ele>82</ele>
        <time>2017-09-17T08:59:51.000Z</time>
      </trkpt>
      <trkpt lat="47.67991" lon="1.54203">
        <ele>82</ele>
        <time>2017-09-17T08:59:58.000Z</time>
      </trkpt>
      <trkpt lat="47.67994" lon="1.54212">
        <ele>82</ele>
        <time>2017-09-17T08:59:59.000Z</time>
      </trkpt>
      <trkpt lat="47.68023" lon="1.5427">
        <ele>82</ele>
        <time>2017-09-17T09:00:06.000Z</time>
      </trkpt>
      <trkpt lat="47.68026" lon="1.54277">
        <ele>82</ele>
        <time>2017-09-17T09:00:07.000Z</time>
      </trkpt>
      <trkpt lat="47.68056" lon="1.5433">
        <ele>83</ele>
        <time>2017-09-17T09:00:14.000Z</time>
      </trkpt>
      <trkpt lat="47.68061" lon="1.54338">
        <ele>83</ele>
        <time>2017-09-17T09:00:15.000Z</time>
      </trkpt>
      <trkpt lat="47.68088" lon="1.54394">
        <ele>84</ele>
        <time>2017-09-17T09:00:22.000Z</time>
      </trkpt>
      <trkpt lat="47.68091" lon="1.54402">
        <ele>84</ele>
        <time>2017-09-17T09:00:23.000Z</time>
      </trkpt>
      <trkpt lat="47.68098" lon="1.54424">
        <ele>85</ele>
        <time>2017-09-17T09:00:26.000Z</time>
      </trkpt>
      <trkpt lat="47.68118" lon="1.54488">
        <ele>86</ele>
        <time>2017-09-17T09:00:35.000Z</time>
      </trkpt>
      <trkpt lat="47.68121" lon="1.54495">
        <ele>86</ele>
        <time>2017-09-17T09:00:36.000Z</time>
      </trkpt>
      <trkpt lat="47.68133" lon="1.54525">
        <ele>86</ele>
        <time>2017-09-17T09:00:40.000Z</time>
      </trkpt>
      <trkpt lat="47.68162" lon="1.54584">
        <ele>87</ele>
        <time>2017-09-17T09:00:49.000Z</time>
      </trkpt>
      <trkpt lat="47.68165" lon="1.5459">
        <ele>87</ele>
        <time>2017-09-17T09:00:50.000Z</time>
      </trkpt>
      <trkpt lat="47.6819" lon="1.54656">
        <ele>86</ele>
        <time>2017-09-17T09:00:59.000Z</time>
      </trkpt>
      <trkpt lat="47.68193" lon="1.54664">
        <ele>86</ele>
        <time>2017-09-17T09:01:00.000Z</time>
      </trkpt>
      <trkpt lat="47.68217" lon="1.5473">
        <ele>86</ele>
        <time>2017-09-17T09:01:09.000Z</time>
      </trkpt>
      <trkpt lat="47.68221" lon="1.54737">
        <ele>86</ele>
        <time>2017-09-17T09:01:10.000Z</time>
      </trkpt>
      <trkpt lat="47.68238" lon="1.54788">
        <ele>85</ele>
        <time>2017-09-17T09:01:17.000Z</time>
      </trkpt>
      <trkpt lat="47.68258" lon="1.54852">
        <ele>84</ele>
        <time>2017-09-17T09:01:26.000Z</time>
      </trkpt>
      <trkpt lat="47.6826" lon="1.5486">
        <ele>84</ele>
        <time>2017-09-17T09:01:27.000Z</time>
      </trkpt>
      <trkpt lat="47.68283" lon="1.5492">
        <ele>83</ele>
        <time>2017-09-17T09:01:34.000Z</time>
      </trkpt>
      <trkpt lat="47.68287" lon="1.54929">
        <ele>83</ele>
        <time>2017-09-17T09:01:35.000Z</time>
      </trkpt>
      <trkpt lat="47.68309" lon="1.54987">
        <ele>83</ele>
        <time>2017-09-17T09:01:42.000Z</time>
      </trkpt>
      <trkpt lat="47.68311" lon="1.54996">
        <ele>83</ele>
        <time>2017-09-17T09:01:43.000Z</time>
      </trkpt>
      <trkpt lat="47.68315" lon="1.55013">
        <ele>83</ele>
        <time>2017-09-17T09:01:45.000Z</time>
      </trkpt>
      <trkpt lat="47.68325" lon="1.55085">
        <ele>84</ele>
        <time>2017-09-17T09:01:53.000Z</time>
      </trkpt>
      <trkpt lat="47.68327" lon="1.55094">
        <ele>84</ele>
        <time>2017-09-17T09:01:54.000Z</time>
      </trkpt>
      <trkpt lat="47.68336" lon="1.55122">
        <ele>83</ele>
        <time>2017-09-17T09:01:57.000Z</time>
      </trkpt>
      <trkpt lat="47.68361" lon="1.55185">
        <ele>84</ele>
        <time>2017-09-17T09:02:05.000Z</time>
      </trkpt>
      <trkpt lat="47.68364" lon="1.55193">
        <ele>84</ele>
        <time>2017-09-17T09:02:06.000Z</time>
      </trkpt>
      <trkpt lat="47.68366" lon="1.55201">
        <ele>84</ele>
        <time>2017-09-17T09:02:07.000Z</time>
      </trkpt>
      <trkpt lat="47.68367" lon="1.55219">
        <ele>84</ele>
        <time>2017-09-17T09:02:09.000Z</time>
      </trkpt>
      <trkpt lat="47.68369" lon="1.55229">
        <ele>84</ele>
        <time>2017-09-17T09:02:11.000Z</time>
      </trkpt>
      <trkpt lat="47.68375" lon="1.55224">
        <ele>84</ele>
        <time>2017-09-17T09:02:14.000Z</time>
      </trkpt>
      <trkpt lat="47.68385" lon="1.55168">
        <ele>81</ele>
        <time>2017-09-17T09:02:21.000Z</time>
      </trkpt>
      <trkpt lat="47.68389" lon="1.55158">
        <ele>80</ele>
        <time>2017-09-17T09:02:22.000Z</time>
      </trkpt>
      <trkpt lat="47.68402" lon="1.55129">
        <ele>78</ele>
        <time>2017-09-17T09:02:26.000Z</time>
      </trkpt>
      <trkpt lat="47.68408" lon="1.55132">
        <ele>77</ele>
        <time>2017-09-17T09:02:28.000Z</time>
      </trkpt>
      <trkpt lat="47.68422" lon="1.5515">
        <ele>76</ele>
        <time>2017-09-17T09:02:32.000Z</time>
      </trkpt>
      <trkpt lat="47.68456" lon="1.5519">
        <ele>76</ele>
        <time>2017-09-17T09:02:40.000Z</time>
      </trkpt>
      <trkpt lat="47.68461" lon="1.55188">
        <ele>76</ele>
        <time>2017-09-17T09:02:41.000Z</time>
      </trkpt>
      <trkpt lat="47.68465" lon="1.55183">
        <ele>77</ele>
        <time>2017-09-17T09:02:42.000Z</time>
      </trkpt>
      <trkpt lat="47.68479" lon="1.55168">
        <ele>77</ele>
        <time>2017-09-17T09:02:45.000Z</time>
      </trkpt>
      <trkpt lat="47.68491" lon="1.55167">
        <ele>76</ele>
        <time>2017-09-17T09:02:47.000Z</time>
      </trkpt>
      <trkpt lat="47.68504" lon="1.55184">
        <ele>76</ele>
        <time>2017-09-17T09:02:50.000Z</time>
      </trkpt>
      <trkpt lat="47.68518" lon="1.55216">
        <ele>77</ele>
        <time>2017-09-17T09:02:55.000Z</time>
      </trkpt>
      <trkpt lat="47.6854" lon="1.55279">
        <ele>76</ele>
        <time>2017-09-17T09:03:03.000Z</time>
      </trkpt>
      <trkpt lat="47.68543" lon="1.55287">
        <ele>76</ele>
        <time>2017-09-17T09:03:04.000Z</time>
      </trkpt>
      <trkpt lat="47.6855" lon="1.553">
        <ele>76</ele>
        <time>2017-09-17T09:03:06.000Z</time>
      </trkpt>
      <trkpt lat="47.68583" lon="1.55358">
        <ele>75</ele>
        <time>2017-09-17T09:03:14.000Z</time>
      </trkpt>
      <trkpt lat="47.68588" lon="1.55366">
        <ele>75</ele>
        <time>2017-09-17T09:03:15.000Z</time>
      </trkpt>
      <trkpt lat="47.68618" lon="1.55419">
        <ele>75</ele>
        <time>2017-09-17T09:03:23.000Z</time>
      </trkpt>
      <trkpt lat="47.68619" lon="1.55427">
        <ele>75</ele>
        <time>2017-09-17T09:03:24.000Z</time>
      </trkpt>
      <trkpt lat="47.68624" lon="1.55443">
        <ele>75</ele>
        <time>2017-09-17T09:03:26.000Z</time>
      </trkpt>
      <trkpt lat="47.6866" lon="1.55497">
        <ele>74</ele>
        <time>2017-09-17T09:03:35.000Z</time>
      </trkpt>
      <trkpt lat="47.68665" lon="1.55503">
        <ele>74</ele>
        <time>2017-09-17T09:03:36.000Z</time>
      </trkpt>
      <trkpt lat="47.68671" lon="1.55517">
        <ele>74</ele>
        <time>2017-09-17T09:03:38.000Z</time>
      </trkpt>
      <trkpt lat="47.68691" lon="1.55563">
        <ele>74</ele>
        <time>2017-09-17T09:03:44.000Z</time>
      </trkpt>
      <trkpt lat="47.68714" lon="1.55594">
        <ele>74</ele>
        <time>2017-09-17T09:03:49.000Z</time>
      </trkpt>
      <trkpt lat="47.68737" lon="1.55644">
        <ele>74</ele>
        <time>2017-09-17T09:03:55.000Z</time>
      </trkpt>
      <trkpt lat="47.68741" lon="1.5565">
        <ele>74</ele>
        <time>2017-09-17T09:03:56.000Z</time>
      </trkpt>
      <trkpt lat="47.68778" lon="1.55696">
        <ele>75</ele>
        <time>2017-09-17T09:04:05.000Z</time>
      </trkpt>
      <trkpt lat="47.68782" lon="1.55701">
        <ele>75</ele>
        <time>2017-09-17T09:04:06.000Z</time>
      </trkpt>
      <trkpt lat="47.68798" lon="1.55718">
        <ele>75</ele>
        <time>2017-09-17T09:04:10.000Z</time>
      </trkpt>
      <trkpt lat="47.68827" lon="1.55756">
        <ele>75</ele>
        <time>2017-09-17T09:04:18.000Z</time>
      </trkpt>
      <trkpt lat="47.68857" lon="1.558">
        <ele>75</ele>
        <time>2017-09-17T09:04:27.000Z</time>
      </trkpt>
      <trkpt lat="47.68861" lon="1.55804">
        <ele>75</ele>
        <time>2017-09-17T09:04:28.000Z</time>
      </trkpt>
      <trkpt lat="47.68874" lon="1.55817">
        <ele>75</ele>
        <time>2017-09-17T09:04:32.000Z</time>
      </trkpt>
      <trkpt lat="47.6889" lon="1.55852">
        <ele>76</ele>
        <time>2017-09-17T09:04:39.000Z</time>
      </trkpt>
      <trkpt lat="47.68912" lon="1.55914">
        <ele>76</ele>
        <time>2017-09-17T09:04:49.000Z</time>
      </trkpt>
      <trkpt lat="47.68914" lon="1.5592">
        <ele>76</ele>
        <time>2017-09-17T09:04:50.000Z</time>
      </trkpt>
      <trkpt lat="47.68925" lon="1.55951">
        <ele>77</ele>
        <time>2017-09-17T09:04:55.000Z</time>
      </trkpt>
      <trkpt lat="47.68948" lon="1.56013">
        <ele>76</ele>
        <time>2017-09-17T09:05:05.000Z</time>
      </trkpt>
      <trkpt lat="47.6895" lon="1.56019">
        <ele>76</ele>
        <time>2017-09-17T09:05:06.000Z</time>
      </trkpt>
      <trkpt lat="47.68959" lon="1.56035">
        <ele>76</ele>
        <time>2017-09-17T09:05:09.000Z</time>
      </trkpt>
      <trkpt lat="47.68989" lon="1.56072">
        <ele>76</ele>
        <time>2017-09-17T09:05:18.000Z</time>
      </trkpt>
      <trkpt lat="47.69" lon="1.56093">
        <ele>76</ele>
        <time>2017-09-17T09:05:22.000Z</time>
      </trkpt>
      <trkpt lat="47.69026" lon="1.56152">
        <ele>76</ele>
        <time>2017-09-17T09:05:32.000Z</time>
      </trkpt>
      <trkpt lat="47.69029" lon="1.56157">
        <ele>76</ele>
        <time>2017-09-17T09:05:33.000Z</time>
      </trkpt>
      <trkpt lat="47.69036" lon="1.56169">
        <ele>75</ele>
        <time>2017-09-17T09:05:35.000Z</time>
      </trkpt>
      <trkpt lat="47.69063" lon="1.56228">
        <ele>74</ele>
        <time>2017-09-17T09:05:44.000Z</time>
      </trkpt>
      <trkpt lat="47.69066" lon="1.56234">
        <ele>74</ele>
        <time>2017-09-17T09:05:45.000Z</time>
      </trkpt>
      <trkpt lat="47.69086" lon="1.56274">
        <ele>76</ele>
        <time>2017-09-17T09:05:54.000Z</time>
      </trkpt>
      <trkpt lat="47.69108" lon="1.5634">
        <ele>77</ele>
        <time>2017-09-17T09:06:06.000Z</time>
      </trkpt>
      <trkpt lat="47.6911" lon="1.56347">
        <ele>77</ele>
        <time>2017-09-17T09:06:07.000Z</time>
      </trkpt>
      <trkpt lat="47.69112" lon="1.56354">
        <ele>76</ele>
        <time>2017-09-17T09:06:08.000Z</time>
      </trkpt>
      <trkpt lat="47.69112" lon="1.56369">
        <ele>76</ele>
        <time>2017-09-17T09:06:10.000Z</time>
      </trkpt>
      <trkpt lat="47.69112" lon="1.56392">
        <ele>76</ele>
        <time>2017-09-17T09:06:13.000Z</time>
      </trkpt>
      <trkpt lat="47.69118" lon="1.56411">
        <ele>76</ele>
        <time>2017-09-17T09:06:16.000Z</time>
      </trkpt>
      <trkpt lat="47.69137" lon="1.56424">
        <ele>76</ele>
        <time>2017-09-17T09:06:20.000Z</time>
      </trkpt>
      <trkpt lat="47.69157" lon="1.5644">
        <ele>75</ele>
        <time>2017-09-17T09:06:24.000Z</time>
      </trkpt>
      <trkpt lat="47.69184" lon="1.5649">
        <ele>75</ele>
        <time>2017-09-17T09:06:31.000Z</time>
      </trkpt>
      <trkpt lat="47.69188" lon="1.56496">
        <ele>75</ele>
        <time>2017-09-17T09:06:32.000Z</time>
      </trkpt>
      <trkpt lat="47.69202" lon="1.56524">
        <ele>75</ele>
        <time>2017-09-17T09:06:36.000Z</time>
      </trkpt>
      <trkpt lat="47.69219" lon="1.56564">
        <ele>74</ele>
        <time>2017-09-17T09:06:42.000Z</time>
      </trkpt>
      <trkpt lat="47.69247" lon="1.56597">
        <ele>73</ele>
        <time>2017-09-17T09:06:49.000Z</time>
      </trkpt>
      <trkpt lat="47.6925" lon="1.56604">
        <ele>72</ele>
        <time>2017-09-17T09:06:51.000Z</time>
      </trkpt>
      <trkpt lat="47.69284" lon="1.56651">
        <ele>72</ele>
        <time>2017-09-17T09:07:03.000Z</time>
      </trkpt>
      <trkpt lat="47.69286" lon="1.56656">
        <ele>72</ele>
        <time>2017-09-17T09:07:04.000Z</time>
      </trkpt>
      <trkpt lat="47.69316" lon="1.56699">
        <ele>71</ele>
        <time>2017-09-17T09:07:13.000Z</time>
      </trkpt>
      <trkpt lat="47.6932" lon="1.56704">
        <ele>71</ele>
        <time>2017-09-17T09:07:14.000Z</time>
      </trkpt>
      <trkpt lat="47.69349" lon="1.56741">
        <ele>70</ele>
        <time>2017-09-17T09:07:22.000Z</time>
      </trkpt>
      <trkpt lat="47.69356" lon="1.56765">
        <ele>71</ele>
        <time>2017-09-17T09:07:26.000Z</time>
      </trkpt>
      <trkpt lat="47.69369" lon="1.56781">
        <ele>71</ele>
        <time>2017-09-17T09:07:30.000Z</time>
      </trkpt>
      <trkpt lat="47.69381" lon="1.56797">
        <ele>72</ele>
        <time>2017-09-17T09:07:34.000Z</time>
      </trkpt>
      <trkpt lat="47.69392" lon="1.56815">
        <ele>73</ele>
        <time>2017-09-17T09:07:38.000Z</time>
      </trkpt>
      <trkpt lat="47.69417" lon="1.5685">
        <ele>73</ele>
        <time>2017-09-17T09:07:46.000Z</time>
      </trkpt>
      <trkpt lat="47.69424" lon="1.56866">
        <ele>73</ele>
        <time>2017-09-17T09:07:49.000Z</time>
      </trkpt>
      <trkpt lat="47.69436" lon="1.56899">
        <ele>73</ele>
        <time>2017-09-17T09:07:55.000Z</time>
      </trkpt>
      <trkpt lat="47.69471" lon="1.56943">
        <ele>74</ele>
        <time>2017-09-17T09:08:06.000Z</time>
      </trkpt>
      <trkpt lat="47.69474" lon="1.56947">
        <ele>74</ele>
        <time>2017-09-17T09:08:07.000Z</time>
      </trkpt>
      <trkpt lat="47.69484" lon="1.56965">
        <ele>73</ele>
        <time>2017-09-17T09:08:11.000Z</time>
      </trkpt>
      <trkpt lat="47.6951" lon="1.57013">
        <ele>74</ele>
        <time>2017-09-17T09:08:21.000Z</time>
      </trkpt>
      <trkpt lat="47.69524" lon="1.57038">
        <ele>74</ele>
        <time>2017-09-17T09:08:26.000Z</time>
      </trkpt>
      <trkpt lat="47.69532" lon="1.57061">
        <ele>74</ele>
        <time>2017-09-17T09:08:30.000Z</time>
      </trkpt>
      <trkpt lat="47.69544" lon="1.57089">
        <ele>75</ele>
        <time>2017-09-17T09:08:36.000Z</time>
      </trkpt>
      <trkpt lat="47.69562" lon="1.57115">
        <ele>75</ele>
        <time>2017-09-17T09:08:43.000Z</time>
      </trkpt>
      <trkpt lat="47.69598" lon="1.57167">
        <ele>72</ele>
        <time>2017-09-17T09:08:53.000Z</time>
      </trkpt>
      <trkpt lat="47.69601" lon="1.57173">
        <ele>71</ele>
        <time>2017-09-17T09:08:54.000Z</time>
      </trkpt>
      <trkpt lat="47.69614" lon="1.57198">
        <ele>70</ele>
        <time>2017-09-17T09:08:58.000Z</time>
      </trkpt>
      <trkpt lat="47.69624" lon="1.57224">
        <ele>71</ele>
        <time>2017-09-17T09:09:03.000Z</time>
      </trkpt>
      <trkpt lat="47.69656" lon="1.5727">
        <ele>70</ele>
        <time>2017-09-17T09:09:13.000Z</time>
      </trkpt>
      <trkpt lat="47.69658" lon="1.57275">
        <ele>70</ele>
        <time>2017-09-17T09:09:14.000Z</time>
      </trkpt>
      <trkpt lat="47.69668" lon="1.57294">
        <ele>69</ele>
        <time>2017-09-17T09:09:18.000Z</time>
      </trkpt>
      <trkpt lat="47.6968" lon="1.57314">
        <ele>69</ele>
        <time>2017-09-17T09:09:22.000Z</time>
      </trkpt>
      <trkpt lat="47.69703" lon="1.57366">
        <ele>67</ele>
        <time>2017-09-17T09:09:32.000Z</time>
      </trkpt>
      <trkpt lat="47.69705" lon="1.57371">
        <ele>67</ele>
        <time>2017-09-17T09:09:33.000Z</time>
      </trkpt>
      <trkpt lat="47.69732" lon="1.57427">
        <ele>67</ele>
        <time>2017-09-17T09:09:45.000Z</time>
      </trkpt>
      <trkpt lat="47.69734" lon="1.57432">
        <ele>67</ele>
        <time>2017-09-17T09:09:46.000Z</time>
      </trkpt>
      <trkpt lat="47.69763" lon="1.57488">
        <ele>65</ele>
        <time>2017-09-17T09:09:58.000Z</time>
      </trkpt>
      <trkpt lat="47.69765" lon="1.57493">
        <ele>65</ele>
        <time>2017-09-17T09:09:59.000Z</time>
      </trkpt>
      <trkpt lat="47.69771" lon="1.57501">
        <ele>65</ele>
        <time>2017-09-17T09:10:01.000Z</time>
      </trkpt>
      <trkpt lat="47.69799" lon="1.57553">
        <ele>65</ele>
        <time>2017-09-17T09:10:11.000Z</time>
      </trkpt>
      <trkpt lat="47.69801" lon="1.57558">
        <ele>65</ele>
        <time>2017-09-17T09:10:12.000Z</time>
      </trkpt>
      <trkpt lat="47.6983" lon="1.57612">
        <ele>67</ele>
        <time>2017-09-17T09:10:24.000Z</time>
      </trkpt>
      <trkpt lat="47.69833" lon="1.57616">
        <ele>67</ele>
        <time>2017-09-17T09:10:25.000Z</time>
      </trkpt>
      <trkpt lat="47.69864" lon="1.57672">
        <ele>67</ele>
        <time>2017-09-17T09:10:37.000Z</time>
      </trkpt>
      <trkpt lat="47.69866" lon="1.57676">
        <ele>67</ele>
        <time>2017-09-17T09:10:38.000Z</time>
      </trkpt>
      <trkpt lat="47.69893" lon="1.57731">
        <ele>72</ele>
        <time>2017-09-17T09:10:51.000Z</time>
      </trkpt>
      <trkpt lat="47.69895" lon="1.57734">
        <ele>73</ele>
        <time>2017-09-17T09:10:52.000Z</time>
      </trkpt>
      <trkpt lat="47.69916" lon="1.57771">
        <ele>75</ele>
        <time>2017-09-17T09:11:02.000Z</time>
      </trkpt>
      <trkpt lat="47.69925" lon="1.57787">
        <ele>76</ele>
        <time>2017-09-17T09:11:07.000Z</time>
      </trkpt>
      <trkpt lat="47.6994" lon="1.57811">
        <ele>77</ele>
        <time>2017-09-17T09:11:15.000Z</time>
      </trkpt>
      <trkpt lat="47.69951" lon="1.57828">
        <ele>77</ele>
        <time>2017-09-17T09:11:19.000Z</time>
      </trkpt>
      <trkpt lat="47.69967" lon="1.57868">
        <ele>78</ele>
        <time>2017-09-17T09:11:26.000Z</time>
      </trkpt>
      <trkpt lat="47.7" lon="1.57919">
        <ele>78</ele>
        <time>2017-09-17T09:11:36.000Z</time>
      </trkpt>
      <trkpt lat="47.70004" lon="1.57925">
        <ele>78</ele>
        <time>2017-09-17T09:11:37.000Z</time>
      </trkpt>
      <trkpt lat="47.70035" lon="1.57979">
        <ele>76</ele>
        <time>2017-09-17T09:11:45.000Z</time>
      </trkpt>
      <trkpt lat="47.70039" lon="1.57987">
        <ele>76</ele>
        <time>2017-09-17T09:11:46.000Z</time>
      </trkpt>
      <trkpt lat="47.70073" lon="1.58042">
        <ele>75</ele>
        <time>2017-09-17T09:11:54.000Z</time>
      </trkpt>
      <trkpt lat="47.70077" lon="1.58048">
        <ele>75</ele>
        <time>2017-09-17T09:11:55.000Z</time>
      </trkpt>
      <trkpt lat="47.70084" lon="1.58062">
        <ele>75</ele>
        <time>2017-09-17T09:11:58.000Z</time>
      </trkpt>
      <trkpt lat="47.70078" lon="1.58062">
        <ele>75</ele>
        <time>2017-09-17T09:12:02.000Z</time>
      </trkpt>
      <trkpt lat="47.70073" lon="1.58061">
        <ele>75</ele>
        <time>2017-09-17T09:12:06.000Z</time>
      </trkpt>
      <trkpt lat="47.70082" lon="1.58066">
        <ele>75</ele>
        <time>2017-09-17T09:12:10.000Z</time>
      </trkpt>
      <trkpt lat="47.70103" lon="1.58078">
        <ele>75</ele>
        <time>2017-09-17T09:12:16.000Z</time>
      </trkpt>
      <trkpt lat="47.70145" lon="1.58112">
        <ele>76</ele>
        <time>2017-09-17T09:12:28.000Z</time>
      </trkpt>
      <trkpt lat="47.70149" lon="1.58116">
        <ele>76</ele>
        <time>2017-09-17T09:12:29.000Z</time>
      </trkpt>
      <trkpt lat="47.70165" lon="1.58138">
        <ele>77</ele>
        <time>2017-09-17T09:12:34.000Z</time>
      </trkpt>
      <trkpt lat="47.7019" lon="1.58173">
        <ele>80</ele>
        <time>2017-09-17T09:12:42.000Z</time>
      </trkpt>
      <trkpt lat="47.7022" lon="1.58206">
        <ele>80</ele>
        <time>2017-09-17T09:12:51.000Z</time>
      </trkpt>
      <trkpt lat="47.70225" lon="1.58215">
        <ele>80</ele>
        <time>2017-09-17T09:12:58.000Z</time>
      </trkpt>
      <trkpt lat="47.70237" lon="1.5823">
        <ele>81</ele>
        <time>2017-09-17T09:13:13.000Z</time>
      </trkpt>
      <trkpt lat="47.70243" lon="1.5824">
        <ele>82</ele>
        <time>2017-09-17T09:13:16.000Z</time>
      </trkpt>
      <trkpt lat="47.70255" lon="1.58254">
        <ele>82</ele>
        <time>2017-09-17T09:13:20.000Z</time>
      </trkpt>
      <trkpt lat="47.7027" lon="1.58281">
        <ele>82</ele>
        <time>2017-09-17T09:13:26.000Z</time>
      </trkpt>
      <trkpt lat="47.70278" lon="1.58288">
        <ele>82</ele>
        <time>2017-09-17T09:13:29.000Z</time>
      </trkpt>
      <trkpt lat="47.70284" lon="1.58293">
        <ele>82</ele>
        <time>2017-09-17T09:13:31.000Z</time>
      </trkpt>
      <trkpt lat="47.70303" lon="1.5832">
        <ele>82</ele>
        <time>2017-09-17T09:13:39.000Z</time>
      </trkpt>
      <trkpt lat="47.70311" lon="1.58326">
        <ele>82</ele>
        <time>2017-09-17T09:13:42.000Z</time>
      </trkpt>
      <trkpt lat="47.70344" lon="1.58377">
        <ele>83</ele>
        <time>2017-09-17T09:13:55.000Z</time>
      </trkpt>
      <trkpt lat="47.70347" lon="1.5838">
        <ele>83</ele>
        <time>2017-09-17T09:13:56.000Z</time>
      </trkpt>
      <trkpt lat="47.70383" lon="1.58423">
        <ele>84</ele>
        <time>2017-09-17T09:14:08.000Z</time>
      </trkpt>
      <trkpt lat="47.70386" lon="1.58427">
        <ele>84</ele>
        <time>2017-09-17T09:14:09.000Z</time>
      </trkpt>
      <trkpt lat="47.70412" lon="1.58456">
        <ele>85</ele>
        <time>2017-09-17T09:14:17.000Z</time>
      </trkpt>
      <trkpt lat="47.70449" lon="1.58499">
        <ele>85</ele>
        <time>2017-09-17T09:14:28.000Z</time>
      </trkpt>
      <trkpt lat="47.70452" lon="1.58503">
        <ele>85</ele>
        <time>2017-09-17T09:14:29.000Z</time>
      </trkpt>
      <trkpt lat="47.70488" lon="1.58546">
        <ele>88</ele>
        <time>2017-09-17T09:14:39.000Z</time>
      </trkpt>
      <trkpt lat="47.70492" lon="1.58549">
        <ele>88</ele>
        <time>2017-09-17T09:14:40.000Z</time>
      </trkpt>
      <trkpt lat="47.70532" lon="1.58589">
        <ele>89</ele>
        <time>2017-09-17T09:14:51.000Z</time>
      </trkpt>
      <trkpt lat="47.70535" lon="1.58593">
        <ele>89</ele>
        <time>2017-09-17T09:14:52.000Z</time>
      </trkpt>
      <trkpt lat="47.70554" lon="1.58617">
        <ele>88</ele>
        <time>2017-09-17T09:14:58.000Z</time>
      </trkpt>
      <trkpt lat="47.7059" lon="1.5866">
        <ele>87</ele>
        <time>2017-09-17T09:15:09.000Z</time>
      </trkpt>
      <trkpt lat="47.70594" lon="1.58664">
        <ele>87</ele>
        <time>2017-09-17T09:15:10.000Z</time>
      </trkpt>
      <trkpt lat="47.70634" lon="1.58707">
        <ele>88</ele>
        <time>2017-09-17T09:15:21.000Z</time>
      </trkpt>
      <trkpt lat="47.70638" lon="1.58711">
        <ele>88</ele>
        <time>2017-09-17T09:15:22.000Z</time>
      </trkpt>
      <trkpt lat="47.70678" lon="1.58754">
        <ele>86</ele>
        <time>2017-09-17T09:15:32.000Z</time>
      </trkpt>
      <trkpt lat="47.70682" lon="1.58758">
        <ele>85</ele>
        <time>2017-09-17T09:15:33.000Z</time>
      </trkpt>
      <trkpt lat="47.70718" lon="1.588">
        <ele>86</ele>
        <time>2017-09-17T09:15:44.000Z</time>
      </trkpt>
      <trkpt lat="47.70722" lon="1.58805">
        <ele>86</ele>
        <time>2017-09-17T09:15:45.000Z</time>
      </trkpt>
      <trkpt lat="47.70758" lon="1.58849">
        <ele>86</ele>
        <time>2017-09-17T09:15:56.000Z</time>
      </trkpt>
      <trkpt lat="47.70761" lon="1.58851">
        <ele>86</ele>
        <time>2017-09-17T09:15:57.000Z</time>
      </trkpt>
      <trkpt lat="47.70767" lon="1.58855">
        <ele>85</ele>
        <time>2017-09-17T09:15:59.000Z</time>
      </trkpt>
      <trkpt lat="47.70799" lon="1.58891">
        <ele>85</ele>
        <time>2017-09-17T09:16:11.000Z</time>
      </trkpt>
      <trkpt lat="47.70793" lon="1.58903">
        <ele>85</ele>
        <time>2017-09-17T09:16:16.000Z</time>
      </trkpt>
      <trkpt lat="47.70787" lon="1.58916">
        <ele>85</ele>
        <time>2017-09-17T09:16:20.000Z</time>
      </trkpt>
      <trkpt lat="47.70785" lon="1.58928">
        <ele>86</ele>
        <time>2017-09-17T09:16:23.000Z</time>
      </trkpt>
      <trkpt lat="47.70787" lon="1.58937">
        <ele>86</ele>
        <time>2017-09-17T09:16:25.000Z</time>
      </trkpt>
      <trkpt lat="47.70818" lon="1.58989">
        <ele>85</ele>
        <time>2017-09-17T09:16:37.000Z</time>
      </trkpt>
      <trkpt lat="47.70821" lon="1.58993">
        <ele>85</ele>
        <time>2017-09-17T09:16:38.000Z</time>
      </trkpt>
      <trkpt lat="47.70854" lon="1.59046">
        <ele>85</ele>
        <time>2017-09-17T09:16:48.000Z</time>
      </trkpt>
      <trkpt lat="47.70859" lon="1.5905">
        <ele>85</ele>
        <time>2017-09-17T09:16:49.000Z</time>
      </trkpt>
      <trkpt lat="47.70898" lon="1.59084">
        <ele>84</ele>
        <time>2017-09-17T09:16:56.000Z</time>
      </trkpt>
      <trkpt lat="47.70904" lon="1.59091">
        <ele>84</ele>
        <time>2017-09-17T09:16:57.000Z</time>
      </trkpt>
      <trkpt lat="47.70933" lon="1.59133">
        <ele>83</ele>
        <time>2017-09-17T09:17:03.000Z</time>
      </trkpt>
      <trkpt lat="47.70938" lon="1.5914">
        <ele>83</ele>
        <time>2017-09-17T09:17:04.000Z</time>
      </trkpt>
      <trkpt lat="47.70975" lon="1.59193">
        <ele>84</ele>
        <time>2017-09-17T09:17:12.000Z</time>
      </trkpt>
      <trkpt lat="47.7098" lon="1.59198">
        <ele>84</ele>
        <time>2017-09-17T09:17:13.000Z</time>
      </trkpt>
      <trkpt lat="47.71011" lon="1.59248">
        <ele>85</ele>
        <time>2017-09-17T09:17:21.000Z</time>
      </trkpt>
      <trkpt lat="47.71015" lon="1.59255">
        <ele>85</ele>
        <time>2017-09-17T09:17:22.000Z</time>
      </trkpt>
      <trkpt lat="47.71037" lon="1.59298">
        <ele>85</ele>
        <time>2017-09-17T09:17:28.000Z</time>
      </trkpt>
      <trkpt lat="47.71064" lon="1.59358">
        <ele>85</ele>
        <time>2017-09-17T09:17:36.000Z</time>
      </trkpt>
      <trkpt lat="47.71067" lon="1.59365">
        <ele>85</ele>
        <time>2017-09-17T09:17:37.000Z</time>
      </trkpt>
      <trkpt lat="47.71074" lon="1.59384">
        <ele>85</ele>
        <time>2017-09-17T09:17:40.000Z</time>
      </trkpt>
      <trkpt lat="47.71072" lon="1.59404">
        <ele>85</ele>
        <time>2017-09-17T09:17:43.000Z</time>
      </trkpt>
      <trkpt lat="47.71076" lon="1.59417">
        <ele>85</ele>
        <time>2017-09-17T09:17:45.000Z</time>
      </trkpt>
      <trkpt lat="47.71105" lon="1.59471">
        <ele>86</ele>
        <time>2017-09-17T09:17:53.000Z</time>
      </trkpt>
      <trkpt lat="47.71109" lon="1.59478">
        <ele>85</ele>
        <time>2017-09-17T09:17:54.000Z</time>
      </trkpt>
      <trkpt lat="47.71139" lon="1.59529">
        <ele>85</ele>
        <time>2017-09-17T09:18:01.000Z</time>
      </trkpt>
      <trkpt lat="47.71143" lon="1.59536">
        <ele>85</ele>
        <time>2017-09-17T09:18:02.000Z</time>
      </trkpt>
      <trkpt lat="47.71176" lon="1.59591">
        <ele>85</ele>
        <time>2017-09-17T09:18:10.000Z</time>
      </trkpt>
      <trkpt lat="47.71182" lon="1.59595">
        <ele>85</ele>
        <time>2017-09-17T09:18:11.000Z</time>
      </trkpt>
      <trkpt lat="47.71195" lon="1.59596">
        <ele>85</ele>
        <time>2017-09-17T09:18:13.000Z</time>
      </trkpt>
      <trkpt lat="47.71207" lon="1.59589">
        <ele>85</ele>
        <time>2017-09-17T09:18:15.000Z</time>
      </trkpt>
      <trkpt lat="47.71225" lon="1.59574">
        <ele>84</ele>
        <time>2017-09-17T09:18:18.000Z</time>
      </trkpt>
      <trkpt lat="47.71238" lon="1.59575">
        <ele>84</ele>
        <time>2017-09-17T09:18:20.000Z</time>
      </trkpt>
      <trkpt lat="47.71278" lon="1.59609">
        <ele>85</ele>
        <time>2017-09-17T09:18:27.000Z</time>
      </trkpt>
      <trkpt lat="47.71283" lon="1.59614">
        <ele>85</ele>
        <time>2017-09-17T09:18:28.000Z</time>
      </trkpt>
      <trkpt lat="47.71293" lon="1.59626">
        <ele>85</ele>
        <time>2017-09-17T09:18:30.000Z</time>
      </trkpt>
      <trkpt lat="47.71304" lon="1.59651">
        <ele>85</ele>
        <time>2017-09-17T09:18:33.000Z</time>
      </trkpt>
      <trkpt lat="47.71327" lon="1.59711">
        <ele>85</ele>
        <time>2017-09-17T09:18:40.000Z</time>
      </trkpt>
      <trkpt lat="47.7133" lon="1.59719">
        <ele>85</ele>
        <time>2017-09-17T09:18:41.000Z</time>
      </trkpt>
      <trkpt lat="47.71352" lon="1.59782">
        <ele>86</ele>
        <time>2017-09-17T09:18:49.000Z</time>
      </trkpt>
      <trkpt lat="47.71352" lon="1.5979">
        <ele>86</ele>
        <time>2017-09-17T09:18:50.000Z</time>
      </trkpt>
      <trkpt lat="47.71349" lon="1.59798">
        <ele>86</ele>
        <time>2017-09-17T09:18:51.000Z</time>
      </trkpt>
      <trkpt lat="47.7131" lon="1.59843">
        <ele>87</ele>
        <time>2017-09-17T09:19:00.000Z</time>
      </trkpt>
      <trkpt lat="47.71306" lon="1.59849">
        <ele>87</ele>
        <time>2017-09-17T09:19:01.000Z</time>
      </trkpt>
      <trkpt lat="47.71302" lon="1.59862">
        <ele>87</ele>
        <time>2017-09-17T09:19:03.000Z</time>
      </trkpt>
      <trkpt lat="47.71304" lon="1.59883">
        <ele>87</ele>
        <time>2017-09-17T09:19:06.000Z</time>
      </trkpt>
      <trkpt lat="47.71326" lon="1.59944">
        <ele>87</ele>
        <time>2017-09-17T09:19:15.000Z</time>
      </trkpt>
      <trkpt lat="47.71329" lon="1.59951">
        <ele>87</ele>
        <time>2017-09-17T09:19:16.000Z</time>
      </trkpt>
      <trkpt lat="47.71353" lon="1.60015">
        <ele>88</ele>
        <time>2017-09-17T09:19:25.000Z</time>
      </trkpt>
      <trkpt lat="47.71356" lon="1.60022">
        <ele>88</ele>
        <time>2017-09-17T09:19:26.000Z</time>
      </trkpt>
      <trkpt lat="47.71377" lon="1.60086">
        <ele>88</ele>
        <time>2017-09-17T09:19:35.000Z</time>
      </trkpt>
      <trkpt lat="47.7138" lon="1.60093">
        <ele>88</ele>
        <time>2017-09-17T09:19:36.000Z</time>
      </trkpt>
      <trkpt lat="47.71403" lon="1.60158">
        <ele>88</ele>
        <time>2017-09-17T09:19:45.000Z</time>
      </trkpt>
      <trkpt lat="47.71406" lon="1.60166">
        <ele>88</ele>
        <time>2017-09-17T09:19:46.000Z</time>
      </trkpt>
      <trkpt lat="47.71427" lon="1.60217">
        <ele>88</ele>
        <time>2017-09-17T09:19:53.000Z</time>
      </trkpt>
      <trkpt lat="47.71431" lon="1.60223">
        <ele>88</ele>
        <time>2017-09-17T09:19:54.000Z</time>
      </trkpt>
      <trkpt lat="47.71463" lon="1.60281">
        <ele>87</ele>
        <time>2017-09-17T09:20:02.000Z</time>
      </trkpt>
      <trkpt lat="47.71466" lon="1.60289">
        <ele>87</ele>
        <time>2017-09-17T09:20:03.000Z</time>
      </trkpt>
      <trkpt lat="47.71487" lon="1.60355">
        <ele>87</ele>
        <time>2017-09-17T09:20:12.000Z</time>
      </trkpt>
      <trkpt lat="47.71489" lon="1.60363">
        <ele>87</ele>
        <time>2017-09-17T09:20:13.000Z</time>
      </trkpt>
      <trkpt lat="47.71512" lon="1.60429">
        <ele>86</ele>
        <time>2017-09-17T09:20:22.000Z</time>
      </trkpt>
      <trkpt lat="47.71515" lon="1.60437">
        <ele>86</ele>
        <time>2017-09-17T09:20:23.000Z</time>
      </trkpt>
      <trkpt lat="47.71539" lon="1.605">
        <ele>86</ele>
        <time>2017-09-17T09:20:31.000Z</time>
      </trkpt>
      <trkpt lat="47.71541" lon="1.60507">
        <ele>86</ele>
        <time>2017-09-17T09:20:32.000Z</time>
      </trkpt>
      <trkpt lat="47.71566" lon="1.60574">
        <ele>85</ele>
        <time>2017-09-17T09:20:40.000Z</time>
      </trkpt>
      <trkpt lat="47.71571" lon="1.60583">
        <ele>84</ele>
        <time>2017-09-17T09:20:41.000Z</time>
      </trkpt>
      <trkpt lat="47.71583" lon="1.60608">
        <ele>84</ele>
        <time>2017-09-17T09:20:44.000Z</time>
      </trkpt>
      <trkpt lat="47.71612" lon="1.60662">
        <ele>84</ele>
        <time>2017-09-17T09:20:51.000Z</time>
      </trkpt>
      <trkpt lat="47.71616" lon="1.60669">
        <ele>84</ele>
        <time>2017-09-17T09:20:52.000Z</time>
      </trkpt>
      <trkpt lat="47.71644" lon="1.60729">
        <ele>84</ele>
        <time>2017-09-17T09:21:00.000Z</time>
      </trkpt>
      <trkpt lat="47.71647" lon="1.60737">
        <ele>84</ele>
        <time>2017-09-17T09:21:01.000Z</time>
      </trkpt>
      <trkpt lat="47.71659" lon="1.60775">
        <ele>84</ele>
        <time>2017-09-17T09:21:06.000Z</time>
      </trkpt>
      <trkpt lat="47.7168" lon="1.60838">
        <ele>84</ele>
        <time>2017-09-17T09:21:21.000Z</time>
      </trkpt>
      <trkpt lat="47.71682" lon="1.60844">
        <ele>84</ele>
        <time>2017-09-17T09:21:22.000Z</time>
      </trkpt>
      <trkpt lat="47.71703" lon="1.60911">
        <ele>86</ele>
        <time>2017-09-17T09:21:33.000Z</time>
      </trkpt>
      <trkpt lat="47.71705" lon="1.60917">
        <ele>86</ele>
        <time>2017-09-17T09:21:34.000Z</time>
      </trkpt>
      <trkpt lat="47.71725" lon="1.60978">
        <ele>87</ele>
        <time>2017-09-17T09:21:43.000Z</time>
      </trkpt>
      <trkpt lat="47.71727" lon="1.60985">
        <ele>87</ele>
        <time>2017-09-17T09:21:44.000Z</time>
      </trkpt>
      <trkpt lat="47.71746" lon="1.6105">
        <ele>87</ele>
        <time>2017-09-17T09:21:53.000Z</time>
      </trkpt>
      <trkpt lat="47.71748" lon="1.61057">
        <ele>86</ele>
        <time>2017-09-17T09:21:54.000Z</time>
      </trkpt>
      <trkpt lat="47.71761" lon="1.61109">
        <ele>86</ele>
        <time>2017-09-17T09:22:04.000Z</time>
      </trkpt>
      <trkpt lat="47.71766" lon="1.61109">
        <ele>85</ele>
        <time>2017-09-17T09:22:07.000Z</time>
      </trkpt>
      <trkpt lat="47.71806" lon="1.61079">
        <ele>83</ele>
        <time>2017-09-17T09:22:17.000Z</time>
      </trkpt>
      <trkpt lat="47.71811" lon="1.61075">
        <ele>83</ele>
        <time>2017-09-17T09:22:18.000Z</time>
      </trkpt>
      <trkpt lat="47.71854" lon="1.61045">
        <ele>81</ele>
        <time>2017-09-17T09:22:27.000Z</time>
      </trkpt>
      <trkpt lat="47.71859" lon="1.6104">
        <ele>80</ele>
        <time>2017-09-17T09:22:28.000Z</time>
      </trkpt>
      <trkpt lat="47.71864" lon="1.61034">
        <ele>80</ele>
        <time>2017-09-17T09:22:29.000Z</time>
      </trkpt>
      <trkpt lat="47.71884" lon="1.60997">
        <ele>79</ele>
        <time>2017-09-17T09:22:34.000Z</time>
      </trkpt>
      <trkpt lat="47.71909" lon="1.60933">
        <ele>78</ele>
        <time>2017-09-17T09:22:42.000Z</time>
      </trkpt>
      <trkpt lat="47.71912" lon="1.60925">
        <ele>78</ele>
        <time>2017-09-17T09:22:43.000Z</time>
      </trkpt>
      <trkpt lat="47.71938" lon="1.60874">
        <ele>78</ele>
        <time>2017-09-17T09:22:51.000Z</time>
      </trkpt>
      <trkpt lat="47.71941" lon="1.6087">
        <ele>78</ele>
        <time>2017-09-17T09:22:52.000Z</time>
      </trkpt>
      <trkpt lat="47.7195" lon="1.60863">
        <ele>78</ele>
        <time>2017-09-17T09:22:59.000Z</time>
      </trkpt>
      <trkpt lat="47.71948" lon="1.60871">
        <ele>78</ele>
        <time>2017-09-17T09:24:09.000Z</time>
      </trkpt>
      <trkpt lat="47.71953" lon="1.60869">
        <ele>78</ele>
        <time>2017-09-17T09:24:13.000Z</time>
      </trkpt>
      <trkpt lat="47.71955" lon="1.60801">
        <ele>77</ele>
        <time>2017-09-17T09:24:25.000Z</time>
      </trkpt>
      <trkpt lat="47.71957" lon="1.60794">
        <ele>77</ele>
        <time>2017-09-17T09:24:26.000Z</time>
      </trkpt>
      <trkpt lat="47.71966" lon="1.60768">
        <ele>77</ele>
        <time>2017-09-17T09:24:30.000Z</time>
      </trkpt>
      <trkpt lat="47.71983" lon="1.60741">
        <ele>76</ele>
        <time>2017-09-17T09:24:35.000Z</time>
      </trkpt>
      <trkpt lat="47.71986" lon="1.6073">
        <ele>76</ele>
        <time>2017-09-17T09:24:39.000Z</time>
      </trkpt>
      <trkpt lat="47.71981" lon="1.6074">
        <ele>76</ele>
        <time>2017-09-17T09:24:43.000Z</time>
      </trkpt>
      <trkpt lat="47.71986" lon="1.60745">
        <ele>76</ele>
        <time>2017-09-17T09:24:46.000Z</time>
      </trkpt>
      <trkpt lat="47.71995" lon="1.60738">
        <ele>75</ele>
        <time>2017-09-17T09:24:49.000Z</time>
      </trkpt>
      <trkpt lat="47.72033" lon="1.60701">
        <ele>75</ele>
        <time>2017-09-17T09:24:58.000Z</time>
      </trkpt>
      <trkpt lat="47.72038" lon="1.60696">
        <ele>75</ele>
        <time>2017-09-17T09:24:59.000Z</time>
      </trkpt>
      <trkpt lat="47.72078" lon="1.60655">
        <ele>75</ele>
        <time>2017-09-17T09:25:08.000Z</time>
      </trkpt>
      <trkpt lat="47.72083" lon="1.60651">
        <ele>75</ele>
        <time>2017-09-17T09:25:09.000Z</time>
      </trkpt>
      <trkpt lat="47.72124" lon="1.6061">
        <ele>76</ele>
        <time>2017-09-17T09:25:18.000Z</time>
      </trkpt>
      <trkpt lat="47.72129" lon="1.60606">
        <ele>76</ele>
        <time>2017-09-17T09:25:19.000Z</time>
      </trkpt>
      <trkpt lat="47.72168" lon="1.60567">
        <ele>77</ele>
        <time>2017-09-17T09:25:28.000Z</time>
      </trkpt>
      <trkpt lat="47.72173" lon="1.60563">
        <ele>77</ele>
        <time>2017-09-17T09:25:29.000Z</time>
      </trkpt>
      <trkpt lat="47.72213" lon="1.60523">
        <ele>78</ele>
        <time>2017-09-17T09:25:38.000Z</time>
      </trkpt>
      <trkpt lat="47.72218" lon="1.60519">
        <ele>78</ele>
        <time>2017-09-17T09:25:39.000Z</time>
      </trkpt>
      <trkpt lat="47.72255" lon="1.60482">
        <ele>78</ele>
        <time>2017-09-17T09:25:47.000Z</time>
      </trkpt>
      <trkpt lat="47.7226" lon="1.60477">
        <ele>78</ele>
        <time>2017-09-17T09:25:48.000Z</time>
      </trkpt>
      <trkpt lat="47.72299" lon="1.60437">
        <ele>78</ele>
        <time>2017-09-17T09:25:56.000Z</time>
      </trkpt>
      <trkpt lat="47.72304" lon="1.60432">
        <ele>78</ele>
        <time>2017-09-17T09:25:57.000Z</time>
      </trkpt>
      <trkpt lat="47.72343" lon="1.60394">
        <ele>78</ele>
        <time>2017-09-17T09:26:05.000Z</time>
      </trkpt>
      <trkpt lat="47.72348" lon="1.60389">
        <ele>78</ele>
        <time>2017-09-17T09:26:06.000Z</time>
      </trkpt>
      <trkpt lat="47.72386" lon="1.6035">
        <ele>78</ele>
        <time>2017-09-17T09:26:14.000Z</time>
      </trkpt>
      <trkpt lat="47.72391" lon="1.60345">
        <ele>78</ele>
        <time>2017-09-17T09:26:15.000Z</time>
      </trkpt>
      <trkpt lat="47.7243" lon="1.60305">
        <ele>78</ele>
        <time>2017-09-17T09:26:23.000Z</time>
      </trkpt>
      <trkpt lat="47.72434" lon="1.603">
        <ele>78</ele>
        <time>2017-09-17T09:26:24.000Z</time>
      </trkpt>
      <trkpt lat="47.72474" lon="1.60261">
        <ele>79</ele>
        <time>2017-09-17T09:26:32.000Z</time>
      </trkpt>
      <trkpt lat="47.72478" lon="1.60257">
        <ele>79</ele>
        <time>2017-09-17T09:26:33.000Z</time>
      </trkpt>
      <trkpt lat="47.72518" lon="1.60216">
        <ele>79</ele>
        <time>2017-09-17T09:26:41.000Z</time>
      </trkpt>
      <trkpt lat="47.72523" lon="1.60211">
        <ele>79</ele>
        <time>2017-09-17T09:26:42.000Z</time>
      </trkpt>
      <trkpt lat="47.72563" lon="1.60171">
        <ele>79</ele>
        <time>2017-09-17T09:26:50.000Z</time>
      </trkpt>
      <trkpt lat="47.72568" lon="1.60166">
        <ele>79</ele>
        <time>2017-09-17T09:26:51.000Z</time>
      </trkpt>
      <trkpt lat="47.72606" lon="1.60126">
        <ele>79</ele>
        <time>2017-09-17T09:26:59.000Z</time>
      </trkpt>
      <trkpt lat="47.7261" lon="1.60121">
        <ele>79</ele>
        <time>2017-09-17T09:27:00.000Z</time>
      </trkpt>
      <trkpt lat="47.72647" lon="1.60083">
        <ele>80</ele>
        <time>2017-09-17T09:27:08.000Z</time>
      </trkpt>
      <trkpt lat="47.72652" lon="1.60078">
        <ele>80</ele>
        <time>2017-09-17T09:27:09.000Z</time>
      </trkpt>
      <trkpt lat="47.72691" lon="1.60038">
        <ele>80</ele>
        <time>2017-09-17T09:27:18.000Z</time>
      </trkpt>
      <trkpt lat="47.72695" lon="1.60034">
        <ele>80</ele>
        <time>2017-09-17T09:27:19.000Z</time>
      </trkpt>
      <trkpt lat="47.72702" lon="1.60024">
        <ele>80</ele>
        <time>2017-09-17T09:27:21.000Z</time>
      </trkpt>
      <trkpt lat="47.72706" lon="1.60004">
        <ele>81</ele>
        <time>2017-09-17T09:27:24.000Z</time>
      </trkpt>
      <trkpt lat="47.72704" lon="1.59992">
        <ele>81</ele>
        <time>2017-09-17T09:27:26.000Z</time>
      </trkpt>
      <trkpt lat="47.72683" lon="1.59927">
        <ele>82</ele>
        <time>2017-09-17T09:27:38.000Z</time>
      </trkpt>
      <trkpt lat="47.72681" lon="1.59921">
        <ele>82</ele>
        <time>2017-09-17T09:27:39.000Z</time>
      </trkpt>
      <trkpt lat="47.72674" lon="1.59894">
        <ele>81</ele>
        <time>2017-09-17T09:27:43.000Z</time>
      </trkpt>
      <trkpt lat="47.72674" lon="1.59884">
        <ele>82</ele>
        <time>2017-09-17T09:27:45.000Z</time>
      </trkpt>
      <trkpt lat="47.72681" lon="1.59869">
        <ele>81</ele>
        <time>2017-09-17T09:27:51.000Z</time>
      </trkpt>
      <trkpt lat="47.72675" lon="1.59869">
        <ele>82</ele>
        <time>2017-09-17T09:27:55.000Z</time>
      </trkpt>
      <trkpt lat="47.72672" lon="1.59892">
        <ele>81</ele>
        <time>2017-09-17T09:28:01.000Z</time>
      </trkpt>
      <trkpt lat="47.72679" lon="1.59913">
        <ele>80</ele>
        <time>2017-09-17T09:28:07.000Z</time>
      </trkpt>
      <trkpt lat="47.72683" lon="1.59908">
        <ele>80</ele>
        <time>2017-09-17T09:28:11.000Z</time>
      </trkpt>
      <trkpt lat="47.72688" lon="1.59913">
        <ele>79</ele>
        <time>2017-09-17T09:28:13.000Z</time>
      </trkpt>
      <trkpt lat="47.72694" lon="1.59925">
        <ele>79</ele>
        <time>2017-09-17T09:28:16.000Z</time>
      </trkpt>
      <trkpt lat="47.72717" lon="1.59988">
        <ele>78</ele>
        <time>2017-09-17T09:28:27.000Z</time>
      </trkpt>
      <trkpt lat="47.72719" lon="1.59994">
        <ele>78</ele>
        <time>2017-09-17T09:28:28.000Z</time>
      </trkpt>
      <trkpt lat="47.72729" lon="1.60018">
        <ele>78</ele>
        <time>2017-09-17T09:28:32.000Z</time>
      </trkpt>
      <trkpt lat="47.72755" lon="1.60075">
        <ele>78</ele>
        <time>2017-09-17T09:28:42.000Z</time>
      </trkpt>
      <trkpt lat="47.72758" lon="1.6008">
        <ele>78</ele>
        <time>2017-09-17T09:28:43.000Z</time>
      </trkpt>
      <trkpt lat="47.72787" lon="1.60139">
        <ele>78</ele>
        <time>2017-09-17T09:28:54.000Z</time>
      </trkpt>
      <trkpt lat="47.7279" lon="1.60145">
        <ele>78</ele>
        <time>2017-09-17T09:28:55.000Z</time>
      </trkpt>
      <trkpt lat="47.72817" lon="1.60204">
        <ele>78</ele>
        <time>2017-09-17T09:29:05.000Z</time>
      </trkpt>
      <trkpt lat="47.72819" lon="1.6021">
        <ele>78</ele>
        <time>2017-09-17T09:29:06.000Z</time>
      </trkpt>
      <trkpt lat="47.72842" lon="1.60273">
        <ele>79</ele>
        <time>2017-09-17T09:29:16.000Z</time>
      </trkpt>
      <trkpt lat="47.72845" lon="1.60279">
        <ele>79</ele>
        <time>2017-09-17T09:29:17.000Z</time>
      </trkpt>
      <trkpt lat="47.72869" lon="1.60341">
        <ele>79</ele>
        <time>2017-09-17T09:29:27.000Z</time>
      </trkpt>
      <trkpt lat="47.72871" lon="1.60347">
        <ele>78</ele>
        <time>2017-09-17T09:29:28.000Z</time>
      </trkpt>
      <trkpt lat="47.72896" lon="1.60404">
        <ele>78</ele>
        <time>2017-09-17T09:29:37.000Z</time>
      </trkpt>
      <trkpt lat="47.72898" lon="1.60411">
        <ele>78</ele>
        <time>2017-09-17T09:29:38.000Z</time>
      </trkpt>
      <trkpt lat="47.7292" lon="1.60464">
        <ele>78</ele>
        <time>2017-09-17T09:29:47.000Z</time>
      </trkpt>
      <trkpt lat="47.72923" lon="1.6047">
        <ele>78</ele>
        <time>2017-09-17T09:29:48.000Z</time>
      </trkpt>
      <trkpt lat="47.72949" lon="1.60529">
        <ele>77</ele>
        <time>2017-09-17T09:29:59.000Z</time>
      </trkpt>
      <trkpt lat="47.72952" lon="1.60534">
        <ele>77</ele>
        <time>2017-09-17T09:30:00.000Z</time>
      </trkpt>
      <trkpt lat="47.72979" lon="1.60594">
        <ele>76</ele>
        <time>2017-09-17T09:30:10.000Z</time>
      </trkpt>
      <trkpt lat="47.72982" lon="1.606">
        <ele>76</ele>
        <time>2017-09-17T09:30:11.000Z</time>
      </trkpt>
      <trkpt lat="47.73011" lon="1.60661">
        <ele>76</ele>
        <time>2017-09-17T09:30:21.000Z</time>
      </trkpt>
      <trkpt lat="47.73014" lon="1.60667">
        <ele>76</ele>
        <time>2017-09-17T09:30:22.000Z</time>
      </trkpt>
      <trkpt lat="47.73042" lon="1.60726">
        <ele>76</ele>
        <time>2017-09-17T09:30:33.000Z</time>
      </trkpt>
      <trkpt lat="47.73045" lon="1.60731">
        <ele>76</ele>
        <time>2017-09-17T09:30:34.000Z</time>
      </trkpt>
      <trkpt lat="47.73073" lon="1.60785">
        <ele>75</ele>
        <time>2017-09-17T09:30:44.000Z</time>
      </trkpt>
      <trkpt lat="47.73076" lon="1.6079">
        <ele>75</ele>
        <time>2017-09-17T09:30:45.000Z</time>
      </trkpt>
      <trkpt lat="47.73109" lon="1.60845">
        <ele>75</ele>
        <time>2017-09-17T09:30:56.000Z</time>
      </trkpt>
      <trkpt lat="47.73112" lon="1.6085">
        <ele>75</ele>
        <time>2017-09-17T09:30:57.000Z</time>
      </trkpt>
      <trkpt lat="47.73146" lon="1.609">
        <ele>75</ele>
        <time>2017-09-17T09:31:07.000Z</time>
      </trkpt>
      <trkpt lat="47.73149" lon="1.60905">
        <ele>75</ele>
        <time>2017-09-17T09:31:08.000Z</time>
      </trkpt>
      <trkpt lat="47.73183" lon="1.60952">
        <ele>75</ele>
        <time>2017-09-17T09:31:18.000Z</time>
      </trkpt>
      <trkpt lat="47.73186" lon="1.60957">
        <ele>75</ele>
        <time>2017-09-17T09:31:19.000Z</time>
      </trkpt>
      <trkpt lat="47.73222" lon="1.61006">
        <ele>74</ele>
        <time>2017-09-17T09:31:30.000Z</time>
      </trkpt>
      <trkpt lat="47.73226" lon="1.6101">
        <ele>74</ele>
        <time>2017-09-17T09:31:31.000Z</time>
      </trkpt>
      <trkpt lat="47.73264" lon="1.61058">
        <ele>74</ele>
        <time>2017-09-17T09:31:42.000Z</time>
      </trkpt>
      <trkpt lat="47.73267" lon="1.61064">
        <ele>74</ele>
        <time>2017-09-17T09:31:43.000Z</time>
      </trkpt>
      <trkpt lat="47.73301" lon="1.6111">
        <ele>74</ele>
        <time>2017-09-17T09:31:52.000Z</time>
      </trkpt>
      <trkpt lat="47.73304" lon="1.61115">
        <ele>74</ele>
        <time>2017-09-17T09:31:53.000Z</time>
      </trkpt>
      <trkpt lat="47.73341" lon="1.61166">
        <ele>74</ele>
        <time>2017-09-17T09:32:03.000Z</time>
      </trkpt>
      <trkpt lat="47.73344" lon="1.6117">
        <ele>74</ele>
        <time>2017-09-17T09:32:04.000Z</time>
      </trkpt>
      <trkpt lat="47.7338" lon="1.61215">
        <ele>74</ele>
        <time>2017-09-17T09:32:13.000Z</time>
      </trkpt>
      <trkpt lat="47.73384" lon="1.6122">
        <ele>74</ele>
        <time>2017-09-17T09:32:14.000Z</time>
      </trkpt>
      <trkpt lat="47.73406" lon="1.61242">
        <ele>74</ele>
        <time>2017-09-17T09:32:19.000Z</time>
      </trkpt>
      <trkpt lat="47.7343" lon="1.61274">
        <ele>74</ele>
        <time>2017-09-17T09:32:25.000Z</time>
      </trkpt>
      <trkpt lat="47.7346" lon="1.61328">
        <ele>74</ele>
        <time>2017-09-17T09:32:34.000Z</time>
      </trkpt>
      <trkpt lat="47.73464" lon="1.61333">
        <ele>74</ele>
        <time>2017-09-17T09:32:35.000Z</time>
      </trkpt>
      <trkpt lat="47.73492" lon="1.61387">
        <ele>74</ele>
        <time>2017-09-17T09:32:44.000Z</time>
      </trkpt>
      <trkpt lat="47.73495" lon="1.61393">
        <ele>74</ele>
        <time>2017-09-17T09:32:45.000Z</time>
      </trkpt>
      <trkpt lat="47.73523" lon="1.6145">
        <ele>74</ele>
        <time>2017-09-17T09:32:54.000Z</time>
      </trkpt>
      <trkpt lat="47.73527" lon="1.61456">
        <ele>74</ele>
        <time>2017-09-17T09:32:55.000Z</time>
      </trkpt>
      <trkpt lat="47.73558" lon="1.61507">
        <ele>73</ele>
        <time>2017-09-17T09:33:04.000Z</time>
      </trkpt>
      <trkpt lat="47.73561" lon="1.61512">
        <ele>73</ele>
        <time>2017-09-17T09:33:05.000Z</time>
      </trkpt>
      <trkpt lat="47.73573" lon="1.61527">
        <ele>73</ele>
        <time>2017-09-17T09:33:08.000Z</time>
      </trkpt>
      <trkpt lat="47.7361" lon="1.61565">
        <ele>73</ele>
        <time>2017-09-17T09:33:17.000Z</time>
      </trkpt>
      <trkpt lat="47.73614" lon="1.6157">
        <ele>73</ele>
        <time>2017-09-17T09:33:18.000Z</time>
      </trkpt>
      <trkpt lat="47.73651" lon="1.61616">
        <ele>73</ele>
        <time>2017-09-17T09:33:27.000Z</time>
      </trkpt>
      <trkpt lat="47.73655" lon="1.6162">
        <ele>73</ele>
        <time>2017-09-17T09:33:28.000Z</time>
      </trkpt>
      <trkpt lat="47.73694" lon="1.61663">
        <ele>73</ele>
        <time>2017-09-17T09:33:37.000Z</time>
      </trkpt>
      <trkpt lat="47.73698" lon="1.61668">
        <ele>73</ele>
        <time>2017-09-17T09:33:38.000Z</time>
      </trkpt>
      <trkpt lat="47.73732" lon="1.61713">
        <ele>72</ele>
        <time>2017-09-17T09:33:47.000Z</time>
      </trkpt>
      <trkpt lat="47.73736" lon="1.61719">
        <ele>72</ele>
        <time>2017-09-17T09:33:48.000Z</time>
      </trkpt>
      <trkpt lat="47.73769" lon="1.6177">
        <ele>73</ele>
        <time>2017-09-17T09:33:57.000Z</time>
      </trkpt>
      <trkpt lat="47.73772" lon="1.61777">
        <ele>73</ele>
        <time>2017-09-17T09:33:58.000Z</time>
      </trkpt>
      <trkpt lat="47.73802" lon="1.61829">
        <ele>74</ele>
        <time>2017-09-17T09:34:07.000Z</time>
      </trkpt>
      <trkpt lat="47.73805" lon="1.61835">
        <ele>74</ele>
        <time>2017-09-17T09:34:08.000Z</time>
      </trkpt>
      <trkpt lat="47.73839" lon="1.6189">
        <ele>74</ele>
        <time>2017-09-17T09:34:18.000Z</time>
      </trkpt>
      <trkpt lat="47.73842" lon="1.61894">
        <ele>74</ele>
        <time>2017-09-17T09:34:19.000Z</time>
      </trkpt>
      <trkpt lat="47.73867" lon="1.61927">
        <ele>74</ele>
        <time>2017-09-17T09:34:26.000Z</time>
      </trkpt>
      <trkpt lat="47.73903" lon="1.61972">
        <ele>73</ele>
        <time>2017-09-17T09:34:36.000Z</time>
      </trkpt>
      <trkpt lat="47.73907" lon="1.61977">
        <ele>73</ele>
        <time>2017-09-17T09:34:37.000Z</time>
      </trkpt>
      <trkpt lat="47.7394" lon="1.62024">
        <ele>73</ele>
        <time>2017-09-17T09:34:46.000Z</time>
      </trkpt>
      <trkpt lat="47.73944" lon="1.62029">
        <ele>73</ele>
        <time>2017-09-17T09:34:47.000Z</time>
      </trkpt>
      <trkpt lat="47.73979" lon="1.62074">
        <ele>73</ele>
        <time>2017-09-17T09:34:56.000Z</time>
      </trkpt>
      <trkpt lat="47.73983" lon="1.62079">
        <ele>74</ele>
        <time>2017-09-17T09:34:57.000Z</time>
      </trkpt>
      <trkpt lat="47.7402" lon="1.62122">
        <ele>75</ele>
        <time>2017-09-17T09:35:06.000Z</time>
      </trkpt>
      <trkpt lat="47.74024" lon="1.62127">
        <ele>75</ele>
        <time>2017-09-17T09:35:07.000Z</time>
      </trkpt>
      <trkpt lat="47.74061" lon="1.62167">
        <ele>74</ele>
        <time>2017-09-17T09:35:16.000Z</time>
      </trkpt>
      <trkpt lat="47.74065" lon="1.62171">
        <ele>74</ele>
        <time>2017-09-17T09:35:17.000Z</time>
      </trkpt>
      <trkpt lat="47.74105" lon="1.62212">
        <ele>75</ele>
        <time>2017-09-17T09:35:27.000Z</time>
      </trkpt>
      <trkpt lat="47.74109" lon="1.62216">
        <ele>75</ele>
        <time>2017-09-17T09:35:28.000Z</time>
      </trkpt>
      <trkpt lat="47.74125" lon="1.62231">
        <ele>75</ele>
        <time>2017-09-17T09:35:32.000Z</time>
      </trkpt>
      <trkpt lat="47.74163" lon="1.62268">
        <ele>74</ele>
        <time>2017-09-17T09:35:42.000Z</time>
      </trkpt>
      <trkpt lat="47.74166" lon="1.62272">
        <ele>74</ele>
        <time>2017-09-17T09:35:43.000Z</time>
      </trkpt>
      <trkpt lat="47.74204" lon="1.62311">
        <ele>74</ele>
        <time>2017-09-17T09:35:53.000Z</time>
      </trkpt>
      <trkpt lat="47.74208" lon="1.62315">
        <ele>75</ele>
        <time>2017-09-17T09:35:54.000Z</time>
      </trkpt>
      <trkpt lat="47.74245" lon="1.62355">
        <ele>75</ele>
        <time>2017-09-17T09:36:03.000Z</time>
      </trkpt>
      <trkpt lat="47.74249" lon="1.62359">
        <ele>75</ele>
        <time>2017-09-17T09:36:04.000Z</time>
      </trkpt>
      <trkpt lat="47.74268" lon="1.62383">
        <ele>75</ele>
        <time>2017-09-17T09:36:09.000Z</time>
      </trkpt>
      <trkpt lat="47.74271" lon="1.62395">
        <ele>75</ele>
        <time>2017-09-17T09:36:11.000Z</time>
      </trkpt>
      <trkpt lat="47.74268" lon="1.62421">
        <ele>75</ele>
        <time>2017-09-17T09:36:15.000Z</time>
      </trkpt>
      <trkpt lat="47.7426" lon="1.62453">
        <ele>76</ele>
        <time>2017-09-17T09:36:21.000Z</time>
      </trkpt>
      <trkpt lat="47.74263" lon="1.62461">
        <ele>76</ele>
        <time>2017-09-17T09:36:23.000Z</time>
      </trkpt>
      <trkpt lat="47.743" lon="1.62507">
        <ele>77</ele>
        <time>2017-09-17T09:36:34.000Z</time>
      </trkpt>
      <trkpt lat="47.74303" lon="1.62511">
        <ele>77</ele>
        <time>2017-09-17T09:36:35.000Z</time>
      </trkpt>
      <trkpt lat="47.74339" lon="1.62554">
        <ele>77</ele>
        <time>2017-09-17T09:36:44.000Z</time>
      </trkpt>
      <trkpt lat="47.74343" lon="1.62559">
        <ele>77</ele>
        <time>2017-09-17T09:36:45.000Z</time>
      </trkpt>
      <trkpt lat="47.74379" lon="1.62603">
        <ele>78</ele>
        <time>2017-09-17T09:36:54.000Z</time>
      </trkpt>
      <trkpt lat="47.74384" lon="1.62608">
        <ele>78</ele>
        <time>2017-09-17T09:36:55.000Z</time>
      </trkpt>
      <trkpt lat="47.74421" lon="1.62653">
        <ele>78</ele>
        <time>2017-09-17T09:37:04.000Z</time>
      </trkpt>
      <trkpt lat="47.74425" lon="1.62657">
        <ele>78</ele>
        <time>2017-09-17T09:37:05.000Z</time>
      </trkpt>
      <trkpt lat="47.74463" lon="1.62703">
        <ele>78</ele>
        <time>2017-09-17T09:37:14.000Z</time>
      </trkpt>
      <trkpt lat="47.74467" lon="1.62708">
        <ele>78</ele>
        <time>2017-09-17T09:37:15.000Z</time>
      </trkpt>
      <trkpt lat="47.74505" lon="1.62753">
        <ele>78</ele>
        <time>2017-09-17T09:37:23.000Z</time>
      </trkpt>
      <trkpt lat="47.7451" lon="1.62759">
        <ele>78</ele>
        <time>2017-09-17T09:37:24.000Z</time>
      </trkpt>
      <trkpt lat="47.74547" lon="1.62804">
        <ele>79</ele>
        <time>2017-09-17T09:37:32.000Z</time>
      </trkpt>
      <trkpt lat="47.74552" lon="1.62809">
        <ele>79</ele>
        <time>2017-09-17T09:37:33.000Z</time>
      </trkpt>
      <trkpt lat="47.7459" lon="1.6285">
        <ele>79</ele>
        <time>2017-09-17T09:37:41.000Z</time>
      </trkpt>
      <trkpt lat="47.74595" lon="1.62856">
        <ele>79</ele>
        <time>2017-09-17T09:37:42.000Z</time>
      </trkpt>
      <trkpt lat="47.74635" lon="1.62897">
        <ele>79</ele>
        <time>2017-09-17T09:37:50.000Z</time>
      </trkpt>
      <trkpt lat="47.7464" lon="1.62903">
        <ele>79</ele>
        <time>2017-09-17T09:37:51.000Z</time>
      </trkpt>
      <trkpt lat="47.7468" lon="1.62945">
        <ele>79</ele>
        <time>2017-09-17T09:37:59.000Z</time>
      </trkpt>
      <trkpt lat="47.74686" lon="1.6295">
        <ele>79</ele>
        <time>2017-09-17T09:38:00.000Z</time>
      </trkpt>
      <trkpt lat="47.74726" lon="1.62993">
        <ele>79</ele>
        <time>2017-09-17T09:38:08.000Z</time>
      </trkpt>
      <trkpt lat="47.74731" lon="1.62998">
        <ele>79</ele>
        <time>2017-09-17T09:38:09.000Z</time>
      </trkpt>
      <trkpt lat="47.74772" lon="1.63041">
        <ele>80</ele>
        <time>2017-09-17T09:38:17.000Z</time>
      </trkpt>
      <trkpt lat="47.74777" lon="1.63046">
        <ele>80</ele>
        <time>2017-09-17T09:38:18.000Z</time>
      </trkpt>
      <trkpt lat="47.74816" lon="1.63086">
        <ele>80</ele>
        <time>2017-09-17T09:38:26.000Z</time>
      </trkpt>
      <trkpt lat="47.74821" lon="1.63092">
        <ele>80</ele>
        <time>2017-09-17T09:38:27.000Z</time>
      </trkpt>
      <trkpt lat="47.74859" lon="1.63131">
        <ele>80</ele>
        <time>2017-09-17T09:38:35.000Z</time>
      </trkpt>
      <trkpt lat="47.74864" lon="1.63136">
        <ele>80</ele>
        <time>2017-09-17T09:38:36.000Z</time>
      </trkpt>
      <trkpt lat="47.74901" lon="1.63175">
        <ele>80</ele>
        <time>2017-09-17T09:38:44.000Z</time>
      </trkpt>
      <trkpt lat="47.74905" lon="1.6318">
        <ele>80</ele>
        <time>2017-09-17T09:38:45.000Z</time>
      </trkpt>
      <trkpt lat="47.74931" lon="1.63202">
        <ele>80</ele>
        <time>2017-09-17T09:38:50.000Z</time>
      </trkpt>
      <trkpt lat="47.74979" lon="1.63225">
        <ele>80</ele>
        <time>2017-09-17T09:38:58.000Z</time>
      </trkpt>
      <trkpt lat="47.74985" lon="1.63228">
        <ele>80</ele>
        <time>2017-09-17T09:38:59.000Z</time>
      </trkpt>
      <trkpt lat="47.75034" lon="1.63251">
        <ele>80</ele>
        <time>2017-09-17T09:39:07.000Z</time>
      </trkpt>
      <trkpt lat="47.7504" lon="1.63253">
        <ele>80</ele>
        <time>2017-09-17T09:39:08.000Z</time>
      </trkpt>
      <trkpt lat="47.75087" lon="1.63276">
        <ele>81</ele>
        <time>2017-09-17T09:39:16.000Z</time>
      </trkpt>
      <trkpt lat="47.75093" lon="1.63278">
        <ele>81</ele>
        <time>2017-09-17T09:39:17.000Z</time>
      </trkpt>
      <trkpt lat="47.75141" lon="1.63302">
        <ele>81</ele>
        <time>2017-09-17T09:39:25.000Z</time>
      </trkpt>
      <trkpt lat="47.75147" lon="1.63305">
        <ele>81</ele>
        <time>2017-09-17T09:39:26.000Z</time>
      </trkpt>
      <trkpt lat="47.75195" lon="1.63328">
        <ele>82</ele>
        <time>2017-09-17T09:39:34.000Z</time>
      </trkpt>
      <trkpt lat="47.75201" lon="1.6333">
        <ele>82</ele>
        <time>2017-09-17T09:39:35.000Z</time>
      </trkpt>
      <trkpt lat="47.75247" lon="1.63353">
        <ele>82</ele>
        <time>2017-09-17T09:39:43.000Z</time>
      </trkpt>
      <trkpt lat="47.75253" lon="1.63355">
        <ele>82</ele>
        <time>2017-09-17T09:39:44.000Z</time>
      </trkpt>
      <trkpt lat="47.75298" lon="1.63376">
        <ele>82</ele>
        <time>2017-09-17T09:39:52.000Z</time>
      </trkpt>
      <trkpt lat="47.75304" lon="1.63379">
        <ele>82</ele>
        <time>2017-09-17T09:39:53.000Z</time>
      </trkpt>
      <trkpt lat="47.75349" lon="1.63399">
        <ele>82</ele>
        <time>2017-09-17T09:40:01.000Z</time>
      </trkpt>
      <trkpt lat="47.75354" lon="1.63401">
        <ele>82</ele>
        <time>2017-09-17T09:40:02.000Z</time>
      </trkpt>
      <trkpt lat="47.75389" lon="1.63411">
        <ele>82</ele>
        <time>2017-09-17T09:40:08.000Z</time>
      </trkpt>
      <trkpt lat="47.75439" lon="1.63423">
        <ele>82</ele>
        <time>2017-09-17T09:40:16.000Z</time>
      </trkpt>
      <trkpt lat="47.75446" lon="1.63424">
        <ele>82</ele>
        <time>2017-09-17T09:40:17.000Z</time>
      </trkpt>
      <trkpt lat="47.75494" lon="1.63433">
        <ele>82</ele>
        <time>2017-09-17T09:40:25.000Z</time>
      </trkpt>
      <trkpt lat="47.75499" lon="1.63434">
        <ele>82</ele>
        <time>2017-09-17T09:40:26.000Z</time>
      </trkpt>
      <trkpt lat="47.75546" lon="1.63444">
        <ele>82</ele>
        <time>2017-09-17T09:40:34.000Z</time>
      </trkpt>
      <trkpt lat="47.75552" lon="1.63445">
        <ele>82</ele>
        <time>2017-09-17T09:40:35.000Z</time>
      </trkpt>
      <trkpt lat="47.75599" lon="1.63455">
        <ele>82</ele>
        <time>2017-09-17T09:40:43.000Z</time>
      </trkpt>
      <trkpt lat="47.75605" lon="1.63456">
        <ele>82</ele>
        <time>2017-09-17T09:40:44.000Z</time>
      </trkpt>
      <trkpt lat="47.75651" lon="1.63465">
        <ele>83</ele>
        <time>2017-09-17T09:40:52.000Z</time>
      </trkpt>
      <trkpt lat="47.75657" lon="1.63466">
        <ele>83</ele>
        <time>2017-09-17T09:40:53.000Z</time>
      </trkpt>
      <trkpt lat="47.75705" lon="1.63476">
        <ele>84</ele>
        <time>2017-09-17T09:41:02.000Z</time>
      </trkpt>
      <trkpt lat="47.75711" lon="1.63477">
        <ele>84</ele>
        <time>2017-09-17T09:41:03.000Z</time>
      </trkpt>
      <trkpt lat="47.75758" lon="1.63485">
        <ele>84</ele>
        <time>2017-09-17T09:41:12.000Z</time>
      </trkpt>
      <trkpt lat="47.75764" lon="1.63487">
        <ele>84</ele>
        <time>2017-09-17T09:41:13.000Z</time>
      </trkpt>
      <trkpt lat="47.75811" lon="1.63497">
        <ele>84</ele>
        <time>2017-09-17T09:41:22.000Z</time>
      </trkpt>
      <trkpt lat="47.75816" lon="1.63499">
        <ele>84</ele>
        <time>2017-09-17T09:41:23.000Z</time>
      </trkpt>
      <trkpt lat="47.75861" lon="1.63508">
        <ele>83</ele>
        <time>2017-09-17T09:41:31.000Z</time>
      </trkpt>
      <trkpt lat="47.75867" lon="1.63509">
        <ele>83</ele>
        <time>2017-09-17T09:41:32.000Z</time>
      </trkpt>
      <trkpt lat="47.75912" lon="1.6352">
        <ele>83</ele>
        <time>2017-09-17T09:41:40.000Z</time>
      </trkpt>
      <trkpt lat="47.75917" lon="1.63522">
        <ele>83</ele>
        <time>2017-09-17T09:41:41.000Z</time>
      </trkpt>
      <trkpt lat="47.75965" lon="1.6353">
        <ele>83</ele>
        <time>2017-09-17T09:41:50.000Z</time>
      </trkpt>
      <trkpt lat="47.75971" lon="1.63531">
        <ele>83</ele>
        <time>2017-09-17T09:41:51.000Z</time>
      </trkpt>
      <trkpt lat="47.76016" lon="1.63538">
        <ele>83</ele>
        <time>2017-09-17T09:41:59.000Z</time>
      </trkpt>
      <trkpt lat="47.76022" lon="1.63538">
        <ele>83</ele>
        <time>2017-09-17T09:42:00.000Z</time>
      </trkpt>
      <trkpt lat="47.76069" lon="1.63546">
        <ele>83</ele>
        <time>2017-09-17T09:42:08.000Z</time>
      </trkpt>
      <trkpt lat="47.76075" lon="1.63548">
        <ele>83</ele>
        <time>2017-09-17T09:42:09.000Z</time>
      </trkpt>
      <trkpt lat="47.76123" lon="1.6356">
        <ele>83</ele>
        <time>2017-09-17T09:42:17.000Z</time>
      </trkpt>
      <trkpt lat="47.76129" lon="1.63561">
        <ele>83</ele>
        <time>2017-09-17T09:42:18.000Z</time>
      </trkpt>
      <trkpt lat="47.76178" lon="1.6357">
        <ele>83</ele>
        <time>2017-09-17T09:42:26.000Z</time>
      </trkpt>
      <trkpt lat="47.76184" lon="1.63571">
        <ele>83</ele>
        <time>2017-09-17T09:42:27.000Z</time>
      </trkpt>
      <trkpt lat="47.76232" lon="1.63586">
        <ele>83</ele>
        <time>2017-09-17T09:42:35.000Z</time>
      </trkpt>
      <trkpt lat="47.76238" lon="1.63587">
        <ele>83</ele>
        <time>2017-09-17T09:42:36.000Z</time>
      </trkpt>
      <trkpt lat="47.76287" lon="1.63593">
        <ele>83</ele>
        <time>2017-09-17T09:42:44.000Z</time>
      </trkpt>
      <trkpt lat="47.76293" lon="1.63594">
        <ele>83</ele>
        <time>2017-09-17T09:42:45.000Z</time>
      </trkpt>
      <trkpt lat="47.76341" lon="1.63605">
        <ele>83</ele>
        <time>2017-09-17T09:42:53.000Z</time>
      </trkpt>
      <trkpt lat="47.76347" lon="1.63606">
        <ele>83</ele>
        <time>2017-09-17T09:42:54.000Z</time>
      </trkpt>
      <trkpt lat="47.76395" lon="1.63615">
        <ele>83</ele>
        <time>2017-09-17T09:43:02.000Z</time>
      </trkpt>
      <trkpt lat="47.76402" lon="1.63616">
        <ele>83</ele>
        <time>2017-09-17T09:43:03.000Z</time>
      </trkpt>
      <trkpt lat="47.7645" lon="1.63626">
        <ele>83</ele>
        <time>2017-09-17T09:43:11.000Z</time>
      </trkpt>
      <trkpt lat="47.76456" lon="1.63628">
        <ele>83</ele>
        <time>2017-09-17T09:43:12.000Z</time>
      </trkpt>
      <trkpt lat="47.76501" lon="1.63639">
        <ele>83</ele>
        <time>2017-09-17T09:43:20.000Z</time>
      </trkpt>
      <trkpt lat="47.76507" lon="1.6364">
        <ele>84</ele>
        <time>2017-09-17T09:43:21.000Z</time>
      </trkpt>
      <trkpt lat="47.76554" lon="1.63652">
        <ele>84</ele>
        <time>2017-09-17T09:43:30.000Z</time>
      </trkpt>
      <trkpt lat="47.7656" lon="1.63653">
        <ele>84</ele>
        <time>2017-09-17T09:43:31.000Z</time>
      </trkpt>
      <trkpt lat="47.76607" lon="1.63662">
        <ele>84</ele>
        <time>2017-09-17T09:43:40.000Z</time>
      </trkpt>
      <trkpt lat="47.76612" lon="1.63663">
        <ele>84</ele>
        <time>2017-09-17T09:43:41.000Z</time>
      </trkpt>
      <trkpt lat="47.76662" lon="1.63672">
        <ele>84</ele>
        <time>2017-09-17T09:43:50.000Z</time>
      </trkpt>
      <trkpt lat="47.76667" lon="1.63672">
        <ele>84</ele>
        <time>2017-09-17T09:43:51.000Z</time>
      </trkpt>
      <trkpt lat="47.76713" lon="1.63683">
        <ele>85</ele>
        <time>2017-09-17T09:44:00.000Z</time>
      </trkpt>
      <trkpt lat="47.76717" lon="1.63686">
        <ele>85</ele>
        <time>2017-09-17T09:44:01.000Z</time>
      </trkpt>
      <trkpt lat="47.76749" lon="1.63721">
        <ele>85</ele>
        <time>2017-09-17T09:44:09.000Z</time>
      </trkpt>
      <trkpt lat="47.76785" lon="1.63766">
        <ele>84</ele>
        <time>2017-09-17T09:44:18.000Z</time>
      </trkpt>
      <trkpt lat="47.76789" lon="1.63771">
        <ele>84</ele>
        <time>2017-09-17T09:44:19.000Z</time>
      </trkpt>
      <trkpt lat="47.76826" lon="1.63812">
        <ele>84</ele>
        <time>2017-09-17T09:44:28.000Z</time>
      </trkpt>
      <trkpt lat="47.76831" lon="1.63817">
        <ele>83</ele>
        <time>2017-09-17T09:44:29.000Z</time>
      </trkpt>
      <trkpt lat="47.76865" lon="1.63861">
        <ele>83</ele>
        <time>2017-09-17T09:44:37.000Z</time>
      </trkpt>
      <trkpt lat="47.7687" lon="1.63867">
        <ele>83</ele>
        <time>2017-09-17T09:44:38.000Z</time>
      </trkpt>
      <trkpt lat="47.76908" lon="1.63914">
        <ele>83</ele>
        <time>2017-09-17T09:44:46.000Z</time>
      </trkpt>
      <trkpt lat="47.76913" lon="1.6392">
        <ele>83</ele>
        <time>2017-09-17T09:44:47.000Z</time>
      </trkpt>
      <trkpt lat="47.76952" lon="1.63967">
        <ele>83</ele>
        <time>2017-09-17T09:44:55.000Z</time>
      </trkpt>
      <trkpt lat="47.76957" lon="1.63973">
        <ele>83</ele>
        <time>2017-09-17T09:44:56.000Z</time>
      </trkpt>
      <trkpt lat="47.76996" lon="1.6402">
        <ele>83</ele>
        <time>2017-09-17T09:45:04.000Z</time>
      </trkpt>
      <trkpt lat="47.77001" lon="1.64026">
        <ele>83</ele>
        <time>2017-09-17T09:45:05.000Z</time>
      </trkpt>
      <trkpt lat="47.77037" lon="1.64068">
        <ele>83</ele>
        <time>2017-09-17T09:45:12.000Z</time>
      </trkpt>
      <trkpt lat="47.77042" lon="1.64074">
        <ele>83</ele>
        <time>2017-09-17T09:45:13.000Z</time>
      </trkpt>
      <trkpt lat="47.77077" lon="1.64119">
        <ele>82</ele>
        <time>2017-09-17T09:45:20.000Z</time>
      </trkpt>
      <trkpt lat="47.77083" lon="1.64124">
        <ele>82</ele>
        <time>2017-09-17T09:45:21.000Z</time>
      </trkpt>
      <trkpt lat="47.77104" lon="1.64145">
        <ele>82</ele>
        <time>2017-09-17T09:45:25.000Z</time>
      </trkpt>
      <trkpt lat="47.77145" lon="1.6418">
        <ele>83</ele>
        <time>2017-09-17T09:45:32.000Z</time>
      </trkpt>
      <trkpt lat="47.7715" lon="1.64185">
        <ele>83</ele>
        <time>2017-09-17T09:45:33.000Z</time>
      </trkpt>
      <trkpt lat="47.77185" lon="1.6421">
        <ele>82</ele>
        <time>2017-09-17T09:45:39.000Z</time>
      </trkpt>
      <trkpt lat="47.77198" lon="1.64206">
        <ele>82</ele>
        <time>2017-09-17T09:45:41.000Z</time>
      </trkpt>
      <trkpt lat="47.77245" lon="1.64174">
        <ele>79</ele>
        <time>2017-09-17T09:45:47.000Z</time>
      </trkpt>
      <trkpt lat="47.77252" lon="1.64169">
        <ele>79</ele>
        <time>2017-09-17T09:45:48.000Z</time>
      </trkpt>
      <trkpt lat="47.77295" lon="1.64137">
        <ele>79</ele>
        <time>2017-09-17T09:45:54.000Z</time>
      </trkpt>
      <trkpt lat="47.77302" lon="1.64132">
        <ele>79</ele>
        <time>2017-09-17T09:45:55.000Z</time>
      </trkpt>
      <trkpt lat="47.77348" lon="1.64098">
        <ele>79</ele>
        <time>2017-09-17T09:46:02.000Z</time>
      </trkpt>
      <trkpt lat="47.77354" lon="1.64093">
        <ele>79</ele>
        <time>2017-09-17T09:46:03.000Z</time>
      </trkpt>
      <trkpt lat="47.77397" lon="1.64057">
        <ele>79</ele>
        <time>2017-09-17T09:46:10.000Z</time>
      </trkpt>
      <trkpt lat="47.77403" lon="1.64051">
        <ele>79</ele>
        <time>2017-09-17T09:46:11.000Z</time>
      </trkpt>
      <trkpt lat="47.77429" lon="1.64021">
        <ele>80</ele>
        <time>2017-09-17T09:46:16.000Z</time>
      </trkpt>
      <trkpt lat="47.7747" lon="1.64011">
        <ele>80</ele>
        <time>2017-09-17T09:46:22.000Z</time>
      </trkpt>
      <trkpt lat="47.77477" lon="1.64012">
        <ele>80</ele>
        <time>2017-09-17T09:46:23.000Z</time>
      </trkpt>
      <trkpt lat="47.77526" lon="1.64019">
        <ele>81</ele>
        <time>2017-09-17T09:46:30.000Z</time>
      </trkpt>
      <trkpt lat="47.77532" lon="1.6402">
        <ele>81</ele>
        <time>2017-09-17T09:46:31.000Z</time>
      </trkpt>
      <trkpt lat="47.77551" lon="1.64022">
        <ele>82</ele>
        <time>2017-09-17T09:46:38.000Z</time>
      </trkpt>
      <trkpt lat="47.77557" lon="1.64016">
        <ele>83</ele>
        <time>2017-09-17T09:46:53.000Z</time>
      </trkpt>
      <trkpt lat="47.77581" lon="1.63952">
        <ele>83</ele>
        <time>2017-09-17T09:47:05.000Z</time>
      </trkpt>
      <trkpt lat="47.77583" lon="1.63946">
        <ele>83</ele>
        <time>2017-09-17T09:47:06.000Z</time>
      </trkpt>
      <trkpt lat="47.77608" lon="1.63881">
        <ele>84</ele>
        <time>2017-09-17T09:47:16.000Z</time>
      </trkpt>
      <trkpt lat="47.77611" lon="1.63874">
        <ele>84</ele>
        <time>2017-09-17T09:47:17.000Z</time>
      </trkpt>
      <trkpt lat="47.77637" lon="1.63809">
        <ele>84</ele>
        <time>2017-09-17T09:47:26.000Z</time>
      </trkpt>
      <trkpt lat="47.7764" lon="1.63802">
        <ele>84</ele>
        <time>2017-09-17T09:47:27.000Z</time>
      </trkpt>
      <trkpt lat="47.77663" lon="1.63744">
        <ele>84</ele>
        <time>2017-09-17T09:47:35.000Z</time>
      </trkpt>
      <trkpt lat="47.77666" lon="1.63737">
        <ele>84</ele>
        <time>2017-09-17T09:47:36.000Z</time>
      </trkpt>
      <trkpt lat="47.77691" lon="1.63674">
        <ele>85</ele>
        <time>2017-09-17T09:47:45.000Z</time>
      </trkpt>
      <trkpt lat="47.77694" lon="1.63668">
        <ele>85</ele>
        <time>2017-09-17T09:47:46.000Z</time>
      </trkpt>
      <trkpt lat="47.77718" lon="1.63604">
        <ele>85</ele>
        <time>2017-09-17T09:47:55.000Z</time>
      </trkpt>
      <trkpt lat="47.77721" lon="1.63597">
        <ele>85</ele>
        <time>2017-09-17T09:47:56.000Z</time>
      </trkpt>
      <trkpt lat="47.77745" lon="1.63536">
        <ele>86</ele>
        <time>2017-09-17T09:48:06.000Z</time>
      </trkpt>
      <trkpt lat="47.77747" lon="1.63532">
        <ele>86</ele>
        <time>2017-09-17T09:48:07.000Z</time>
      </trkpt>
      <trkpt lat="47.77765" lon="1.6349">
        <ele>83</ele>
        <time>2017-09-17T09:48:21.000Z</time>
      </trkpt>
      <trkpt lat="47.77774" lon="1.63496">
        <ele>83</ele>
        <time>2017-09-17T09:48:25.000Z</time>
      </trkpt>
      <trkpt lat="47.77817" lon="1.63532">
        <ele>84</ele>
        <time>2017-09-17T09:48:37.000Z</time>
      </trkpt>
      <trkpt lat="47.77821" lon="1.63535">
        <ele>84</ele>
        <time>2017-09-17T09:48:38.000Z</time>
      </trkpt>
      <trkpt lat="47.77836" lon="1.63546">
        <ele>84</ele>
        <time>2017-09-17T09:48:42.000Z</time>
      </trkpt>
      <trkpt lat="47.77876" lon="1.63577">
        <ele>83</ele>
        <time>2017-09-17T09:48:53.000Z</time>
      </trkpt>
      <trkpt lat="47.7788" lon="1.63581">
        <ele>83</ele>
        <time>2017-09-17T09:48:54.000Z</time>
      </trkpt>
      <trkpt lat="47.77902" lon="1.63605">
        <ele>82</ele>
        <time>2017-09-17T09:49:01.000Z</time>
      </trkpt>
      <trkpt lat="47.77902" lon="1.63622">
        <ele>82</ele>
        <time>2017-09-17T09:49:04.000Z</time>
      </trkpt>
      <trkpt lat="47.779" lon="1.63638">
        <ele>82</ele>
        <time>2017-09-17T09:49:07.000Z</time>
      </trkpt>
      <trkpt lat="47.77899" lon="1.63649">
        <ele>82</ele>
        <time>2017-09-17T09:49:09.000Z</time>
      </trkpt>
      <trkpt lat="47.77898" lon="1.63664">
        <ele>82</ele>
        <time>2017-09-17T09:49:12.000Z</time>
      </trkpt>
      <trkpt lat="47.779" lon="1.63679">
        <ele>82</ele>
        <time>2017-09-17T09:49:16.000Z</time>
      </trkpt>
      <trkpt lat="47.779" lon="1.63686">
        <ele>76</ele>
        <time>2017-09-17T09:49:50.000Z</time>
      </trkpt>
      <trkpt lat="47.779" lon="1.63686">
        <ele>66</ele>
        <time>2017-09-17T09:51:50.000Z</time>
      </trkpt>
      <trkpt lat="47.77904" lon="1.63693">
        <ele>48</ele>
        <time>2017-09-17T09:52:08.000Z</time>
      </trkpt>
      <trkpt lat="47.77898" lon="1.6369">
        <ele>47</ele>
        <time>2017-09-17T09:52:15.000Z</time>
      </trkpt>
      <trkpt lat="47.77894" lon="1.63696">
        <ele>49</ele>
        <time>2017-09-17T09:52:21.000Z</time>
      </trkpt>
      <trkpt lat="47.77893" lon="1.63704">
        <ele>53</ele>
        <time>2017-09-17T09:52:27.000Z</time>
      </trkpt>
      <trkpt lat="47.77892" lon="1.63724">
        <ele>72</ele>
        <time>2017-09-17T09:53:32.000Z</time>
      </trkpt>
      <trkpt lat="47.77893" lon="1.63725">
        <ele>74</ele>
        <time>2017-09-17T09:54:05.000Z</time>
      </trkpt>
    </trkseg>
  </trk>
</gpx>